U21942 / G-EZUF 7700 Squawk Report (17th of October, 2021)

Aircraft A320 Reg No. G-EZUF Age 10 years old
Model A320 Jet engines 2 First flight 29-03-11
Registered 18-04-12 Rollout 03-11 Delivered 18-04-11
Construction No. 4676 Line No. N/A Series 214
ADSHEX 406440 Airline name easyJet Owner N/A
Airfield based Luton~Beds~G First tracked N/A

Flight history for G-EZUF

Route Flight No Date Playback
Eleftherios Venizelos Intl (ATH) - Gatwick (LGW) U28088 2021-11-29 21:50:00
Gatwick (LGW) - Eleftherios Venizelos Intl (ATH) U28087 2021-11-29 18:06:00
Geneve Cointrin (GVA) - Gatwick (LGW) U28465 2021-11-29 10:00:00
Gatwick (LGW) - Geneve Cointrin (GVA) U28462 2021-11-29 07:22:00
Barcelona–El Prat (BCN) - Gatwick (LGW) U28578 2021-11-28 21:22:00
Gatwick (LGW) - Barcelona–El Prat (BCN) U28577 2021-11-28 17:47:00
Schiphol (AMS) - Gatwick (LGW) U28876 2021-11-28 15:35:00
Gatwick (LGW) - Schiphol (AMS) U28875 2021-11-28 13:36:00
Copenhagen Airport (CPH) - Gatwick (LGW) U28268 2021-11-26 23:42:00
Gatwick (LGW) - Copenhagen Airport (CPH) U28267 2021-11-26 19:11:00
Linate (LIN) - Gatwick (LGW) U28186 2021-11-26 17:05:00
Gatwick (LGW) - Linate (LIN) U28185 2021-11-26 14:16:00
Schiphol (AMS) - Gatwick (LGW) U28884 2021-11-26 09:14:00
Gatwick (LGW) - Schiphol (AMS) U28881 2021-11-25 19:25:00
Jersey (JER) - Gatwick (LGW) U2896 2021-11-25 18:25:00
Gatwick (LGW) - Jersey (JER) U2895 2021-11-25 15:37:00
Son Sant Joan (PMI) - Gatwick (LGW) U28628 2021-11-23 18:45:00
Gatwick (LGW) - Son Sant Joan (PMI) U28627 2021-11-23 14:43:00
Luqa (MLA) - Gatwick (LGW) U28824 2021-11-22 14:25:00
Gatwick (LGW) - Luqa (MLA) U28823 2021-11-22 11:23:00
Time Lat Lon Altitude Heading Speed Vertical Rate
2021-10-17 21:13:07 GMT 53.362804 -2.278976 0 137 0 0
2021-10-17 21:12:55 GMT 53.362797 -2.278976 0 137 0 0
2021-10-17 21:12:49 GMT 53.362804 -2.278996 0 137 1 0
2021-10-17 21:12:38 GMT 53.362911 -2.279158 0 137 5 0
2021-10-17 21:12:28 GMT 53.363144 -2.279502 0 137 9 0
2021-10-17 21:12:18 GMT 53.363434 -2.279938 0 75 8 0
2021-10-17 21:12:07 GMT 53.363201 -2.280451 0 22 12 0
2021-10-17 21:11:40 GMT 53.361958 -2.280644 0 315 8 0
2021-10-17 21:11:39 GMT 53.361889 -2.280526 0 315 8 0
2021-10-17 21:11:28 GMT 53.361668 -2.280148 0 315 9 0
2021-10-17 21:11:06 GMT 53.360806 -2.278694 0 323 17 0
2021-10-17 21:10:42 GMT 53.359062 -2.278486 0 5 17 0
2021-10-17 21:10:33 GMT 53.358456 -2.278573 0 5 16 0
2021-10-17 21:10:26 GMT 53.357906 -2.278663 0 5 16 0
2021-10-17 21:10:16 GMT 53.357231 -2.278795 0 5 15 0
2021-10-17 21:10:04 GMT 53.356464 -2.278918 0 36 12 0
2021-10-17 21:10:01 GMT 53.356323 -2.278976 0 36 12 0
2021-10-17 21:09:50 GMT 53.355812 -2.279905 0 14 17 0
2021-10-17 21:09:48 GMT 53.355709 -2.280128 0 50 20 0
2021-10-17 21:09:23 GMT 53.354027 -2.281645 0 8 17 0
2021-10-17 21:09:14 GMT 53.353283 -2.281939 0 22 14 0
2021-10-17 21:09:04 GMT 53.352810 -2.282248 0 0 12 0
2021-10-17 21:08:56 GMT 53.352425 -2.282096 0 298 12 0
2021-10-17 21:08:53 GMT 53.352333 -2.281885 0 278 12 0
2021-10-17 21:08:43 GMT 53.352379 -2.280879 0 261 16 0
2021-10-17 21:08:31 GMT 53.352551 -2.279055 0 258 23 0
2021-10-17 21:08:27 GMT 53.352654 -2.278329 0 253 26 0
2021-10-17 21:08:23 GMT 53.352798 -2.277603 0 247 26 0
2021-10-17 21:08:16 GMT 53.353203 -2.276230 0 230 48 0
2021-10-17 21:08:13 GMT 53.353420 -2.275700 0 233 34 0
2021-10-17 21:08:06 GMT 53.354279 -2.273876 0 230 46 0
2021-10-17 21:08:00 GMT 53.355263 -2.271835 0 230 67 0
2021-10-17 21:07:56 GMT 53.355846 -2.270636 0 230 80 0
2021-10-17 21:07:53 GMT 53.356663 -2.268939 175 230 98 0
2021-10-17 21:07:48 GMT 53.358398 -2.265302 175 231 122 -64
2021-10-17 21:07:43 GMT 53.359863 -2.262399 175 232 126 -128
2021-10-17 21:07:37 GMT 53.362179 -2.257529 275 231 125 -640
2021-10-17 21:07:34 GMT 53.363155 -2.255509 350 231 123 -704
2021-10-17 21:07:30 GMT 53.364597 -2.252520 350 231 123 -704
2021-10-17 21:07:25 GMT 53.366364 -2.248823 400 232 123 -640
2021-10-17 21:07:22 GMT 53.367554 -2.246312 425 232 123 -704
2021-10-17 21:07:15 GMT 53.370255 -2.240819 525 231 122 -704
2021-10-17 21:07:12 GMT 53.370975 -2.239272 550 231 122 -704
2021-10-17 21:07:08 GMT 53.372700 -2.235718 600 231 122 -640
2021-10-17 21:07:05 GMT 53.373779 -2.233442 625 231 122 -704
2021-10-17 21:07:02 GMT 53.374516 -2.232002 725 231 122 -704
2021-10-17 21:06:56 GMT 53.376938 -2.226929 0 231 122 0
2021-10-17 21:06:53 GMT 53.377960 -2.224812 775 231 122 -768
2021-10-17 21:06:48 GMT 53.379684 -2.221279 850 231 122 0
2021-10-17 21:06:45 GMT 53.380939 -2.218673 850 231 122 -640
2021-10-17 21:06:41 GMT 53.381870 -2.216815 925 231 122 -640
2021-10-17 21:06:36 GMT 53.383942 -2.212411 975 231 122 -640
2021-10-17 21:06:32 GMT 53.386433 -2.207283 1,025 231 122 -704
2021-10-17 21:06:29 GMT 53.386433 -2.207283 1,025 231 122 -704
2021-10-17 21:06:25 GMT 53.388016 -2.204051 1,075 231 122 -640
2021-10-17 21:06:22 GMT 53.388748 -2.202602 1,175 231 122 -576
2021-10-17 21:06:19 GMT 53.390018 -2.199931 1,175 231 122 -576
2021-10-17 21:06:16 GMT 53.392017 -2.195731 1,175 232 123 -576
2021-10-17 21:06:13 GMT 53.392017 -2.195731 1,200 232 123 -640
2021-10-17 21:06:10 GMT 53.393135 -2.193469 1,225 231 123 -640
2021-10-17 21:06:07 GMT 53.394672 -2.190238 1,275 232 124 -704
2021-10-17 21:06:04 GMT 53.395386 -2.188790 1,325 232 125 -704
2021-10-17 21:06:01 GMT 53.396347 -2.186764 1,325 232 125 -704
2021-10-17 21:05:58 GMT 53.397278 -2.184825 1,375 231 126 -768
2021-10-17 21:05:55 GMT 53.398674 -2.181998 1,425 232 127 -704
2021-10-17 21:05:52 GMT 53.399559 -2.180140 1,475 232 130 -448
2021-10-17 21:05:49 GMT 53.400558 -2.178040 1,475 232 129 -512
2021-10-17 21:05:46 GMT 53.403423 -2.172062 1,500 232 133 -704
2021-10-17 21:05:42 GMT 53.403423 -2.172062 1,525 232 135 -704
2021-10-17 21:05:39 GMT 53.405045 -2.168701 1,600 231 136 -768
2021-10-17 21:05:36 GMT 53.406033 -2.166649 1,625 232 138 -832
2021-10-17 21:05:33 GMT 53.406914 -2.164791 1,675 232 140 -832
2021-10-17 21:05:30 GMT 53.408340 -2.161795 1,775 232 145 -832
2021-10-17 21:05:27 GMT 53.409477 -2.159379 1,775 232 145 -832
2021-10-17 21:05:24 GMT 53.410995 -2.156145 1,775 232 146 -960
2021-10-17 21:05:23 GMT 53.410995 -2.156145 1,775 232 147 -960
2021-10-17 21:05:21 GMT 53.412083 -2.153886 1,825 232 148 -832
2021-10-17 21:05:19 GMT 53.412735 -2.152536 1,850 232 148 -832
2021-10-17 21:05:18 GMT 53.413193 -2.151515 1,875 233 149 -832
2021-10-17 21:05:17 GMT 53.413696 -2.150417 1,875 233 150 -896
2021-10-17 21:05:15 GMT 53.414551 -2.148635 1,900 232 151 -768
2021-10-17 21:05:14 GMT 53.414921 -2.147827 1,925 232 151 -768
2021-10-17 21:05:12 GMT 53.415802 -2.145865 1,925 233 151 -768
2021-10-17 21:05:11 GMT 53.416180 -2.145000 1,950 233 151 -768
2021-10-17 21:05:10 GMT 53.416599 -2.144192 1,950 233 151 -768
2021-10-17 21:05:09 GMT 53.417953 -2.141235 2,000 233 151 -768
2021-10-17 21:05:07 GMT 53.417953 -2.141235 2,000 233 151 -768
2021-10-17 21:05:06 GMT 53.418365 -2.140294 2,000 233 151 -768
2021-10-17 21:05:04 GMT 53.419235 -2.138489 2,025 233 152 -704
2021-10-17 21:05:03 GMT 53.419579 -2.137649 2,050 233 152 -640
2021-10-17 21:05:02 GMT 53.420013 -2.136762 2,050 233 152 -704
2021-10-17 21:05:01 GMT 53.420929 -2.134801 2,075 233 153 -896
2021-10-17 21:04:59 GMT 53.421345 -2.133852 2,100 233 153 -896
2021-10-17 21:04:58 GMT 53.422256 -2.131897 2,125 233 153 -896
2021-10-17 21:04:56 GMT 53.422649 -2.131025 2,150 233 154 -896
2021-10-17 21:04:55 GMT 53.423126 -2.130014 2,150 233 154 -896
2021-10-17 21:04:54 GMT 53.424408 -2.127189 2,200 234 153 -832
2021-10-17 21:04:52 GMT 53.424408 -2.127189 2,200 234 153 -832
2021-10-17 21:04:50 GMT 53.425629 -2.124320 2,250 235 154 -768
2021-10-17 21:04:48 GMT 53.426422 -2.122402 2,275 237 153 -640
2021-10-17 21:04:47 GMT 53.426788 -2.121538 2,275 237 153 -640
2021-10-17 21:04:45 GMT 53.427155 -2.120597 2,300 238 153 -576
2021-10-17 21:04:42 GMT 53.428284 -2.117453 2,325 242 152 -512
2021-10-17 21:04:40 GMT 53.428982 -2.115272 2,325 245 152 -448
2021-10-17 21:04:38 GMT 53.429626 -2.113063 2,350 249 153 -384
2021-10-17 21:04:36 GMT 53.430130 -2.110866 2,350 253 153 -448
2021-10-17 21:04:35 GMT 53.430378 -2.109375 2,375 256 154 -448
2021-10-17 21:04:33 GMT 53.430702 -2.107355 2,375 260 154 -448
2021-10-17 21:04:31 GMT 53.430954 -2.104353 2,425 264 155 -448
2021-10-17 21:04:28 GMT 53.431355 -2.098389 2,425 265 156 -448
2021-10-17 21:04:25 GMT 53.431355 -2.098389 2,425 265 157 -448
2021-10-17 21:04:24 GMT 53.431541 -2.095077 2,450 265 158 -512
2021-10-17 21:04:23 GMT 53.431541 -2.095077 2,450 265 158 -512
2021-10-17 21:04:22 GMT 53.431587 -2.094026 2,475 265 159 -576
2021-10-17 21:04:19 GMT 53.431778 -2.091012 2,500 265 160 -640
2021-10-17 21:04:18 GMT 53.431870 -2.089364 2,500 265 160 -704
2021-10-17 21:04:17 GMT 53.431961 -2.088210 2,525 265 161 -768
2021-10-17 21:04:16 GMT 53.432007 -2.086837 2,525 265 161 -832
2021-10-17 21:04:15 GMT 53.432236 -2.082929 2,575 265 162 -960
2021-10-17 21:04:13 GMT 53.432236 -2.082929 2,575 265 162 -1024
2021-10-17 21:04:12 GMT 53.432335 -2.081586 2,600 265 162 -1152
2021-10-17 21:04:09 GMT 53.432564 -2.077224 2,700 266 162 -1152
2021-10-17 21:04:06 GMT 53.432705 -2.073912 2,700 266 163 -1024
2021-10-17 21:04:04 GMT 53.432831 -2.071315 2,750 266 164 -640
2021-10-17 21:04:02 GMT 53.432938 -2.068742 2,750 267 165 -320
2021-10-17 21:04:01 GMT 53.432983 -2.067611 2,750 267 166 -192
2021-10-17 21:04:00 GMT 53.433079 -2.065107 2,775 269 170 64
2021-10-17 21:03:58 GMT 53.433105 -2.063782 2,775 269 170 128
2021-10-17 21:03:56 GMT 53.433151 -2.061271 2,750 270 172 192
2021-10-17 21:03:55 GMT 53.433151 -2.058446 2,750 272 177 320
2021-10-17 21:03:53 GMT 53.433125 -2.056867 2,750 275 181 128
2021-10-17 21:03:52 GMT 53.433060 -2.055542 2,750 275 181 0
2021-10-17 21:03:50 GMT 53.432877 -2.052717 2,750 282 187 -448
2021-10-17 21:03:48 GMT 53.432327 -2.048009 2,800 287 190 -768
2021-10-17 21:03:46 GMT 53.432194 -2.047254 2,800 289 191 -832
2021-10-17 21:03:45 GMT 53.431450 -2.043942 2,825 294 193 -832
2021-10-17 21:03:43 GMT 53.431076 -2.042407 2,850 296 195 -768
2021-10-17 21:03:42 GMT 53.430817 -2.041652 2,850 301 198 -768
2021-10-17 21:03:40 GMT 53.429913 -2.038933 2,875 303 199 -832
2021-10-17 21:03:39 GMT 53.429443 -2.037650 2,875 307 202 -832
2021-10-17 21:03:38 GMT 53.428940 -2.036394 2,900 307 202 -832
2021-10-17 21:03:36 GMT 53.427612 -2.033569 2,925 313 205 -832
2021-10-17 21:03:34 GMT 53.426422 -2.031340 2,950 313 205 -832
2021-10-17 21:03:33 GMT 53.425770 -2.030209 2,975 315 207 -832
2021-10-17 21:03:32 GMT 53.425049 -2.029018 2,975 317 210 -832
2021-10-17 21:03:31 GMT 53.423206 -2.026170 3,025 318 210 -832
2021-10-17 21:03:29 GMT 53.423206 -2.026170 3,025 318 213 -896
2021-10-17 21:03:27 GMT 53.421764 -2.023989 3,075 318 214 -896
2021-10-17 21:03:25 GMT 53.420197 -2.021563 3,075 318 214 -960
2021-10-17 21:03:24 GMT 53.419464 -2.020464 3,100 318 215 -960
2021-10-17 21:03:22 GMT 53.417950 -2.018092 3,125 318 217 -896
2021-10-17 21:03:21 GMT 53.417156 -2.016880 3,150 318 218 -960
2021-10-17 21:03:20 GMT 53.415527 -2.014422 3,175 318 220 -960
2021-10-17 21:03:18 GMT 53.414749 -2.013166 3,200 318 220 -960
2021-10-17 21:03:17 GMT 53.413200 -2.010740 3,225 318 221 -1024
2021-10-17 21:03:13 GMT 53.408871 -2.004116 3,325 318 223 -1024
2021-10-17 21:03:10 GMT 53.408871 -2.004116 3,325 318 225 -960
2021-10-17 21:03:09 GMT 53.407940 -2.002662 3,350 318 227 -704
2021-10-17 21:03:07 GMT 53.406464 -2.000375 3,375 318 227 -640
2021-10-17 21:03:05 GMT 53.404961 -1.998058 3,400 318 227 -512
2021-10-17 21:03:04 GMT 53.403854 -1.996294 3,400 318 228 -448
2021-10-17 21:03:03 GMT 53.401562 -1.992807 3,425 318 228 -384
2021-10-17 21:03:01 GMT 53.401562 -1.992807 3,425 318 228 -320
2021-10-17 21:02:58 GMT 53.399139 -1.989010 3,450 318 229 -192
2021-10-17 21:02:57 GMT 53.398350 -1.987879 3,450 318 229 -192
2021-10-17 21:02:56 GMT 53.396851 -1.985465 3,450 318 229 -128
2021-10-17 21:02:54 GMT 53.396114 -1.984325 3,450 318 230 -128
2021-10-17 21:02:53 GMT 53.395325 -1.983113 3,450 318 230 -128
2021-10-17 21:02:51 GMT 53.393646 -1.980609 3,475 318 231 -192
2021-10-17 21:02:50 GMT 53.392044 -1.978088 3,475 318 232 -192
2021-10-17 21:02:48 GMT 53.391319 -1.976974 3,475 318 232 -256
2021-10-17 21:02:46 GMT 53.389755 -1.974636 3,500 318 233 -384
2021-10-17 21:02:43 GMT 53.388107 -1.972046 3,525 318 234 -512
2021-10-17 21:02:41 GMT 53.386620 -1.969784 3,525 318 234 -512
2021-10-17 21:02:39 GMT 53.384617 -1.966714 3,550 318 235 -576
2021-10-17 21:02:37 GMT 53.383408 -1.964856 3,575 318 237 -640
2021-10-17 21:02:36 GMT 53.381836 -1.962472 3,575 318 238 -768
2021-10-17 21:02:34 GMT 53.380985 -1.961140 3,600 318 238 -832
2021-10-17 21:02:33 GMT 53.380142 -1.959882 3,625 318 239 -832
2021-10-17 21:02:30 GMT 53.376236 -1.953870 3,675 318 242 -896
2021-10-17 21:02:28 GMT 53.375519 -1.952820 3,700 318 243 -896
2021-10-17 21:02:26 GMT 53.374054 -1.950544 3,725 318 246 -896
2021-10-17 21:02:25 GMT 53.372978 -1.948942 3,725 318 246 -896
2021-10-17 21:02:24 GMT 53.372234 -1.947811 3,750 318 246 -832
2021-10-17 21:02:22 GMT 53.370464 -1.945065 3,775 318 248 -832
2021-10-17 21:02:21 GMT 53.369659 -1.943874 3,800 318 249 -832
2021-10-17 21:02:20 GMT 53.367874 -1.941127 3,825 318 251 -832
2021-10-17 21:02:18 GMT 53.367004 -1.939793 3,825 318 252 -832
2021-10-17 21:02:17 GMT 53.366135 -1.938538 3,850 318 254 -896
2021-10-17 21:02:15 GMT 53.364304 -1.935713 3,875 318 256 -896
2021-10-17 21:02:14 GMT 53.363483 -1.934482 3,900 318 256 -896
2021-10-17 21:02:12 GMT 53.361855 -1.931978 3,925 318 258 -896
2021-10-17 21:02:11 GMT 53.360184 -1.929435 3,950 318 260 -896
2021-10-17 21:02:09 GMT 53.359386 -1.928181 3,950 318 261 -832
2021-10-17 21:02:08 GMT 53.358410 -1.926647 4,375 318 261 -832
2021-10-17 21:02:07 GMT 53.356567 -1.923863 4,000 318 264 -832
2021-10-17 21:02:05 GMT 53.355560 -1.922372 4,025 318 265 -832
2021-10-17 21:02:03 GMT 53.353867 -1.919704 4,050 318 267 -832
2021-10-17 21:02:02 GMT 53.352859 -1.918213 4,050 318 267 -896
2021-10-17 21:02:01 GMT 53.351120 -1.915545 4,100 318 270 -960
2021-10-17 21:01:59 GMT 53.350113 -1.913975 4,100 318 271 -1024
2021-10-17 21:01:58 GMT 53.349106 -1.912406 4,125 318 272 -1024
2021-10-17 21:01:56 GMT 53.347191 -1.909521 4,150 318 274 -1152
2021-10-17 21:01:54 GMT 53.345234 -1.906532 4,200 318 276 -1216
2021-10-17 21:01:53 GMT 53.344395 -1.905159 4,225 318 277 -1216
2021-10-17 21:01:52 GMT 53.343613 -1.904009 4,225 318 278 -1216
2021-10-17 21:01:50 GMT 53.342628 -1.902493 4,275 318 278 -1216
2021-10-17 21:01:48 GMT 53.340317 -1.898908 4,300 318 280 -1216
2021-10-17 21:01:46 GMT 53.337845 -1.895063 4,350 318 280 -1472
2021-10-17 21:01:45 GMT 53.336716 -1.893364 4,375 318 280 -1600
2021-10-17 21:01:44 GMT 53.335831 -1.892003 4,400 318 280 -1664
2021-10-17 21:01:42 GMT 53.333908 -1.889021 4,475 318 281 -1728
2021-10-17 21:01:41 GMT 53.332989 -1.887629 4,500 318 281 -1728
2021-10-17 21:01:40 GMT 53.332169 -1.886431 4,525 318 281 -1728
2021-10-17 21:01:38 GMT 53.329826 -1.882782 4,600 318 283 -1728
2021-10-17 21:01:36 GMT 53.328827 -1.881252 4,600 318 283 -1664
2021-10-17 21:01:35 GMT 53.327957 -1.879918 4,650 318 283 -1664
2021-10-17 21:01:33 GMT 53.325775 -1.876643 4,700 318 283 -1664
2021-10-17 21:01:32 GMT 53.323914 -1.873815 4,750 318 283 -1600
2021-10-17 21:01:30 GMT 53.322922 -1.872227 4,800 318 283 -1536
2021-10-17 21:01:29 GMT 53.321091 -1.869481 4,825 318 284 -1408
2021-10-17 21:01:27 GMT 53.320221 -1.868147 4,875 318 284 -1344
2021-10-17 21:01:26 GMT 53.319214 -1.866656 4,900 318 285 -1344
2021-10-17 21:01:23 GMT 53.316422 -1.862340 4,950 318 285 -1152
2021-10-17 21:01:21 GMT 53.314415 -1.859274 5,025 318 286 -960
2021-10-17 21:01:19 GMT 53.312073 -1.855591 5,025 318 286 -960
2021-10-17 21:01:18 GMT 53.310974 -1.853943 5,050 318 286 -960
2021-10-17 21:01:17 GMT 53.309921 -1.852295 5,050 318 286 -960
2021-10-17 21:01:15 GMT 53.307999 -1.849313 5,100 318 286 -960
2021-10-17 21:01:14 GMT 53.306969 -1.847723 5,100 317 285 -1024
2021-10-17 21:01:12 GMT 53.305389 -1.845232 5,125 317 285 -960
2021-10-17 21:01:11 GMT 53.304428 -1.843741 5,150 317 285 -960
2021-10-17 21:01:10 GMT 53.303329 -1.842093 5,175 317 285 -960
2021-10-17 21:01:08 GMT 53.301819 -1.839661 5,200 317 285 -960
2021-10-17 21:01:06 GMT 53.299847 -1.836575 5,225 317 285 -1024
2021-10-17 21:01:04 GMT 53.297890 -1.833586 5,275 317 285 -1024
2021-10-17 21:01:03 GMT 53.296818 -1.831889 5,300 317 285 -1024
2021-10-17 21:01:02 GMT 53.294724 -1.828577 5,325 317 285 -1024
2021-10-17 21:01:00 GMT 53.294174 -1.827733 5,325 317 285 -1024
2021-10-17 21:00:58 GMT 53.291840 -1.824054 5,375 317 286 -1024
2021-10-17 21:00:57 GMT 53.290859 -1.822519 5,400 317 286 -1024
2021-10-17 21:00:56 GMT 53.289963 -1.821062 5,400 317 286 -1024
2021-10-17 21:00:54 GMT 53.288040 -1.818080 5,450 317 286 -1024
2021-10-17 21:00:53 GMT 53.287170 -1.816668 5,450 317 286 -1024
2021-10-17 21:00:52 GMT 53.286160 -1.815087 5,475 317 286 -1024
2021-10-17 21:00:51 GMT 53.284103 -1.811802 5,500 317 286 -1024
2021-10-17 21:00:49 GMT 53.283180 -1.810401 5,525 317 287 -1024
2021-10-17 21:00:48 GMT 53.281311 -1.807408 5,550 317 287 -960
2021-10-17 21:00:45 GMT 53.279408 -1.804424 5,575 317 287 -1024
2021-10-17 21:00:44 GMT 53.278477 -1.802889 5,600 317 287 -1024
2021-10-17 21:00:43 GMT 53.277466 -1.801287 5,625 317 287 -1024
2021-10-17 21:00:41 GMT 53.275497 -1.798226 5,650 317 289 -1024
2021-10-17 21:00:40 GMT 53.274475 -1.796669 5,675 317 289 -1024
2021-10-17 21:00:39 GMT 53.272522 -1.793518 5,725 317 290 -1088
2021-10-17 21:00:36 GMT 53.270645 -1.790536 5,750 317 290 -1088
2021-10-17 21:00:35 GMT 53.268723 -1.787476 5,775 317 291 -1088
2021-10-17 21:00:33 GMT 53.267853 -1.786063 5,800 317 292 -1088
2021-10-17 21:00:31 GMT 53.265816 -1.782855 5,825 317 292 -1024
2021-10-17 21:00:30 GMT 53.264923 -1.781433 5,850 317 292 -960
2021-10-17 21:00:29 GMT 53.263859 -1.779785 5,875 317 293 -960
2021-10-17 21:00:28 GMT 53.262978 -1.778331 5,875 317 294 -896
2021-10-17 21:00:26 GMT 53.260986 -1.775155 5,925 317 294 -768
2021-10-17 21:00:25 GMT 53.259949 -1.773484 5,925 317 294 -768
2021-10-17 21:00:24 GMT 53.258926 -1.771859 5,950 317 294 -640
2021-10-17 21:00:22 GMT 53.256912 -1.768720 5,950 317 297 -512
2021-10-17 21:00:21 GMT 53.255760 -1.766941 5,975 317 297 -448
2021-10-17 21:00:19 GMT 53.253937 -1.764012 5,975 317 298 -384
2021-10-17 21:00:17 GMT 53.251694 -1.760559 5,975 318 300 -384
2021-10-17 21:00:15 GMT 53.249863 -1.757734 6,000 318 301 -320
2021-10-17 21:00:14 GMT 53.248684 -1.755955 6,000 318 303 -256
2021-10-17 21:00:12 GMT 53.244354 -1.749573 6,025 319 307 -384
2021-10-17 21:00:10 GMT 53.244354 -1.749573 6,025 320 309 -384
2021-10-17 21:00:08 GMT 53.242306 -1.746584 6,025 320 313 -448
2021-10-17 21:00:07 GMT 53.241119 -1.744943 6,025 320 315 -448
2021-10-17 21:00:06 GMT 53.237869 -1.740391 6,050 321 318 -448
2021-10-17 21:00:04 GMT 53.237869 -1.740391 6,050 321 321 -512
2021-10-17 21:00:03 GMT 53.236675 -1.738748 6,075 321 323 -512
2021-10-17 21:00:01 GMT 53.234577 -1.735921 6,075 322 327 -576
2021-10-17 21:00:00 GMT 53.233368 -1.734386 6,100 322 329 -640
2021-10-17 20:59:58 GMT 53.230854 -1.731074 6,125 322 334 -832
2021-10-17 20:59:56 GMT 53.228294 -1.727681 6,150 322 337 -960
2021-10-17 20:59:55 GMT 53.227158 -1.726188 6,150 322 339 -1024
2021-10-17 20:59:54 GMT 53.224411 -1.722656 6,200 322 343 -1088
2021-10-17 20:59:52 GMT 53.223312 -1.721165 6,200 322 344 -1024
2021-10-17 20:59:51 GMT 53.222168 -1.719674 6,225 322 346 -1024
2021-10-17 20:59:50 GMT 53.219376 -1.716064 6,275 322 347 -960
2021-10-17 20:59:48 GMT 53.218052 -1.714352 6,275 322 349 -896
2021-10-17 20:59:47 GMT 53.216797 -1.712655 6,300 322 349 -896
2021-10-17 20:59:45 GMT 53.214203 -1.709237 6,325 322 350 -896
2021-10-17 20:59:44 GMT 53.211815 -1.706193 6,350 322 351 -896
2021-10-17 20:59:42 GMT 53.210560 -1.704496 6,375 322 351 -896
2021-10-17 20:59:41 GMT 53.209351 -1.702881 6,375 322 351 -896
2021-10-17 20:59:40 GMT 53.208138 -1.701346 6,400 323 352 -960
2021-10-17 20:59:39 GMT 53.206833 -1.699650 6,425 323 352 -960
2021-10-17 20:59:37 GMT 53.203995 -1.696014 6,450 322 354 -896
2021-10-17 20:59:36 GMT 53.202736 -1.694318 6,475 322 354 -896
2021-10-17 20:59:34 GMT 53.198872 -1.689229 6,500 322 354 -896
2021-10-17 20:59:32 GMT 53.197708 -1.687775 6,525 322 354 -896
2021-10-17 20:59:31 GMT 53.195244 -1.684543 6,550 322 354 -896
2021-10-17 20:59:29 GMT 53.194016 -1.682949 6,575 322 354 -896
2021-10-17 20:59:28 GMT 53.192680 -1.681151 6,600 322 355 -896
2021-10-17 20:59:27 GMT 53.190075 -1.677758 6,625 322 355 -896
2021-10-17 20:59:25 GMT 53.188538 -1.675738 6,625 322 355 -896
2021-10-17 20:59:24 GMT 53.187374 -1.674203 6,650 322 356 -896
2021-10-17 20:59:23 GMT 53.186069 -1.672588 6,675 322 356 -896
2021-10-17 20:59:21 GMT 53.183510 -1.669195 6,700 322 356 -960
2021-10-17 20:59:20 GMT 53.181183 -1.666125 6,725 322 356 -896
2021-10-17 20:59:17 GMT 53.178062 -1.662086 6,750 322 356 -896
2021-10-17 20:59:16 GMT 53.175457 -1.658693 6,775 322 356 -896
2021-10-17 20:59:14 GMT 53.174744 -1.657758 6,800 322 356 -896
2021-10-17 20:59:12 GMT 53.168152 -1.649126 6,875 322 356 -896
2021-10-17 20:59:09 GMT 53.166870 -1.647400 6,900 322 356 -960
2021-10-17 20:59:07 GMT 53.165451 -1.645517 6,900 322 356 -960
2021-10-17 20:59:06 GMT 53.164169 -1.643869 6,925 322 356 -960
2021-10-17 20:59:05 GMT 53.162842 -1.642142 6,950 322 356 -896
2021-10-17 20:59:03 GMT 53.160049 -1.638498 6,975 322 356 -896
2021-10-17 20:59:02 GMT 53.158653 -1.636640 7,000 322 356 -896
2021-10-17 20:59:01 GMT 53.156555 -1.633893 7,025 322 356 -896
2021-10-17 20:58:59 GMT 53.155197 -1.632176 7,025 322 356 -896
2021-10-17 20:58:58 GMT 53.153915 -1.630450 7,050 322 355 -896
2021-10-17 20:58:57 GMT 53.152042 -1.627996 7,075 322 355 -896
2021-10-17 20:58:56 GMT 53.149933 -1.625270 7,100 322 354 -832
2021-10-17 20:58:54 GMT 53.148514 -1.623387 7,100 322 354 -832
2021-10-17 20:58:52 GMT 53.145813 -1.619856 7,150 322 354 -1024
2021-10-17 20:58:51 GMT 53.144531 -1.618129 7,150 322 354 -1088
2021-10-17 20:58:50 GMT 53.140728 -1.613213 7,200 322 354 -1216
2021-10-17 20:58:48 GMT 53.140728 -1.613213 7,225 322 354 -1280
2021-10-17 20:58:47 GMT 53.138123 -1.609820 7,275 322 354 -1472
2021-10-17 20:58:45 GMT 53.136959 -1.608285 7,300 322 354 -1536
2021-10-17 20:58:44 GMT 53.134258 -1.604812 7,350 322 355 -1600
2021-10-17 20:58:41 GMT 53.131622 -1.601336 7,400 322 355 -1664
2021-10-17 20:58:39 GMT 53.129089 -1.598026 7,450 322 356 -1728
2021-10-17 20:58:38 GMT 53.127869 -1.596470 7,475 322 356 -1792
2021-10-17 20:58:36 GMT 53.125259 -1.593096 7,550 322 356 -1920
2021-10-17 20:58:35 GMT 53.123924 -1.591321 7,575 322 357 -1984
2021-10-17 20:58:34 GMT 53.122559 -1.589486 7,600 322 358 -2048
2021-10-17 20:58:32 GMT 53.119873 -1.585990 7,675 322 358 -2048
2021-10-17 20:58:31 GMT 53.118622 -1.584385 7,725 322 358 -2048
2021-10-17 20:58:29 GMT 53.116104 -1.581143 7,800 322 358 -2112
2021-10-17 20:58:28 GMT 53.114731 -1.579285 7,825 322 358 -2112
2021-10-17 20:58:26 GMT 53.112705 -1.576700 7,950 322 358 -2112
2021-10-17 20:58:23 GMT 53.108284 -1.570883 8,000 323 359 -2112
2021-10-17 20:58:20 GMT 53.104568 -1.566023 8,150 323 359 -2240
2021-10-17 20:58:17 GMT 53.097107 -1.556370 8,275 323 359 -2368
2021-10-17 20:58:14 GMT 53.097107 -1.556370 8,450 323 359 -2496
2021-10-17 20:58:11 GMT 53.093719 -1.551971 8,500 322 360 -2688
2021-10-17 20:58:08 GMT 53.085159 -1.540909 8,700 323 359 -3072
2021-10-17 20:58:05 GMT 53.085159 -1.540909 8,700 323 359 -3072
2021-10-17 20:58:03 GMT 53.082630 -1.537615 8,900 323 359 -3200
2021-10-17 20:58:00 GMT 53.078583 -1.532357 8,900 323 359 -3136
2021-10-17 20:57:58 GMT 53.075184 -1.527884 9,150 322 359 -3008
2021-10-17 20:57:55 GMT 53.071365 -1.522940 9,250 322 359 -2816
2021-10-17 20:57:52 GMT 53.068405 -1.519165 9,450 322 361 -2496
2021-10-17 20:57:50 GMT 53.062847 -1.511876 9,550 322 361 -2432
2021-10-17 20:57:48 GMT 53.062847 -1.511876 9,550 322 362 -2432
2021-10-17 20:57:47 GMT 53.061543 -1.510149 9,850 322 362 -2432
2021-10-17 20:57:45 GMT 53.058098 -1.505676 9,750 322 362 -2496
2021-10-17 20:57:42 GMT 53.051395 -1.496966 9,875 322 363 -2624
2021-10-17 20:57:39 GMT 53.051395 -1.496966 9,875 322 363 -2816
2021-10-17 20:57:36 GMT 53.046844 -1.491013 10,075 322 363 -2880
2021-10-17 20:57:35 GMT 53.044327 -1.487732 10,150 322 364 -2880
2021-10-17 20:57:33 GMT 53.042923 -1.485901 10,200 322 364 -2880
2021-10-17 20:57:31 GMT 53.040409 -1.482683 10,300 322 364 -2944
2021-10-17 20:57:30 GMT 53.039017 -1.480865 10,350 322 364 -2944
2021-10-17 20:57:28 GMT 53.036133 -1.477051 10,450 322 364 -3008
2021-10-17 20:57:27 GMT 53.034870 -1.475464 10,500 322 364 -3008
2021-10-17 20:57:26 GMT 53.033520 -1.473737 10,550 322 364 -3008
2021-10-17 20:57:24 GMT 53.030960 -1.470337 10,650 322 364 -3008
2021-10-17 20:57:23 GMT 53.029770 -1.468811 10,700 322 364 -3008
2021-10-17 20:57:21 GMT 53.026489 -1.464556 10,825 323 365 -3008
2021-10-17 20:57:18 GMT 53.023186 -1.460240 10,950 322 366 -2880
2021-10-17 20:57:15 GMT 53.020252 -1.456473 11,200 322 366 -2880
2021-10-17 20:57:13 GMT 53.016388 -1.451451 11,200 322 368 -2880
2021-10-17 20:57:11 GMT 53.013885 -1.448212 11,275 322 368 -2880
2021-10-17 20:57:09 GMT 53.011368 -1.444931 11,375 323 369 -2944
2021-10-17 20:57:07 GMT 53.005966 -1.437988 11,575 323 370 -3008
2021-10-17 20:57:05 GMT 53.005966 -1.437988 11,575 323 370 -2944
2021-10-17 20:57:02 GMT 53.001938 -1.432724 11,850 323 374 -3008
2021-10-17 20:56:59 GMT 52.996948 -1.426239 11,975 323 374 -3008
2021-10-17 20:56:56 GMT 52.993378 -1.421661 12,125 323 374 -3008
2021-10-17 20:56:53 GMT 52.988968 -1.415981 12,300 323 374 -3264
2021-10-17 20:56:50 GMT 52.986191 -1.412354 12,300 322 374 -3392
2021-10-17 20:56:48 GMT 52.982033 -1.406956 12,475 323 375 -3328
2021-10-17 20:56:47 GMT 52.979095 -1.403198 12,575 323 375 -3328
2021-10-17 20:56:45 GMT 52.979095 -1.403198 12,575 322 376 -3200
2021-10-17 20:56:43 GMT 52.976212 -1.399460 12,700 322 376 -3136
2021-10-17 20:56:42 GMT 52.974838 -1.397705 12,750 323 376 -3072
2021-10-17 20:56:41 GMT 52.970814 -1.392439 12,900 322 377 -2944
2021-10-17 20:56:39 GMT 52.970814 -1.392439 12,900 322 378 -2816
2021-10-17 20:56:37 GMT 52.967510 -1.388123 13,000 322 378 -2688
2021-10-17 20:56:35 GMT 52.964539 -1.384277 13,125 322 378 -2688
2021-10-17 20:56:33 GMT 52.962387 -1.381531 13,175 322 379 -2752
2021-10-17 20:56:31 GMT 52.959782 -1.378156 13,250 322 379 -2752
2021-10-17 20:56:28 GMT 52.952892 -1.369132 13,450 322 381 -2624
2021-10-17 20:56:26 GMT 52.952892 -1.369132 13,475 322 381 -2624
2021-10-17 20:56:25 GMT 52.951401 -1.367264 13,525 322 381 -2624
2021-10-17 20:56:24 GMT 52.947281 -1.361923 13,650 323 381 -2624
2021-10-17 20:56:22 GMT 52.947281 -1.361923 13,650 323 381 -2624
2021-10-17 20:56:19 GMT 52.943161 -1.356576 13,800 323 381 -2624
2021-10-17 20:56:18 GMT 52.941628 -1.354614 13,825 322 383 -2560
2021-10-17 20:56:16 GMT 52.939114 -1.351397 13,950 322 383 -2560
2021-10-17 20:56:15 GMT 52.935562 -1.346741 14,000 322 383 -2624
2021-10-17 20:56:12 GMT 52.932220 -1.342392 14,125 323 384 -2752
2021-10-17 20:56:10 GMT 52.930801 -1.340637 14,175 323 384 -2816
2021-10-17 20:56:09 GMT 52.929337 -1.338684 14,275 322 384 -2880
2021-10-17 20:56:07 GMT 52.926403 -1.334917 14,325 322 384 -2944
2021-10-17 20:56:06 GMT 52.924942 -1.333008 14,450 322 384 -2944
2021-10-17 20:56:04 GMT 52.922012 -1.329269 14,475 322 384 -2944
2021-10-17 20:56:02 GMT 52.916348 -1.321891 14,700 322 384 -3008
2021-10-17 20:56:00 GMT 52.916348 -1.321891 14,700 322 384 -3008
2021-10-17 20:55:58 GMT 52.911484 -1.315689 14,850 322 384 -3008
2021-10-17 20:55:56 GMT 52.910156 -1.313965 14,900 322 384 -3008
2021-10-17 20:55:55 GMT 52.908760 -1.312160 14,950 322 384 -3008
2021-10-17 20:55:53 GMT 52.905899 -1.308441 15,050 322 384 -3008
2021-10-17 20:55:51 GMT 52.902237 -1.303711 15,250 322 384 -3008
2021-10-17 20:55:48 GMT 52.897541 -1.297642 15,350 322 386 -2496
2021-10-17 20:55:47 GMT 52.896145 -1.295837 15,400 322 386 -2496
2021-10-17 20:55:45 GMT 52.894886 -1.294189 15,425 322 386 -2496
2021-10-17 20:55:44 GMT 52.893539 -1.292496 15,475 322 387 -2240
2021-10-17 20:55:42 GMT 52.890472 -1.288452 15,575 323 388 -1920
2021-10-17 20:55:40 GMT 52.888321 -1.285706 15,575 323 388 -1920
2021-10-17 20:55:37 GMT 52.884109 -1.280212 15,675 323 390 -1600
2021-10-17 20:55:35 GMT 52.880596 -1.275748 15,750 323 393 -1536
2021-10-17 20:55:34 GMT 52.879013 -1.273629 15,775 323 393 -1536
2021-10-17 20:55:32 GMT 52.876732 -1.270726 15,825 323 395 -1600
2021-10-17 20:55:30 GMT 52.873707 -1.266802 15,875 323 396 -1664
2021-10-17 20:55:29 GMT 52.872265 -1.264919 15,900 323 397 -1664
2021-10-17 20:55:27 GMT 52.869514 -1.261387 15,975 323 399 -1920
2021-10-17 20:55:25 GMT 52.866585 -1.257699 16,025 322 401 -2496
2021-10-17 20:55:22 GMT 52.863091 -1.253148 16,125 322 401 -2496
2021-10-17 20:55:21 GMT 52.859207 -1.248169 16,325 323 401 -2880
2021-10-17 20:55:18 GMT 52.856140 -1.244202 16,400 323 401 -2880
2021-10-17 20:55:15 GMT 52.852615 -1.239700 16,425 323 403 -2880
2021-10-17 20:55:14 GMT 52.851360 -1.238081 16,500 323 403 -2880
2021-10-17 20:55:13 GMT 52.849960 -1.236267 16,600 323 403 -2880
2021-10-17 20:55:12 GMT 52.848358 -1.234207 16,600 323 403 -2880
2021-10-17 20:55:09 GMT 52.844006 -1.228585 16,800 323 404 -2880
2021-10-17 20:55:07 GMT 52.840851 -1.224518 16,850 323 404 -2880
2021-10-17 20:55:06 GMT 52.837254 -1.219953 16,975 323 404 -2880
2021-10-17 20:55:03 GMT 52.834415 -1.216343 17,125 323 404 -2944
2021-10-17 20:55:01 GMT 52.831017 -1.211949 17,200 323 405 -2880
2021-10-17 20:55:00 GMT 52.829529 -1.210066 17,225 323 406 -2880
2021-10-17 20:54:58 GMT 52.826660 -1.206360 17,250 323 406 -2880
2021-10-17 20:54:57 GMT 52.823616 -1.202454 17,400 323 406 -2880
2021-10-17 20:54:55 GMT 52.822220 -1.200714 17,450 323 406 -2880
2021-10-17 20:54:54 GMT 52.817459 -1.194611 17,600 323 406 -2880
2021-10-17 20:54:52 GMT 52.817459 -1.194611 17,600 323 406 -2880
2021-10-17 20:54:51 GMT 52.815994 -1.192703 17,650 323 406 -2880
2021-10-17 20:54:48 GMT 52.812103 -1.187744 17,800 323 407 -2944
2021-10-17 20:54:45 GMT 52.807278 -1.181580 17,950 323 407 -2944
2021-10-17 20:54:44 GMT 52.804230 -1.177673 18,075 323 407 -2944
2021-10-17 20:54:41 GMT 52.801254 -1.173859 18,125 323 407 -2944
2021-10-17 20:54:40 GMT 52.799686 -1.171849 18,225 323 407 -2944
2021-10-17 20:54:39 GMT 52.798058 -1.169730 18,250 323 408 -2944
2021-10-17 20:54:37 GMT 52.795685 -1.166748 18,325 323 408 -2944
2021-10-17 20:54:36 GMT 52.793976 -1.164551 18,375 323 409 -2944
2021-10-17 20:54:34 GMT 52.791000 -1.160736 18,475 323 409 -2944
2021-10-17 20:54:33 GMT 52.789490 -1.158829 18,525 323 409 -2944
2021-10-17 20:54:31 GMT 52.785141 -1.153259 18,675 323 409 -2944
2021-10-17 20:54:28 GMT 52.782974 -1.150504 18,725 323 409 -2944
2021-10-17 20:54:26 GMT 52.780655 -1.147537 18,825 323 410 -2944
2021-10-17 20:54:24 GMT 52.776833 -1.142578 18,950 323 411 -2944
2021-10-17 20:54:22 GMT 52.773788 -1.138687 19,050 323 411 -3008
2021-10-17 20:54:19 GMT 52.769440 -1.133118 19,175 323 411 -3008
2021-10-17 20:54:18 GMT 52.765614 -1.128217 19,300 323 412 -3008
2021-10-17 20:54:15 GMT 52.761841 -1.123431 19,525 323 412 -3008
2021-10-17 20:54:12 GMT 52.758072 -1.118644 19,550 323 413 -3008
2021-10-17 20:54:11 GMT 52.756535 -1.116682 19,600 323 413 -2944
2021-10-17 20:54:09 GMT 52.753555 -1.112837 19,750 323 414 -2944
2021-10-17 20:54:08 GMT 52.752159 -1.111110 19,750 323 414 -2944
2021-10-17 20:54:07 GMT 52.750580 -1.109085 19,800 323 414 -2944
2021-10-17 20:54:05 GMT 52.747643 -1.105303 19,850 323 414 -2944
2021-10-17 20:54:04 GMT 52.746048 -1.103287 19,950 323 415 -2944
2021-10-17 20:54:03 GMT 52.744675 -1.101532 20,000 323 416 -2944
2021-10-17 20:54:00 GMT 52.739960 -1.095505 20,150 323 416 -2944
2021-10-17 20:53:59 GMT 52.736755 -1.091461 20,250 323 417 -2944
2021-10-17 20:53:57 GMT 52.735306 -1.089608 20,300 323 417 -2944
2021-10-17 20:53:56 GMT 52.733551 -1.087341 20,350 323 417 -2944
2021-10-17 20:53:54 GMT 52.730743 -1.083801 20,450 323 418 -2944
2021-10-17 20:53:52 GMT 52.728104 -1.080399 20,500 323 418 -2944
2021-10-17 20:53:51 GMT 52.726788 -1.078700 20,625 323 418 -2944
2021-10-17 20:53:50 GMT 52.723801 -1.074905 20,650 323 418 -3008
2021-10-17 20:53:48 GMT 52.720688 -1.070932 20,825 323 418 -3008
2021-10-17 20:53:46 GMT 52.719151 -1.068970 20,850 323 418 -3008
2021-10-17 20:53:45 GMT 52.717476 -1.066851 21,000 323 418 -3008
2021-10-17 20:53:43 GMT 52.713657 -1.061986 21,000 323 418 -3072
2021-10-17 20:53:42 GMT 52.712036 -1.059952 21,075 323 417 -3072
2021-10-17 20:53:40 GMT 52.709049 -1.056100 21,175 323 417 -3072
2021-10-17 20:53:38 GMT 52.706085 -1.052322 21,275 323 417 -3072
2021-10-17 20:53:37 GMT 52.704712 -1.050568 21,325 323 416 -3072
2021-10-17 20:53:34 GMT 52.700996 -1.045820 21,450 323 416 -3072
2021-10-17 20:53:33 GMT 52.696243 -1.039734 21,575 323 415 -3072
2021-10-17 20:53:31 GMT 52.696243 -1.039734 21,625 323 415 -3072
2021-10-17 20:53:29 GMT 52.692524 -1.034991 21,675 323 414 -3072
2021-10-17 20:53:28 GMT 52.691639 -1.033813 21,750 323 414 -3072
2021-10-17 20:53:27 GMT 52.687912 -1.029053 21,875 323 414 -3072
2021-10-17 20:53:24 GMT 52.683910 -1.024004 22,025 323 413 -3008
2021-10-17 20:53:21 GMT 52.680748 -1.019924 22,125 323 413 -3008
2021-10-17 20:53:19 GMT 52.677795 -1.016159 22,225 323 413 -3008
2021-10-17 20:53:18 GMT 52.675690 -1.013489 22,325 323 413 -3008
2021-10-17 20:53:16 GMT 52.672668 -1.009674 22,350 323 412 -3008
2021-10-17 20:53:15 GMT 52.671249 -1.007839 22,450 323 412 -3008
2021-10-17 20:53:13 GMT 52.668915 -1.004868 22,525 323 412 -3008
2021-10-17 20:53:12 GMT 52.667294 -1.002816 22,575 323 412 -3008
2021-10-17 20:53:11 GMT 52.665573 -1.000595 22,625 323 412 -3008
2021-10-17 20:53:09 GMT 52.662735 -0.997009 22,725 323 412 -3008
2021-10-17 20:53:08 GMT 52.657608 -0.990448 22,850 323 413 -3200
2021-10-17 20:53:06 GMT 52.657608 -0.990448 22,950 323 413 -3200
2021-10-17 20:53:03 GMT 52.653885 -0.985709 23,075 323 413 -3136
2021-10-17 20:53:00 GMT 52.648407 -0.978699 23,200 323 413 -3200
2021-10-17 20:52:57 GMT 52.644714 -0.974016 23,325 323 413 -3328
2021-10-17 20:52:55 GMT 52.636990 -0.964286 23,875 323 413 -3584
2021-10-17 20:52:52 GMT 52.633118 -0.959320 23,925 323 412 -3456
2021-10-17 20:52:49 GMT 52.633118 -0.959320 23,775 323 413 -3520
2021-10-17 20:52:47 GMT 52.627026 -0.951573 24,000 323 413 -3456
2021-10-17 20:52:45 GMT 52.627026 -0.951573 24,100 323 413 -3520
2021-10-17 20:52:43 GMT 52.623779 -0.947495 24,225 323 413 -3648
2021-10-17 20:52:40 GMT 52.617531 -0.939488 24,575 323 413 -3776
2021-10-17 20:52:37 GMT 52.615108 -0.936428 24,500 323 412 -3776
2021-10-17 20:52:35 GMT 52.611801 -0.932268 24,675 323 412 -3776
2021-10-17 20:52:33 GMT 52.604076 -0.922459 24,875 323 412 -3648
2021-10-17 20:52:30 GMT 52.604076 -0.922459 24,975 323 412 -3584
2021-10-17 20:52:28 GMT 52.599140 -0.916181 25,250 323 412 -3520
2021-10-17 20:52:25 GMT 52.591049 -0.905991 25,700 323 413 -3072
2021-10-17 20:52:22 GMT 52.591049 -0.905991 25,550 323 412 -3392
2021-10-17 20:52:19 GMT 52.588108 -0.902213 25,550 323 412 -3264
2021-10-17 20:52:17 GMT 52.584198 -0.897269 25,725 323 414 -2944
2021-10-17 20:52:14 GMT 52.578892 -0.890520 25,975 323 415 -2560
2021-10-17 20:52:11 GMT 52.575165 -0.885849 26,000 323 416 -2752
2021-10-17 20:52:09 GMT 52.572792 -0.882830 26,125 323 416 -3264
2021-10-17 20:52:07 GMT 52.568974 -0.878043 26,175 323 416 -3392
2021-10-17 20:52:05 GMT 52.566692 -0.875140 26,325 323 415 -3712
2021-10-17 20:52:03 GMT 52.563721 -0.871429 26,850 323 414 -4416
2021-10-17 20:52:01 GMT 52.559105 -0.865566 27,025 323 413 -4800
2021-10-17 20:51:58 GMT 52.556168 -0.861816 26,850 323 412 -4736
2021-10-17 20:51:56 GMT 52.551704 -0.856149 27,025 323 413 -4800
2021-10-17 20:51:53 GMT 52.545639 -0.848389 27,475 323 409 -4160
2021-10-17 20:51:49 GMT 52.541107 -0.842667 27,525 323 409 -4224
2021-10-17 20:51:47 GMT 52.537926 -0.838649 27,700 323 409 -4096
2021-10-17 20:51:44 GMT 52.532665 -0.831979 27,925 323 408 -3776
2021-10-17 20:51:41 GMT 52.529755 -0.828323 28,150 323 408 -3712
2021-10-17 20:51:38 GMT 52.522156 -0.818634 28,325 323 408 -3520
2021-10-17 20:51:34 GMT 52.519070 -0.814793 28,375 323 409 -3392
2021-10-17 20:51:32 GMT 52.516090 -0.810948 28,775 323 409 -3008
2021-10-17 20:51:29 GMT 52.511078 -0.804596 28,775 323 409 -3008
2021-10-17 20:51:26 GMT 52.504349 -0.796127 28,900 323 410 -2752
2021-10-17 20:51:24 GMT 52.500496 -0.791330 29,075 323 410 -2624
2021-10-17 20:51:21 GMT 52.500496 -0.791330 29,075 323 410 -2624
2021-10-17 20:51:19 GMT 52.498169 -0.788422 29,100 323 410 -2624
2021-10-17 20:51:17 GMT 52.493637 -0.782700 29,325 323 411 -2432
2021-10-17 20:51:15 GMT 52.490395 -0.778617 29,350 323 412 -2304
2021-10-17 20:51:12 GMT 52.485741 -0.772731 29,450 323 412 -2112
2021-10-17 20:51:09 GMT 52.481503 -0.767473 29,550 323 412 -1920
2021-10-17 20:51:07 GMT 52.475452 -0.759862 29,675 323 414 -1536
2021-10-17 20:51:05 GMT 52.475452 -0.759862 29,675 323 413 -1728
2021-10-17 20:51:03 GMT 52.473862 -0.757828 29,725 323 414 -1600
2021-10-17 20:51:01 GMT 52.469261 -0.752014 29,800 323 414 -1472
2021-10-17 20:50:58 GMT 52.464935 -0.746613 29,850 323 413 -1344
2021-10-17 20:50:56 GMT 52.462646 -0.743790 29,900 323 413 -1152
2021-10-17 20:50:54 GMT 52.458252 -0.738220 30,000 323 414 -1024
2021-10-17 20:50:51 GMT 52.451065 -0.729370 30,000 323 414 -1024
2021-10-17 20:50:49 GMT 52.451065 -0.729370 30,000 323 415 -1024
2021-10-17 20:50:47 GMT 52.448872 -0.726589 30,050 323 415 -1024
2021-10-17 20:50:45 GMT 52.445297 -0.722122 30,100 323 416 -1024
2021-10-17 20:50:43 GMT 52.443283 -0.719681 30,125 323 416 -1024
2021-10-17 20:50:41 GMT 52.440166 -0.715759 30,150 323 416 -1024
2021-10-17 20:50:39 GMT 52.436954 -0.711757 30,175 323 416 -1024
2021-10-17 20:50:37 GMT 52.433212 -0.707092 30,200 323 416 -1024
2021-10-17 20:50:35 GMT 52.429924 -0.703047 30,275 323 416 -1024
2021-10-17 20:50:33 GMT 52.426804 -0.699158 30,275 323 416 -1024
2021-10-17 20:50:31 GMT 52.424515 -0.696259 30,400 323 416 -1024
2021-10-17 20:50:29 GMT 52.420212 -0.690918 30,350 323 416 -1024
2021-10-17 20:50:26 GMT 52.416328 -0.686096 30,400 323 415 -1024
2021-10-17 20:50:24 GMT 52.413303 -0.682329 30,425 323 415 -1024
2021-10-17 20:50:21 GMT 52.408417 -0.676208 30,500 323 413 -1024
2021-10-17 20:50:19 GMT 52.402782 -0.669224 30,550 323 413 -1024
2021-10-17 20:50:17 GMT 52.402782 -0.669224 30,550 323 413 -1024
2021-10-17 20:50:15 GMT 52.399757 -0.665458 30,575 323 413 -1024
2021-10-17 20:50:13 GMT 52.396080 -0.660906 30,625 323 412 -1024
2021-10-17 20:50:10 GMT 52.391464 -0.655136 30,700 323 411 -1024
2021-10-17 20:50:07 GMT 52.387711 -0.650406 30,750 323 411 -1024
2021-10-17 20:50:05 GMT 52.384094 -0.645905 30,775 323 410 -1024
2021-10-17 20:50:02 GMT 52.380997 -0.642072 30,800 323 410 -1024
2021-10-17 20:50:00 GMT 52.376404 -0.636368 30,875 323 408 -1024
2021-10-17 20:49:57 GMT 52.372696 -0.631638 30,900 323 407 -1024
2021-10-17 20:49:55 GMT 52.369778 -0.628026 30,950 323 406 -960
2021-10-17 20:49:53 GMT 52.365234 -0.622330 30,975 323 406 -960
2021-10-17 20:49:50 GMT 52.358746 -0.614293 31,025 323 403 -960
2021-10-17 20:49:48 GMT 52.358746 -0.614293 31,050 323 403 -960
2021-10-17 20:49:46 GMT 52.353516 -0.607681 31,100 323 402 -960
2021-10-17 20:49:44 GMT 52.353516 -0.607681 31,125 323 402 -960
2021-10-17 20:49:42 GMT 52.351204 -0.604876 31,150 323 401 -960
2021-10-17 20:49:40 GMT 52.342438 -0.593948 31,200 323 400 -1024
2021-10-17 20:49:37 GMT 52.339233 -0.589905 31,275 323 400 -960
2021-10-17 20:49:35 GMT 52.339233 -0.589905 31,275 323 400 -960
2021-10-17 20:49:33 GMT 52.336353 -0.586356 31,300 323 400 -960
2021-10-17 20:49:30 GMT 52.332642 -0.581665 31,325 323 399 -960
2021-10-17 20:49:28 GMT 52.328903 -0.577018 31,400 323 399 -960
2021-10-17 20:49:25 GMT 52.325912 -0.573273 31,450 323 398 -960
2021-10-17 20:49:23 GMT 52.321594 -0.567915 31,450 323 398 -960
2021-10-17 20:49:20 GMT 52.317501 -0.562814 31,475 323 398 -960
2021-10-17 20:49:18 GMT 52.314514 -0.559082 31,550 323 398 -960
2021-10-17 20:49:14 GMT 52.309914 -0.553319 31,600 323 397 -960
2021-10-17 20:49:12 GMT 52.307053 -0.549774 31,625 323 396 -960
2021-10-17 20:49:10 GMT 52.303253 -0.545120 31,650 323 396 -960
2021-10-17 20:49:08 GMT 52.300274 -0.541391 31,700 323 396 -960
2021-10-17 20:49:06 GMT 52.298035 -0.538635 31,775 323 396 -960
2021-10-17 20:49:04 GMT 52.295063 -0.534877 31,750 323 396 -960
2021-10-17 20:49:02 GMT 52.290161 -0.528870 31,900 323 394 -960
2021-10-17 20:48:59 GMT 52.287891 -0.526088 31,825 323 394 -960
2021-10-17 20:48:57 GMT 52.284401 -0.521851 31,875 323 394 -960
2021-10-17 20:48:55 GMT 52.281235 -0.517848 31,900 323 394 -960
2021-10-17 20:48:52 GMT 52.276115 -0.511571 31,975 323 394 -960
2021-10-17 20:48:49 GMT 52.271320 -0.505685 32,025 323 394 -960
2021-10-17 20:48:46 GMT 52.269176 -0.503017 32,025 323 394 -960
2021-10-17 20:48:44 GMT 52.261776 -0.493914 32,100 323 394 -1024
2021-10-17 20:48:42 GMT 52.261776 -0.493914 32,100 323 394 -1024
2021-10-17 20:48:39 GMT 52.257542 -0.488735 32,175 323 394 -1024
2021-10-17 20:48:36 GMT 52.254097 -0.484419 32,200 323 394 -1024
2021-10-17 20:48:34 GMT 52.251389 -0.481110 32,250 323 394 -1024
2021-10-17 20:48:32 GMT 52.248367 -0.477371 32,250 323 394 -1024
2021-10-17 20:48:30 GMT 52.244831 -0.472961 32,325 323 393 -1024
2021-10-17 20:48:28 GMT 52.241760 -0.469195 32,375 323 393 -1088
2021-10-17 20:48:25 GMT 52.234264 -0.459856 32,450 323 393 -1088
2021-10-17 20:48:23 GMT 52.234264 -0.459856 32,450 323 392 -1088
2021-10-17 20:48:20 GMT 52.230354 -0.455069 32,500 323 392 -1088
2021-10-17 20:48:17 GMT 52.225845 -0.449448 32,550 323 391 -1088
2021-10-17 20:48:14 GMT 52.222229 -0.445023 32,600 323 391 -1088
2021-10-17 20:48:12 GMT 52.219135 -0.441180 32,625 323 391 -1024
2021-10-17 20:48:10 GMT 52.216713 -0.438119 32,650 323 390 -1024
2021-10-17 20:48:08 GMT 52.213829 -0.434588 32,700 323 389 -1024
2021-10-17 20:48:06 GMT 52.208286 -0.427682 32,750 323 388 -1024
2021-10-17 20:48:04 GMT 52.208286 -0.427682 32,750 323 388 -1024
2021-10-17 20:48:02 GMT 52.204788 -0.423355 32,850 323 388 -1024
2021-10-17 20:47:59 GMT 52.200420 -0.417951 32,875 323 387 -1024
2021-10-17 20:47:56 GMT 52.193439 -0.409319 32,950 323 386 -960
2021-10-17 20:47:54 GMT 52.193439 -0.409319 32,950 323 387 -960
2021-10-17 20:47:52 GMT 52.191204 -0.406494 32,975 323 386 -960
2021-10-17 20:47:50 GMT 52.187576 -0.401993 33,000 323 386 -960
2021-10-17 20:47:48 GMT 52.185524 -0.399432 33,125 323 384 -960
2021-10-17 20:47:46 GMT 52.181988 -0.395037 33,075 323 384 -960
2021-10-17 20:47:43 GMT 52.177052 -0.388916 33,150 323 383 -960
2021-10-17 20:47:40 GMT 52.173065 -0.383987 33,200 323 382 -960
2021-10-17 20:47:37 GMT 52.169540 -0.379639 33,250 323 381 -960
2021-10-17 20:47:34 GMT 52.164436 -0.373300 33,325 323 380 -960
2021-10-17 20:47:31 GMT 52.160706 -0.368652 33,325 323 380 -960
2021-10-17 20:47:28 GMT 52.156265 -0.363159 33,375 323 378 -960
2021-10-17 20:47:25 GMT 52.150955 -0.356598 33,525 323 378 -960
2021-10-17 20:47:23 GMT 52.150955 -0.356598 33,450 323 378 -960
2021-10-17 20:47:21 GMT 52.146103 -0.350494 33,550 323 378 -960
2021-10-17 20:47:18 GMT 52.143311 -0.347061 33,500 323 378 -960
2021-10-17 20:47:16 GMT 52.140427 -0.343475 33,550 323 377 -960
2021-10-17 20:47:14 GMT 52.137222 -0.339508 33,575 323 377 -960
2021-10-17 20:47:11 GMT 52.131821 -0.332794 33,650 323 378 -1024
2021-10-17 20:47:08 GMT 52.128963 -0.329276 33,675 323 378 -1024
2021-10-17 20:47:06 GMT 52.126694 -0.326462 33,700 323 378 -1024
2021-10-17 20:47:04 GMT 52.122444 -0.321272 33,775 323 378 -1024
2021-10-17 20:47:01 GMT 52.120350 -0.318682 33,775 323 378 -1024
2021-10-17 20:46:59 GMT 52.116070 -0.313346 33,925 323 378 -960
2021-10-17 20:46:57 GMT 52.109783 -0.305655 33,875 324 379 -896
2021-10-17 20:46:54 GMT 52.109783 -0.305655 33,875 324 379 -832
2021-10-17 20:46:52 GMT 52.107128 -0.302438 34,000 324 379 0
2021-10-17 20:46:50 GMT 52.105034 -0.299848 33,925 324 379 -704
2021-10-17 20:46:48 GMT 52.100876 -0.294800 33,975 324 380 -576
2021-10-17 20:46:46 GMT 52.098427 -0.291844 33,975 324 380 -384
2021-10-17 20:46:44 GMT 52.095703 -0.288467 34,000 324 379 -192
2021-10-17 20:46:42 GMT 52.092419 -0.284467 34,000 324 379 0
2021-10-17 20:46:39 GMT 52.088322 -0.279602 34,000 324 378 0
2021-10-17 20:46:36 GMT 52.083206 -0.273361 34,000 324 379 0
2021-10-17 20:46:33 GMT 52.080414 -0.270004 34,000 324 379 0
2021-10-17 20:46:31 GMT 52.077576 -0.266647 34,000 324 379 0
2021-10-17 20:46:29 GMT 52.072906 -0.261078 34,000 324 379 0
2021-10-17 20:46:25 GMT 52.068832 -0.256195 34,000 324 379 0
2021-10-17 20:46:23 GMT 52.065929 -0.252764 34,000 324 378 0
2021-10-17 20:46:20 GMT 52.062469 -0.248642 34,000 324 378 0
2021-10-17 20:46:18 GMT 52.059357 -0.244980 34,000 325 378 0
2021-10-17 20:46:16 GMT 52.055832 -0.240860 34,000 325 378 0
2021-10-17 20:46:13 GMT 52.052719 -0.237122 34,000 325 378 0
2021-10-17 20:46:11 GMT 52.049744 -0.233688 34,000 325 378 0
2021-10-17 20:46:09 GMT 52.045959 -0.229300 34,000 325 378 0
2021-10-17 20:46:07 GMT 52.044006 -0.226946 34,000 325 378 0
2021-10-17 20:46:05 GMT 52.041641 -0.224228 34,000 325 378 0
2021-10-17 20:46:03 GMT 52.037861 -0.219884 34,000 325 378 0
2021-10-17 20:46:01 GMT 52.034958 -0.216446 34,000 325 378 0
2021-10-17 20:45:59 GMT 52.032120 -0.213165 34,000 325 378 0
2021-10-17 20:45:57 GMT 52.030014 -0.210648 34,000 325 378 0
2021-10-17 20:45:55 GMT 52.022919 -0.202408 34,000 325 378 0
2021-10-17 20:45:53 GMT 52.022919 -0.202408 34,000 325 378 0
2021-10-17 20:45:50 GMT 52.018707 -0.197372 34,000 324 377 0
2021-10-17 20:45:47 GMT 52.015377 -0.193438 34,000 324 377 0
2021-10-17 20:45:45 GMT 52.013142 -0.190770 34,000 324 378 0
2021-10-17 20:45:43 GMT 52.008865 -0.185699 34,000 324 377 0
2021-10-17 20:45:40 GMT 52.005322 -0.181353 34,000 323 376 0
2021-10-17 20:45:38 GMT 51.999161 -0.173798 34,000 323 376 0
2021-10-17 20:45:36 GMT 51.999161 -0.173798 34,000 323 375 0
2021-10-17 20:45:33 GMT 51.995125 -0.168640 34,000 322 375 64
2021-10-17 20:45:30 GMT 51.991913 -0.164481 34,000 322 374 128
2021-10-17 20:45:28 GMT 51.989864 -0.161813 34,000 321 373 64
2021-10-17 20:45:26 GMT 51.986420 -0.157261 34,000 321 374 0
2021-10-17 20:45:23 GMT 51.981533 -0.150591 33,975 320 373 0
2021-10-17 20:45:20 GMT 51.976875 -0.143999 34,000 319 374 0
2021-10-17 20:45:17 GMT 51.974625 -0.140686 33,975 319 373 0
2021-10-17 20:45:15 GMT 51.971802 -0.136780 33,975 319 374 0
2021-10-17 20:45:12 GMT 51.968590 -0.132150 33,975 319 374 0
2021-10-17 20:45:10 GMT 51.965286 -0.127411 34,000 319 374 0
2021-10-17 20:45:08 GMT 51.963364 -0.124664 34,000 319 374 0
2021-10-17 20:45:06 GMT 51.960213 -0.120065 34,000 319 374 0
2021-10-17 20:45:04 GMT 51.957687 -0.116501 34,000 319 374 0
2021-10-17 20:45:02 GMT 51.951923 -0.108215 34,000 319 374 0
2021-10-17 20:45:00 GMT 51.951923 -0.108215 33,975 319 374 0
2021-10-17 20:44:57 GMT 51.948532 -0.103378 34,000 319 373 0
2021-10-17 20:44:54 GMT 51.945145 -0.098572 33,975 319 374 0
2021-10-17 20:44:52 GMT 51.940659 -0.092087 34,000 319 374 0
2021-10-17 20:44:48 GMT 51.933632 -0.082005 34,000 319 373 0
2021-10-17 20:44:45 GMT 51.933632 -0.082005 34,000 319 373 0
2021-10-17 20:44:43 GMT 51.930370 -0.077375 34,000 319 373 0
2021-10-17 20:44:41 GMT 51.927254 -0.072981 34,000 319 373 0
2021-10-17 20:44:38 GMT 51.920547 -0.063328 34,000 319 373 0
2021-10-17 20:44:35 GMT 51.920547 -0.063328 34,000 319 373 0
2021-10-17 20:44:33 GMT 51.918686 -0.060730 34,000 319 373 0
2021-10-17 20:44:31 GMT 51.914932 -0.055389 34,000 319 373 0
2021-10-17 20:44:29 GMT 51.913055 -0.052656 34,000 319 373 0
2021-10-17 20:44:27 GMT 51.909657 -0.047869 34,000 319 373 0
2021-10-17 20:44:24 GMT 51.903324 -0.038845 34,000 319 373 0
2021-10-17 20:44:22 GMT 51.903324 -0.038845 34,000 319 373 0
2021-10-17 20:44:20 GMT 51.899693 -0.033665 34,000 319 373 0
2021-10-17 20:44:17 GMT 51.897858 -0.031052 34,000 319 374 -64
2021-10-17 20:44:15 GMT 51.894470 -0.026245 34,000 319 374 -64
2021-10-17 20:44:13 GMT 51.891315 -0.021744 34,000 319 374 -64
2021-10-17 20:44:10 GMT 51.888519 -0.017741 34,000 319 374 -64
2021-10-17 20:44:08 GMT 51.885818 -0.013881 34,000 319 374 -64
2021-10-17 20:44:06 GMT 51.883850 -0.011135 34,025 319 374 -64
2021-10-17 20:44:04 GMT 51.880421 -0.006256 34,025 319 373 0
2021-10-17 20:44:02 GMT 51.877583 -0.002213 34,025 319 373 0
2021-10-17 20:43:59 GMT 51.873093 0.004157 34,025 319 374 0
2021-10-17 20:43:56 GMT 51.869614 0.009131 34,025 319 374 0
2021-10-17 20:43:53 GMT 51.863525 0.017816 34,025 319 374 0
2021-10-17 20:43:50 GMT 51.861008 0.021439 34,025 319 374 0
2021-10-17 20:43:47 GMT 51.857887 0.025864 34,025 319 374 0
2021-10-17 20:43:45 GMT 51.855881 0.028728 34,025 319 374 0
2021-10-17 20:43:43 GMT 51.851852 0.034444 34,025 319 374 0
2021-10-17 20:43:40 GMT 51.846817 0.041644 34,025 319 374 0
2021-10-17 20:43:38 GMT 51.846817 0.041644 34,025 319 374 0
2021-10-17 20:43:36 GMT 51.844894 0.044391 34,025 319 374 0
2021-10-17 20:43:34 GMT 51.840866 0.050181 34,025 319 374 0
2021-10-17 20:43:32 GMT 51.838898 0.052927 34,025 319 374 0
2021-10-17 20:43:30 GMT 51.836384 0.056534 34,025 319 374 0
2021-10-17 20:43:28 GMT 51.833683 0.060425 34,025 319 374 0
2021-10-17 20:43:26 GMT 51.831894 0.062874 34,025 319 374 0
2021-10-17 20:43:24 GMT 51.828690 0.067477 34,025 319 374 0
2021-10-17 20:43:22 GMT 51.826080 0.071188 34,025 319 374 0
2021-10-17 20:43:20 GMT 51.823021 0.075531 34,025 319 374 0
2021-10-17 20:43:18 GMT 51.820908 0.078612 34,025 319 374 0
2021-10-17 20:43:16 GMT 51.818161 0.082472 34,025 319 375 0
2021-10-17 20:43:14 GMT 51.816193 0.085218 34,025 319 375 0
2021-10-17 20:43:12 GMT 51.812500 0.090485 34,025 319 375 0
2021-10-17 20:43:09 GMT 51.806351 0.099248 34,025 319 375 0
2021-10-17 20:43:07 GMT 51.806351 0.099248 34,025 319 375 0
2021-10-17 20:43:05 GMT 51.800995 0.106820 34,025 319 375 0
2021-10-17 20:43:03 GMT 51.800995 0.106820 34,025 319 375 0
2021-10-17 20:43:01 GMT 51.799095 0.109482 34,025 319 375 0
2021-10-17 20:42:59 GMT 51.795742 0.114288 34,025 319 375 0
2021-10-17 20:42:57 GMT 51.793369 0.117569 34,025 319 375 0
2021-10-17 20:42:55 GMT 51.788361 0.124710 34,025 319 375 0
2021-10-17 20:42:53 GMT 51.785660 0.128570 34,025 319 375 0
2021-10-17 20:42:51 GMT 51.785660 0.128570 34,025 319 375 0
2021-10-17 20:42:49 GMT 51.782913 0.132430 34,025 319 375 0
2021-10-17 20:42:46 GMT 51.778286 0.139008 34,025 319 375 0
2021-10-17 20:42:44 GMT 51.777122 0.140686 34,025 319 375 0
2021-10-17 20:42:42 GMT 51.773628 0.145645 34,025 319 375 0
2021-10-17 20:42:39 GMT 51.768929 0.152283 34,025 319 375 0
2021-10-17 20:42:36 GMT 51.765297 0.157471 34,025 319 375 0
2021-10-17 20:42:33 GMT 51.762085 0.161974 34,025 319 375 0
2021-10-17 20:42:31 GMT 51.756638 0.169694 34,025 319 375 0
2021-10-17 20:42:29 GMT 51.754028 0.173406 34,025 319 375 0
2021-10-17 20:42:27 GMT 51.754028 0.173406 34,025 319 375 0
2021-10-17 20:42:25 GMT 51.752171 0.176086 34,025 319 375 0
2021-10-17 20:42:23 GMT 51.749084 0.180384 34,025 319 375 0
2021-10-17 20:42:21 GMT 51.747116 0.183204 34,025 319 375 0
2021-10-17 20:42:19 GMT 51.743088 0.188920 34,025 319 375 0
2021-10-17 20:42:17 GMT 51.739925 0.193405 34,025 319 375 0
2021-10-17 20:42:13 GMT 51.736015 0.198898 34,000 319 375 0
2021-10-17 20:42:11 GMT 51.734200 0.201492 34,025 319 375 0
2021-10-17 20:42:09 GMT 51.726562 0.212303 34,000 319 375 0
2021-10-17 20:42:06 GMT 51.726562 0.212303 34,000 319 375 64
2021-10-17 20:42:04 GMT 51.724594 0.215050 34,000 319 374 64
2021-10-17 20:42:02 GMT 51.721817 0.218964 34,000 319 374 64
2021-10-17 20:42:00 GMT 51.719070 0.222855 34,000 319 374 0
2021-10-17 20:41:58 GMT 51.717113 0.225601 34,000 319 374 0
2021-10-17 20:41:56 GMT 51.712875 0.231604 34,000 319 374 0
2021-10-17 20:41:53 GMT 51.709576 0.236282 34,000 319 374 0
2021-10-17 20:41:51 GMT 51.707478 0.239182 34,000 319 374 0
2021-10-17 20:41:49 GMT 51.704819 0.242961 34,000 319 374 0
2021-10-17 20:41:47 GMT 51.702034 0.246887 34,000 319 374 0
2021-10-17 20:41:45 GMT 51.699799 0.250015 34,000 319 374 0
2021-10-17 20:41:43 GMT 51.696678 0.254440 34,000 319 373 0
2021-10-17 20:41:40 GMT 51.692825 0.259812 34,000 319 374 0
2021-10-17 20:41:37 GMT 51.689789 0.264130 34,000 319 374 0
2021-10-17 20:41:35 GMT 51.687653 0.267161 34,000 319 374 0
2021-10-17 20:41:33 GMT 51.683762 0.272654 34,000 319 374 0
2021-10-17 20:41:31 GMT 51.681225 0.276184 34,000 319 373 0
2021-10-17 20:41:29 GMT 51.679920 0.278015 34,000 319 373 0
2021-10-17 20:41:27 GMT 51.675293 0.284531 34,000 319 373 0
2021-10-17 20:41:24 GMT 51.672005 0.289154 34,000 319 373 0
2021-10-17 20:41:22 GMT 51.670624 0.291138 34,000 319 373 0
2021-10-17 20:41:20 GMT 51.668152 0.294552 34,000 319 373 0
2021-10-17 20:41:18 GMT 51.664398 0.299897 34,000 319 373 64
2021-10-17 20:41:15 GMT 51.660507 0.305316 33,975 319 373 64
2021-10-17 20:41:13 GMT 51.657993 0.308914 33,975 319 373 0
2021-10-17 20:41:11 GMT 51.654648 0.313556 33,975 319 373 0
2021-10-17 20:41:08 GMT 51.651245 0.318375 33,975 319 372 64
2021-10-17 20:41:06 GMT 51.649288 0.321121 33,975 319 372 64
2021-10-17 20:41:04 GMT 51.646088 0.325581 33,975 319 372 0
2021-10-17 20:41:02 GMT 51.644356 0.328064 33,975 319 372 0
2021-10-17 20:41:00 GMT 51.642197 0.331000 33,975 319 372 0
2021-10-17 20:40:58 GMT 51.638214 0.336642 33,975 319 372 0
2021-10-17 20:40:56 GMT 51.636246 0.339388 33,975 319 372 0
2021-10-17 20:40:54 GMT 51.633602 0.343094 33,975 319 372 0
2021-10-17 20:40:52 GMT 51.625900 0.353938 33,975 319 372 0
2021-10-17 20:40:49 GMT 51.623501 0.357285 33,975 320 372 64
2021-10-17 20:40:46 GMT 51.623501 0.357285 33,975 320 372 64
2021-10-17 20:40:44 GMT 51.620819 0.360990 33,975 320 372 64
2021-10-17 20:40:42 GMT 51.618191 0.364685 33,975 320 372 64
2021-10-17 20:40:39 GMT 51.613586 0.371086 33,975 319 371 0
2021-10-17 20:40:37 GMT 51.610840 0.374946 33,975 319 371 0
2021-10-17 20:40:34 GMT 51.607498 0.379622 33,975 319 371 0
2021-10-17 20:40:32 GMT 51.605484 0.382462 33,975 319 371 0
2021-10-17 20:40:30 GMT 51.600456 0.389481 33,950 319 371 0
2021-10-17 20:40:28 GMT 51.600456 0.389481 33,975 319 371 0
2021-10-17 20:40:26 GMT 51.594776 0.397415 33,950 319 371 0
2021-10-17 20:40:24 GMT 51.594776 0.397415 33,975 319 371 0
2021-10-17 20:40:22 GMT 51.589329 0.405045 33,950 319 371 0
2021-10-17 20:40:20 GMT 51.589329 0.405045 33,950 319 371 0
2021-10-17 20:40:18 GMT 51.586117 0.409546 33,975 319 371 0
2021-10-17 20:40:15 GMT 51.583237 0.413620 33,975 319 370 0
2021-10-17 20:40:13 GMT 51.580578 0.417328 33,975 319 370 0
2021-10-17 20:40:10 GMT 51.576572 0.422897 33,975 319 370 0
2021-10-17 20:40:08 GMT 51.573441 0.427353 33,975 319 370 -64
2021-10-17 20:40:05 GMT 51.569550 0.432772 33,975 319 370 0
2021-10-17 20:40:02 GMT 51.566658 0.436783 33,975 319 370 0
2021-10-17 20:40:00 GMT 51.563446 0.441284 33,975 319 370 -64
2021-10-17 20:39:58 GMT 51.561447 0.444130 33,975 319 370 -64
2021-10-17 20:39:56 GMT 51.558929 0.447617 33,975 319 369 0
2021-10-17 20:39:54 GMT 51.555496 0.452369 33,975 319 369 0
2021-10-17 20:39:52 GMT 51.552795 0.456155 33,975 319 369 0
2021-10-17 20:39:50 GMT 51.548737 0.461884 33,975 319 369 0
2021-10-17 20:39:48 GMT 51.548737 0.461884 33,975 319 369 0
2021-10-17 20:39:46 GMT 51.546036 0.465622 33,975 319 369 0
2021-10-17 20:39:44 GMT 51.542633 0.470334 33,975 320 369 0
2021-10-17 20:39:42 GMT 51.540848 0.472858 33,975 320 369 -64
2021-10-17 20:39:40 GMT 51.537369 0.477757 33,975 320 369 -64
2021-10-17 20:39:38 GMT 51.535263 0.480578 33,975 320 369 -64
2021-10-17 20:39:36 GMT 51.533203 0.483473 33,975 320 369 -64
2021-10-17 20:39:34 GMT 51.530067 0.487823 33,975 320 369 -64
2021-10-17 20:39:32 GMT 51.527435 0.491564 33,975 320 369 -64
2021-10-17 20:39:30 GMT 51.522343 0.498657 33,975 320 369 0
2021-10-17 20:39:28 GMT 51.522343 0.498657 33,975 320 369 0
2021-10-17 20:39:26 GMT 51.517826 0.504913 33,975 319 369 0
2021-10-17 20:39:24 GMT 51.517826 0.504913 33,975 319 369 0
2021-10-17 20:39:22 GMT 51.515305 0.508415 33,975 319 369 0
2021-10-17 20:39:20 GMT 51.512100 0.512869 33,975 319 369 0
2021-10-17 20:39:18 GMT 51.509445 0.516586 33,975 319 369 0
2021-10-17 20:39:16 GMT 51.506195 0.521108 33,975 319 369 0
2021-10-17 20:39:13 GMT 51.503082 0.525414 33,975 319 369 0
2021-10-17 20:39:11 GMT 51.500973 0.528412 33,975 319 369 64
2021-10-17 20:39:08 GMT 51.493423 0.538924 33,975 319 369 0
2021-10-17 20:39:05 GMT 51.493423 0.538924 33,975 319 369 0
2021-10-17 20:39:03 GMT 51.490997 0.542339 33,975 319 369 0
2021-10-17 20:39:01 GMT 51.487610 0.547015 33,975 319 369 0
2021-10-17 20:38:58 GMT 51.480492 0.556946 33,975 320 370 -64
2021-10-17 20:38:55 GMT 51.480492 0.556946 33,975 319 369 0
2021-10-17 20:38:53 GMT 51.475323 0.564117 33,975 319 369 -64
2021-10-17 20:38:51 GMT 51.475323 0.564117 33,975 319 369 -64
2021-10-17 20:38:49 GMT 51.472622 0.567932 34,000 320 370 -64
2021-10-17 20:38:46 GMT 51.465363 0.577927 33,975 320 370 0
2021-10-17 20:38:43 GMT 51.465363 0.577927 34,000 319 369 -64
2021-10-17 20:38:41 GMT 51.461563 0.583240 34,000 320 370 0
2021-10-17 20:38:39 GMT 51.459076 0.586777 34,000 320 370 0
2021-10-17 20:38:36 GMT 51.455307 0.591965 34,000 320 370 0
2021-10-17 20:38:34 GMT 51.452682 0.595637 34,000 319 371 0
2021-10-17 20:38:32 GMT 51.449905 0.599518 34,000 319 371 0
2021-10-17 20:38:29 GMT 51.446552 0.604248 34,000 319 371 0
2021-10-17 20:38:27 GMT 51.444168 0.607588 34,000 319 371 -64
2021-10-17 20:38:25 GMT 51.442039 0.610504 34,000 319 371 0
2021-10-17 20:38:23 GMT 51.439362 0.614195 34,000 319 371 -64
2021-10-17 20:38:21 GMT 51.433102 0.622940 34,000 319 371 -64
2021-10-17 20:38:19 GMT 51.433102 0.622940 34,000 319 371 0
2021-10-17 20:38:17 GMT 51.431763 0.624885 34,000 319 372 -64
2021-10-17 20:38:15 GMT 51.429291 0.628299 34,000 319 371 -64
2021-10-17 20:38:13 GMT 51.426590 0.632085 34,000 319 371 -64
2021-10-17 20:38:11 GMT 51.422607 0.637652 34,000 319 372 -64
2021-10-17 20:38:08 GMT 51.416294 0.646439 34,000 319 372 -64
2021-10-17 20:38:06 GMT 51.416294 0.646439 34,000 319 372 -64
2021-10-17 20:38:04 GMT 51.413876 0.649872 34,000 319 372 -64
2021-10-17 20:38:02 GMT 51.411072 0.653761 34,025 319 372 -64
2021-10-17 20:38:00 GMT 51.408428 0.657501 34,025 319 372 -64
2021-10-17 20:37:57 GMT 51.405258 0.661852 34,025 319 372 -64
2021-10-17 20:37:55 GMT 51.402924 0.665118 34,025 319 372 -64
2021-10-17 20:37:53 GMT 51.398605 0.671158 34,025 320 372 -64
2021-10-17 20:37:50 GMT 51.395859 0.674973 34,025 320 372 -64
2021-10-17 20:37:47 GMT 51.392670 0.679371 34,025 320 372 -64
2021-10-17 20:37:45 GMT 51.389900 0.683289 34,025 320 372 0
2021-10-17 20:37:43 GMT 51.387154 0.687027 34,025 320 372 0
2021-10-17 20:37:41 GMT 51.383801 0.691757 34,025 320 372 0
2021-10-17 20:37:38 GMT 51.380997 0.695628 34,025 320 372 -64
2021-10-17 20:37:36 GMT 51.376865 0.701294 34,025 320 373 0
2021-10-17 20:37:33 GMT 51.371513 0.708694 34,025 320 372 0
2021-10-17 20:37:31 GMT 51.371513 0.708694 34,025 320 373 0
2021-10-17 20:37:29 GMT 51.368671 0.712585 34,025 320 374 0
2021-10-17 20:37:27 GMT 51.366066 0.716248 34,025 320 374 0
2021-10-17 20:37:25 GMT 51.360901 0.723316 34,025 320 374 0
2021-10-17 20:37:23 GMT 51.360901 0.723316 34,025 320 373 0
2021-10-17 20:37:21 GMT 51.358429 0.726805 34,025 320 373 0
2021-10-17 20:37:19 GMT 51.355682 0.730591 34,025 320 373 0
2021-10-17 20:37:17 GMT 51.352985 0.734253 34,025 320 374 0
2021-10-17 20:37:15 GMT 51.350967 0.737049 34,025 320 374 0
2021-10-17 20:37:13 GMT 51.347862 0.741272 34,025 320 374 0
2021-10-17 20:37:11 GMT 51.345200 0.744992 34,025 320 374 0
2021-10-17 20:37:09 GMT 51.342510 0.748672 34,025 320 374 64
2021-10-17 20:37:07 GMT 51.339905 0.752258 34,025 320 374 64
2021-10-17 20:37:05 GMT 51.337967 0.754865 34,025 320 375 64
2021-10-17 20:37:03 GMT 51.335220 0.758650 34,025 320 375 64
2021-10-17 20:37:01 GMT 51.331421 0.763921 34,025 320 375 64
2021-10-17 20:36:58 GMT 51.328262 0.768226 34,025 320 375 64
2021-10-17 20:36:56 GMT 51.324402 0.773544 34,025 320 375 64
2021-10-17 20:36:53 GMT 51.318859 0.781097 34,025 320 375 64
2021-10-17 20:36:51 GMT 51.318859 0.781097 34,000 320 375 64
2021-10-17 20:36:49 GMT 51.316116 0.784912 34,000 320 376 64
2021-10-17 20:36:47 GMT 51.312469 0.789902 34,000 320 376 64
2021-10-17 20:36:44 GMT 51.309643 0.793762 34,000 320 376 64
2021-10-17 20:36:42 GMT 51.306244 0.798492 34,000 320 376 64
2021-10-17 20:36:40 GMT 51.304291 0.801239 34,000 320 376 64
2021-10-17 20:36:37 GMT 51.300983 0.805740 34,000 320 376 64
2021-10-17 20:36:35 GMT 51.298279 0.809425 34,000 320 376 64
2021-10-17 20:36:33 GMT 51.291870 0.818333 34,000 320 376 64
2021-10-17 20:36:31 GMT 51.291870 0.818333 34,000 320 376 64
2021-10-17 20:36:28 GMT 51.288025 0.823529 34,000 320 376 64
2021-10-17 20:36:26 GMT 51.281982 0.831843 34,000 320 376 0
2021-10-17 20:36:23 GMT 51.281982 0.831843 34,000 320 377 0
2021-10-17 20:36:21 GMT 51.279053 0.835852 34,000 320 377 0
2021-10-17 20:36:19 GMT 51.274475 0.842161 34,000 320 377 0
2021-10-17 20:36:15 GMT 51.271751 0.845871 34,000 320 377 0
2021-10-17 20:36:13 GMT 51.269073 0.849585 34,000 320 377 0
2021-10-17 20:36:11 GMT 51.266769 0.852737 34,000 320 376 0
2021-10-17 20:36:09 GMT 51.262848 0.858121 34,000 320 376 0
2021-10-17 20:36:06 GMT 51.255131 0.868683 34,000 320 376 0
2021-10-17 20:36:03 GMT 51.255131 0.868683 34,000 320 377 0
2021-10-17 20:36:01 GMT 51.252617 0.872040 34,000 320 375 0
2021-10-17 20:35:58 GMT 51.248940 0.877151 34,000 320 376 0
2021-10-17 20:35:56 GMT 51.245728 0.881579 34,000 320 376 0
2021-10-17 20:35:53 GMT 51.242096 0.886536 34,000 320 376 0
2021-10-17 20:35:51 GMT 51.239582 0.889969 34,000 320 375 0
2021-10-17 20:35:49 GMT 51.236931 0.893555 34,000 320 375 0
2021-10-17 20:35:47 GMT 51.234604 0.896759 34,000 320 375 0
2021-10-17 20:35:45 GMT 51.231438 0.901108 34,000 320 375 0
2021-10-17 20:35:42 GMT 51.227417 0.906595 34,000 320 375 0
2021-10-17 20:35:40 GMT 51.226089 0.908451 34,000 320 375 0
2021-10-17 20:35:38 GMT 51.222080 0.913925 34,000 320 375 0
2021-10-17 20:35:35 GMT 51.218582 0.918695 34,000 320 375 0
2021-10-17 20:35:33 GMT 51.216614 0.921367 34,000 320 375 0
2021-10-17 20:35:31 GMT 51.213654 0.925446 34,000 320 375 0
2021-10-17 20:35:29 GMT 51.210209 0.930099 34,000 320 375 0
2021-10-17 20:35:26 GMT 51.206863 0.934729 34,000 320 375 0
2021-10-17 20:35:24 GMT 51.202148 0.941187 34,000 320 375 0
2021-10-17 20:35:22 GMT 51.198578 0.946012 34,000 320 375 0
2021-10-17 20:35:20 GMT 51.198578 0.946012 34,000 320 375 0
2021-10-17 20:35:17 GMT 51.192055 0.954971 34,000 320 375 -64
2021-10-17 20:35:15 GMT 51.192055 0.954971 34,000 320 375 0
2021-10-17 20:35:13 GMT 51.190235 0.957489 34,000 320 375 -64
2021-10-17 20:35:11 GMT 51.186790 0.962143 34,000 320 375 -64
2021-10-17 20:35:09 GMT 51.184113 0.965832 34,000 320 375 -64
2021-10-17 20:35:06 GMT 51.181534 0.969315 34,000 320 375 -64
2021-10-17 20:35:04 GMT 51.173584 0.980233 34,000 320 375 -64
2021-10-17 20:35:01 GMT 51.173584 0.980233 34,000 320 375 -64
2021-10-17 20:34:59 GMT 51.170975 0.983796 34,000 320 375 -64
2021-10-17 20:34:56 GMT 51.167103 0.989075 34,025 320 375 -64
2021-10-17 20:34:54 GMT 51.165070 0.991887 34,025 320 375 -64
2021-10-17 20:34:52 GMT 51.162491 0.995407 34,025 320 375 -64
2021-10-17 20:34:50 GMT 51.159943 0.998865 34,025 320 375 -64
2021-10-17 20:34:48 GMT 51.156784 1.003171 34,025 320 375 -64
2021-10-17 20:34:45 GMT 51.152710 1.008738 34,025 320 375 -64
2021-10-17 20:34:43 GMT 51.150715 1.011581 34,025 320 375 -64
2021-10-17 20:34:41 GMT 51.147217 1.016310 34,025 320 375 -64
2021-10-17 20:34:38 GMT 51.143593 1.021271 34,025 320 375 -64
2021-10-17 20:34:35 GMT 51.140194 1.025925 34,025 320 375 -64
2021-10-17 20:34:32 GMT 51.136143 1.031494 34,025 320 375 0
2021-10-17 20:34:30 GMT 51.130093 1.039734 34,025 320 375 0
2021-10-17 20:34:27 GMT 51.130093 1.039734 34,025 320 375 -64
2021-10-17 20:34:25 GMT 51.125565 1.045928 34,025 320 375 0
2021-10-17 20:34:22 GMT 51.122406 1.050159 34,025 320 375 0
2021-10-17 20:34:20 GMT 51.116501 1.058251 34,025 320 375 0
2021-10-17 20:34:17 GMT 51.116501 1.058251 34,025 320 374 0
2021-10-17 20:34:15 GMT 51.113148 1.062775 34,025 320 374 -64
2021-10-17 20:34:12 GMT 51.109051 1.068344 34,025 320 375 -64
2021-10-17 20:34:10 GMT 51.107117 1.070870 34,025 320 375 -64
2021-10-17 20:34:09 GMT 51.105606 1.072922 34,050 320 375 -64
2021-10-17 20:34:06 GMT 51.101578 1.078367 34,050 320 375 -64
2021-10-17 20:34:04 GMT 51.099552 1.081161 34,050 320 375 -64
2021-10-17 20:34:02 GMT 51.096527 1.085205 34,050 320 374 -64
2021-10-17 20:34:00 GMT 51.093292 1.089577 34,050 320 374 0
2021-10-17 20:33:57 GMT 51.087067 1.097890 34,050 320 374 0
2021-10-17 20:33:55 GMT 51.087067 1.097890 34,050 320 374 0
2021-10-17 20:33:52 GMT 51.083168 1.103134 34,050 321 374 0
2021-10-17 20:33:49 GMT 51.079304 1.108246 34,050 321 374 0
2021-10-17 20:33:47 GMT 51.076790 1.111603 34,050 321 374 0
2021-10-17 20:33:45 GMT 51.073929 1.115335 34,050 321 374 64
2021-10-17 20:33:42 GMT 51.069946 1.120605 34,025 321 374 64
2021-10-17 20:33:40 GMT 51.066128 1.125565 34,025 321 374 64
2021-10-17 20:33:37 GMT 51.058960 1.135025 34,025 321 374 64
2021-10-17 20:33:34 GMT 51.058960 1.135025 34,025 321 374 64
2021-10-17 20:33:31 GMT 51.054977 1.140128 34,025 321 375 64
2021-10-17 20:33:29 GMT 51.052116 1.143875 34,025 321 374 64
2021-10-17 20:33:27 GMT 51.048626 1.148376 34,025 321 374 64
2021-10-17 20:33:24 GMT 51.045090 1.153045 34,000 321 375 64
2021-10-17 20:33:21 GMT 51.042252 1.156682 34,000 321 375 64
2021-10-17 20:33:19 GMT 51.039501 1.160202 34,000 321 375 64
2021-10-17 20:33:17 GMT 51.037361 1.163025 34,000 321 375 64
2021-10-17 20:33:15 GMT 51.033966 1.167372 34,000 321 375 64
2021-10-17 20:33:11 GMT 51.028336 1.174721 34,000 321 374 64
2021-10-17 20:33:08 GMT 51.024929 1.179123 34,000 315 374 0
2021-10-17 20:33:05 GMT 51.019775 1.185855 34,000 321 374 64
2021-10-17 20:33:02 GMT 51.013710 1.193771 34,000 321 374 0
2021-10-17 20:33:00 GMT 51.013710 1.193771 34,000 320 374 0
2021-10-17 20:32:57 GMT 51.009102 1.199951 34,000 320 374 0
2021-10-17 20:32:54 GMT 51.006409 1.203597 34,000 320 374 0
2021-10-17 20:32:51 GMT 51.001747 1.210022 34,000 316 374 0
2021-10-17 20:32:49 GMT 50.997253 1.216216 34,000 319 374 0
2021-10-17 20:32:47 GMT 50.997253 1.216216 34,000 319 374 0
2021-10-17 20:32:45 GMT 50.994114 1.220703 34,000 318 374 0
2021-10-17 20:32:41 GMT 50.986012 1.232681 34,000 316 374 0
2021-10-17 20:32:38 GMT 50.986012 1.232681 34,000 317 374 0
2021-10-17 20:32:36 GMT 50.983406 1.236649 34,000 316 374 0
2021-10-17 20:32:33 GMT 50.979630 1.242569 34,000 316 375 0
2021-10-17 20:32:31 GMT 50.973816 1.251755 34,000 315 374 0
2021-10-17 20:32:29 GMT 50.973816 1.251755 34,000 315 374 0
2021-10-17 20:32:27 GMT 50.971664 1.255114 34,000 315 374 0
2021-10-17 20:32:25 GMT 50.969067 1.259308 34,000 315 374 0
2021-10-17 20:32:23 GMT 50.963608 1.267882 34,000 316 375 0
2021-10-17 20:32:20 GMT 50.963608 1.267882 34,000 316 375 0
2021-10-17 20:32:18 GMT 50.961639 1.270999 34,000 316 375 0
2021-10-17 20:32:16 GMT 50.958035 1.276703 34,000 316 375 0
2021-10-17 20:32:14 GMT 50.955643 1.280501 34,000 315 376 0
2021-10-17 20:32:12 GMT 50.953400 1.283990 34,000 315 376 0
2021-10-17 20:32:10 GMT 50.949562 1.290131 34,000 315 376 0
2021-10-17 20:32:07 GMT 50.946899 1.294308 34,000 315 376 0
2021-10-17 20:32:04 GMT 50.943695 1.299356 34,000 316 376 0
2021-10-17 20:32:02 GMT 50.941418 1.302948 34,000 315 377 0
2021-10-17 20:32:00 GMT 50.938156 1.308115 34,000 315 377 0
2021-10-17 20:31:57 GMT 50.934952 1.313163 34,000 315 377 0
2021-10-17 20:31:54 GMT 50.931454 1.318741 34,000 315 377 0
2021-10-17 20:31:51 GMT 50.927868 1.324387 34,000 315 377 0
2021-10-17 20:31:49 GMT 50.924656 1.329498 34,000 315 377 0
2021-10-17 20:31:47 GMT 50.922703 1.332626 34,000 315 377 0
2021-10-17 20:31:44 GMT 50.918427 1.339367 34,000 315 377 0
2021-10-17 20:31:41 GMT 50.913113 1.347809 34,000 315 376 0
2021-10-17 20:31:36 GMT 50.908550 1.354980 34,000 316 371 0
2021-10-17 20:31:33 GMT 50.905518 1.359707 34,000 316 375 0
2021-10-17 20:31:31 GMT 50.903183 1.363418 34,000 316 375 0
2021-10-17 20:31:29 GMT 50.900848 1.367056 34,000 316 375 0
2021-10-17 20:31:27 GMT 50.899193 1.369705 34,000 316 375 0
2021-10-17 20:31:25 GMT 50.895493 1.375592 34,000 316 374 0
2021-10-17 20:31:23 GMT 50.893093 1.379318 34,000 316 374 0
2021-10-17 20:31:20 GMT 50.889137 1.385498 34,000 316 374 0
2021-10-17 20:31:17 GMT 50.886017 1.390439 34,000 316 374 0
2021-10-17 20:31:14 GMT 50.882202 1.396484 34,000 316 374 0
2021-10-17 20:31:12 GMT 50.879501 1.400681 34,000 316 373 0
2021-10-17 20:31:10 GMT 50.876999 1.404691 34,000 316 373 0
2021-10-17 20:31:07 GMT 50.873867 1.409531 34,000 316 373 0
2021-10-17 20:31:04 GMT 50.868095 1.418610 34,000 316 373 0
2021-10-17 20:31:00 GMT 50.862602 1.427231 34,000 316 373 0
2021-10-17 20:30:58 GMT 50.862602 1.427231 34,000 316 371 0
2021-10-17 20:30:56 GMT 50.860928 1.429901 34,000 316 371 0
2021-10-17 20:30:54 GMT 50.857716 1.434860 34,000 316 371 0
2021-10-17 20:30:52 GMT 50.855850 1.437799 34,000 316 370 64
2021-10-17 20:30:50 GMT 50.852325 1.443366 34,000 316 370 64
2021-10-17 20:30:48 GMT 50.850494 1.446187 34,000 316 369 0
2021-10-17 20:30:46 GMT 50.844261 1.455994 34,000 316 369 0
2021-10-17 20:30:43 GMT 50.844261 1.455994 34,000 316 369 0
2021-10-17 20:30:41 GMT 50.840195 1.462369 34,000 316 369 0
2021-10-17 20:30:37 GMT 50.837139 1.467209 34,000 316 369 0
2021-10-17 20:30:34 GMT 50.833557 1.472762 34,000 316 369 0
2021-10-17 20:30:32 GMT 50.831131 1.476548 34,000 316 369 0
2021-10-17 20:30:30 GMT 50.828201 1.481150 34,000 316 369 0
2021-10-17 20:30:28 GMT 50.825684 1.485159 34,000 316 369 0
2021-10-17 20:30:26 GMT 50.821198 1.492136 34,000 316 369 -64
2021-10-17 20:30:24 GMT 50.821198 1.492136 34,000 316 369 -64
2021-10-17 20:30:22 GMT 50.815292 1.501415 34,000 316 369 -64
2021-10-17 20:30:19 GMT 50.815292 1.501415 34,000 316 369 -64
2021-10-17 20:30:16 GMT 50.812134 1.506389 34,000 316 369 -64
2021-10-17 20:30:13 GMT 50.807785 1.513144 34,000 316 369 -64
2021-10-17 20:30:11 GMT 50.805435 1.516876 34,000 316 369 0
2021-10-17 20:30:09 GMT 50.802921 1.520844 34,000 316 368 0
2021-10-17 20:30:06 GMT 50.798920 1.527100 34,000 316 368 0
2021-10-17 20:30:03 GMT 50.796066 1.531554 34,000 316 368 0
2021-10-17 20:30:01 GMT 50.791031 1.539496 34,000 316 368 0
2021-10-17 20:29:59 GMT 50.791031 1.539496 34,000 316 368 0
2021-10-17 20:29:57 GMT 50.788677 1.543198 34,000 316 368 0
2021-10-17 20:29:54 GMT 50.784393 1.549889 34,000 316 368 0
2021-10-17 20:29:51 GMT 50.781788 1.553955 34,000 316 368 -64
2021-10-17 20:29:49 GMT 50.775192 1.564290 34,000 316 368 -64
2021-10-17 20:29:46 GMT 50.775192 1.564290 34,025 316 368 -64
2021-10-17 20:29:43 GMT 50.772385 1.568756 34,000 316 369 0
2021-10-17 20:29:41 GMT 50.766632 1.577652 34,025 316 368 0
2021-10-17 20:29:39 GMT 50.766632 1.577652 34,025 316 368 0
2021-10-17 20:29:36 GMT 50.763016 1.583367 34,025 316 368 0
2021-10-17 20:29:33 GMT 50.760223 1.587673 34,025 316 368 0
2021-10-17 20:29:31 GMT 50.756695 1.593246 34,000 316 368 0
2021-10-17 20:29:28 GMT 50.754742 1.596298 34,000 316 368 0
2021-10-17 20:29:26 GMT 50.751068 1.602000 34,000 316 368 0
2021-10-17 20:29:23 GMT 50.748138 1.606528 34,000 316 368 0
2021-10-17 20:29:21 GMT 50.744732 1.611938 34,000 316 368 64
2021-10-17 20:29:19 GMT 50.743561 1.613728 34,000 316 368 0
2021-10-17 20:29:17 GMT 50.740498 1.618500 34,000 316 368 0
2021-10-17 20:29:15 GMT 50.734352 1.628113 34,000 316 368 0
2021-10-17 20:29:12 GMT 50.734352 1.628113 34,000 316 368 0
2021-10-17 20:29:10 GMT 50.731792 1.632080 34,000 316 367 64
2021-10-17 20:29:08 GMT 50.729977 1.634903 34,000 316 367 64
2021-10-17 20:29:05 GMT 50.725479 1.641936 34,000 316 367 64
2021-10-17 20:29:02 GMT 50.722248 1.646957 34,000 316 367 0
2021-10-17 20:29:00 GMT 50.716011 1.656723 34,000 316 367 0
2021-10-17 20:28:57 GMT 50.716011 1.656723 34,000 316 367 0
2021-10-17 20:28:55 GMT 50.709866 1.666336 34,000 316 367 0
2021-10-17 20:28:52 GMT 50.709866 1.666336 34,000 316 367 0
2021-10-17 20:28:50 GMT 50.707489 1.669996 34,000 316 366 0
2021-10-17 20:28:47 GMT 50.703209 1.676636 34,000 316 366 0
2021-10-17 20:28:44 GMT 50.700787 1.680374 34,000 316 365 0
2021-10-17 20:28:41 GMT 50.694317 1.690521 34,000 316 366 -64
2021-10-17 20:28:39 GMT 50.694317 1.690521 34,000 316 366 -64
2021-10-17 20:28:36 GMT 50.690594 1.696320 34,000 316 365 0
2021-10-17 20:28:33 GMT 50.686935 1.701990 34,000 316 365 0
2021-10-17 20:28:31 GMT 50.685837 1.703697 34,000 316 364 0
2021-10-17 20:28:29 GMT 50.682220 1.709265 34,000 316 364 0
2021-10-17 20:28:26 GMT 50.678722 1.714783 34,000 316 364 0
2021-10-17 20:28:24 GMT 50.677002 1.717430 34,000 316 363 0
2021-10-17 20:28:22 GMT 50.674065 1.722031 34,000 316 363 0
2021-10-17 20:28:19 GMT 50.670273 1.727817 34,000 316 363 0
2021-10-17 20:28:17 GMT 50.668434 1.730718 34,000 316 363 0
2021-10-17 20:28:14 GMT 50.664780 1.736418 34,000 316 363 0
2021-10-17 20:28:11 GMT 50.660660 1.742818 34,000 316 363 0
2021-10-17 20:28:09 GMT 50.656403 1.749356 34,000 316 363 0
2021-10-17 20:28:07 GMT 50.656403 1.749356 34,000 316 364 0
2021-10-17 20:28:04 GMT 50.652237 1.755861 34,000 316 364 0
2021-10-17 20:28:01 GMT 50.649628 1.759817 34,000 316 364 0
2021-10-17 20:27:59 GMT 50.647293 1.763450 34,000 316 364 0
2021-10-17 20:27:57 GMT 50.644409 1.767859 34,000 316 364 0
2021-10-17 20:27:55 GMT 50.642258 1.771256 34,000 316 364 0
2021-10-17 20:27:53 GMT 50.639572 1.775405 34,000 316 364 0
2021-10-17 20:27:51 GMT 50.637196 1.779117 34,000 316 364 0
2021-10-17 20:27:49 GMT 50.635437 1.781809 34,000 316 363 0
2021-10-17 20:27:47 GMT 50.632324 1.786579 34,000 316 363 0
2021-10-17 20:27:45 GMT 50.629982 1.790178 34,000 316 363 0
2021-10-17 20:27:42 GMT 50.626694 1.795253 34,000 316 363 0
2021-10-17 20:27:40 GMT 50.623123 1.800818 34,000 316 363 0
2021-10-17 20:27:37 GMT 50.619694 1.806063 34,000 316 363 0
2021-10-17 20:27:34 GMT 50.616852 1.810517 34,000 316 363 0
2021-10-17 20:27:31 GMT 50.612961 1.816503 34,000 316 363 0
2021-10-17 20:27:28 GMT 50.609406 1.822023 34,000 316 363 0
2021-10-17 20:27:26 GMT 50.607731 1.824621 34,000 316 364 0
2021-10-17 20:27:24 GMT 50.604813 1.829079 34,000 316 364 0
2021-10-17 20:27:22 GMT 50.602524 1.832621 34,000 316 364 0
2021-10-17 20:27:19 GMT 50.598652 1.838651 34,000 316 364 0
2021-10-17 20:27:17 GMT 50.594090 1.845629 34,000 316 364 64
2021-10-17 20:27:15 GMT 50.594090 1.845629 34,000 316 364 64
2021-10-17 20:27:13 GMT 50.591766 1.849245 33,975 316 364 64
2021-10-17 20:27:10 GMT 50.588379 1.854449 33,975 316 364 0
2021-10-17 20:27:08 GMT 50.581009 1.865820 34,000 316 364 0
2021-10-17 20:27:05 GMT 50.578495 1.869680 34,000 316 364 0
2021-10-17 20:27:02 GMT 50.578495 1.869680 34,000 316 364 0
2021-10-17 20:27:00 GMT 50.576019 1.873458 34,000 316 363 64
2021-10-17 20:26:58 GMT 50.573326 1.877623 34,000 316 363 64
2021-10-17 20:26:56 GMT 50.572117 1.879479 34,000 316 362 64
2021-10-17 20:26:54 GMT 50.569061 1.884155 33,975 316 358 0
2021-10-17 20:26:51 GMT 50.566017 1.888832 34,000 316 361 192
2021-10-17 20:26:49 GMT 50.562881 1.893696 33,975 316 359 256
2021-10-17 20:26:47 GMT 50.559677 1.898611 33,975 316 359 0
2021-10-17 20:26:44 GMT 50.556107 1.904104 33,975 316 358 -64
2021-10-17 20:26:41 GMT 50.554287 1.906944 33,975 316 358 0
2021-10-17 20:26:39 GMT 50.550983 1.911992 33,975 316 358 0
2021-10-17 20:26:37 GMT 50.549072 1.914962 33,975 316 358 -64
2021-10-17 20:26:34 GMT 50.544838 1.921494 33,975 316 358 -64
2021-10-17 20:26:31 GMT 50.539017 1.930402 33,975 316 358 -64
2021-10-17 20:26:29 GMT 50.539017 1.930402 33,975 316 358 -64
2021-10-17 20:26:27 GMT 50.537201 1.933232 33,975 316 358 -64
2021-10-17 20:26:25 GMT 50.534225 1.937714 33,975 316 358 -64
2021-10-17 20:26:22 GMT 50.531338 1.942205 33,975 316 358 -64
2021-10-17 20:26:19 GMT 50.523796 1.953859 33,975 316 358 -64
2021-10-17 20:26:17 GMT 50.523796 1.953859 33,975 316 358 -64
2021-10-17 20:26:14 GMT 50.521561 1.957274 34,000 316 358 -64
2021-10-17 20:26:11 GMT 50.518433 1.962144 33,975 316 358 -64
2021-10-17 20:26:09 GMT 50.515320 1.966842 34,000 316 358 -64
2021-10-17 20:26:07 GMT 50.513443 1.969733 34,000 316 358 -64
2021-10-17 20:26:04 GMT 50.510201 1.974792 34,000 316 358 -64
2021-10-17 20:26:01 GMT 50.506523 1.980434 34,000 316 358 -64
2021-10-17 20:25:59 GMT 50.503452 1.985111 34,000 316 358 -64
2021-10-17 20:25:56 GMT 50.500351 1.989971 34,000 316 358 -64
2021-10-17 20:25:54 GMT 50.498611 1.992608 34,000 316 358 -64
2021-10-17 20:25:52 GMT 50.495537 1.997359 34,000 316 359 -64
2021-10-17 20:25:49 GMT 50.491627 2.003298 34,000 316 359 0
2021-10-17 20:25:47 GMT 50.490051 2.005800 34,000 316 359 0
2021-10-17 20:25:45 GMT 50.486847 2.010715 34,000 316 359 0
2021-10-17 20:25:42 GMT 50.483250 2.016288 34,000 316 359 0
2021-10-17 20:25:39 GMT 50.480873 2.019926 34,000 316 359 0
2021-10-17 20:25:37 GMT 50.475430 2.028239 34,000 316 359 0
2021-10-17 20:25:35 GMT 50.475430 2.028239 34,000 316 359 0
2021-10-17 20:25:32 GMT 50.471146 2.034846 34,000 316 359 0
2021-10-17 20:25:30 GMT 50.469086 2.038036 34,000 316 359 0
2021-10-17 20:25:28 GMT 50.464325 2.045264 34,000 316 359 0
2021-10-17 20:25:26 GMT 50.462997 2.047288 34,000 316 359 0
2021-10-17 20:25:22 GMT 50.459930 2.052058 34,000 316 360 0
2021-10-17 20:25:19 GMT 50.456955 2.056612 34,000 316 360 64
2021-10-17 20:25:17 GMT 50.453613 2.061671 34,000 316 360 0
2021-10-17 20:25:14 GMT 50.450104 2.067063 34,000 316 360 0
2021-10-17 20:25:12 GMT 50.446838 2.072079 34,000 316 361 0
2021-10-17 20:25:09 GMT 50.444595 2.075549 34,000 316 361 0
2021-10-17 20:25:07 GMT 50.441711 2.079958 34,000 316 361 0
2021-10-17 20:25:05 GMT 50.439396 2.083542 34,000 316 361 0
2021-10-17 20:25:03 GMT 50.436649 2.087699 34,000 316 361 -64
2021-10-17 20:25:00 GMT 50.433578 2.092450 34,000 316 361 0
2021-10-17 20:24:58 GMT 50.431732 2.095281 34,000 316 361 0
2021-10-17 20:24:55 GMT 50.427429 2.101858 34,000 316 361 0
2021-10-17 20:24:52 GMT 50.424358 2.106554 34,000 316 361 0
2021-10-17 20:24:49 GMT 50.421112 2.111543 34,000 316 361 0
2021-10-17 20:24:47 GMT 50.418594 2.115374 34,000 316 361 0
2021-10-17 20:24:45 GMT 50.416168 2.119099 34,000 316 361 0
2021-10-17 20:24:43 GMT 50.411884 2.125706 34,000 316 362 0
2021-10-17 20:24:40 GMT 50.410629 2.127589 34,000 316 362 0
2021-10-17 20:24:38 GMT 50.406921 2.133299 34,000 316 362 0
2021-10-17 20:24:36 GMT 50.402710 2.139660 34,000 316 362 0
2021-10-17 20:24:34 GMT 50.402710 2.139660 34,000 316 362 0
2021-10-17 20:24:32 GMT 50.399174 2.145081 34,000 316 362 0
2021-10-17 20:24:29 GMT 50.396103 2.149831 34,000 316 362 0
2021-10-17 20:24:26 GMT 50.393822 2.153320 34,000 316 363 0
2021-10-17 20:24:24 GMT 50.390797 2.157848 34,000 316 363 0
2021-10-17 20:24:21 GMT 50.387146 2.163439 34,000 316 364 0
2021-10-17 20:24:18 GMT 50.383392 2.169149 34,000 316 364 0
2021-10-17 20:24:15 GMT 50.375107 2.181751 34,000 316 365 0
2021-10-17 20:24:12 GMT 50.375107 2.181751 34,000 316 365 0
2021-10-17 20:24:09 GMT 50.372635 2.185484 34,000 316 366 0
2021-10-17 20:24:06 GMT 50.366684 2.194519 34,000 316 366 0
2021-10-17 20:24:04 GMT 50.366684 2.194519 34,000 316 367 0
2021-10-17 20:24:01 GMT 50.362865 2.200309 34,000 316 367 0
2021-10-17 20:23:59 GMT 50.360306 2.204169 34,000 316 367 64
2021-10-17 20:23:55 GMT 50.355835 2.210926 34,000 317 367 64
2021-10-17 20:23:53 GMT 50.349319 2.220723 34,000 317 368 0
2021-10-17 20:23:50 GMT 50.349319 2.220723 34,000 317 368 0
2021-10-17 20:23:47 GMT 50.342331 2.231092 34,000 317 369 0
2021-10-17 20:23:44 GMT 50.342331 2.231092 34,000 317 369 64
2021-10-17 20:23:42 GMT 50.339996 2.234634 34,000 317 369 64
2021-10-17 20:23:40 GMT 50.337120 2.238910 34,000 317 369 0
2021-10-17 20:23:36 GMT 50.332142 2.246259 34,000 317 369 64
2021-10-17 20:23:33 GMT 50.324020 2.258269 34,000 318 368 -192
2021-10-17 20:23:29 GMT 50.324020 2.258269 34,000 317 370 0
2021-10-17 20:23:27 GMT 50.321274 2.262316 34,000 317 370 0
2021-10-17 20:23:25 GMT 50.318687 2.266004 34,000 317 370 -64
2021-10-17 20:23:23 GMT 50.314960 2.271498 34,000 317 370 -64
2021-10-17 20:23:20 GMT 50.308868 2.280386 34,000 318 370 -128
2021-10-17 20:23:17 GMT 50.308868 2.280386 34,000 317 370 -128
2021-10-17 20:23:15 GMT 50.303650 2.287975 34,025 318 368 -128
2021-10-17 20:23:13 GMT 50.303650 2.287975 34,025 318 368 -128
2021-10-17 20:23:11 GMT 50.300575 2.292431 34,025 318 368 -192
2021-10-17 20:23:08 GMT 50.297691 2.296588 34,050 318 368 -192
2021-10-17 20:23:05 GMT 50.293396 2.302792 34,050 317 367 -256
2021-10-17 20:23:03 GMT 50.291359 2.305793 34,050 317 367 -320
2021-10-17 20:23:01 GMT 50.288242 2.310321 34,125 317 367 -576
2021-10-17 20:22:58 GMT 50.285248 2.314790 34,100 317 367 -832
2021-10-17 20:22:55 GMT 50.281265 2.320573 34,125 317 367 -960
2021-10-17 20:22:52 GMT 50.277466 2.326210 34,400 312 362 -960
2021-10-17 20:22:49 GMT 50.273163 2.332643 34,275 316 367 -1088
2021-10-17 20:22:46 GMT 50.270550 2.336673 34,300 316 368 -1152
2021-10-17 20:22:44 GMT 50.267441 2.341389 34,350 316 368 -1152
2021-10-17 20:22:42 GMT 50.265518 2.344425 34,450 315 368 -1152
2021-10-17 20:22:39 GMT 50.261662 2.350555 34,475 314 368 -1216
2021-10-17 20:22:36 GMT 50.258057 2.356351 34,525 313 367 -1152
2021-10-17 20:22:33 GMT 50.255081 2.361410 34,600 312 366 -1088
2021-10-17 20:22:30 GMT 50.251328 2.367843 34,675 312 366 -1088
2021-10-17 20:22:27 GMT 50.246437 2.376462 34,700 312 364 -1024
2021-10-17 20:22:25 GMT 50.246437 2.376462 34,700 312 364 -1024
2021-10-17 20:22:23 GMT 50.244186 2.380492 34,725 312 364 -1024
2021-10-17 20:22:21 GMT 50.242081 2.384250 34,800 312 362 -960
2021-10-17 20:22:18 GMT 50.237549 2.392345 34,825 312 362 -960
2021-10-17 20:22:15 GMT 50.234344 2.397983 34,875 312 362 -960
2021-10-17 20:22:13 GMT 50.230911 2.404054 34,925 312 361 -960
2021-10-17 20:22:09 GMT 50.228165 2.408897 34,975 312 361 -960
2021-10-17 20:22:07 GMT 50.225967 2.412800 35,025 312 360 -960
2021-10-17 20:22:04 GMT 50.222603 2.418774 35,100 312 360 -960
2021-10-17 20:22:01 GMT 50.218830 2.425380 35,250 312 361 -960
2021-10-17 20:21:57 GMT 50.215714 2.430942 35,150 312 361 -960
2021-10-17 20:21:55 GMT 50.213379 2.435062 35,175 312 361 -960
2021-10-17 20:21:53 GMT 50.208263 2.444161 35,400 312 362 -960
2021-10-17 20:21:51 GMT 50.208263 2.444161 35,300 312 362 -960
2021-10-17 20:21:48 GMT 50.205612 2.448838 35,325 312 363 -960
2021-10-17 20:21:46 GMT 50.202255 2.454866 35,450 312 363 -960
2021-10-17 20:21:43 GMT 50.199371 2.459926 35,375 312 363 -960
2021-10-17 20:21:40 GMT 50.195976 2.465911 35,425 312 366 -1024
2021-10-17 20:21:37 GMT 50.190853 2.474967 35,500 312 365 -960
2021-10-17 20:21:35 GMT 50.188248 2.479585 35,550 312 365 -960
2021-10-17 20:21:33 GMT 50.188248 2.479585 35,550 312 365 -960
2021-10-17 20:21:31 GMT 50.182663 2.489415 35,625 312 366 -1024
2021-10-17 20:21:28 GMT 50.182663 2.489415 35,625 312 366 -1024
2021-10-17 20:21:26 GMT 50.180332 2.493451 35,650 312 367 -1024
2021-10-17 20:21:23 GMT 50.176983 2.499390 35,700 312 369 -1024
2021-10-17 20:21:21 GMT 50.174839 2.503175 35,750 312 373 -512
2021-10-17 20:21:18 GMT 50.171127 2.509653 35,775 312 369 -960
2021-10-17 20:21:16 GMT 50.169392 2.512677 35,800 312 369 -960
2021-10-17 20:21:13 GMT 50.163300 2.523386 35,875 312 371 -960
2021-10-17 20:21:11 GMT 50.163300 2.523386 35,950 312 373 -512
2021-10-17 20:21:08 GMT 50.159866 2.529313 35,925 312 372 -768
2021-10-17 20:21:05 GMT 50.156265 2.535615 35,975 312 373 -576
2021-10-17 20:21:02 GMT 50.153984 2.539623 36,000 312 374 -256
2021-10-17 20:21:00 GMT 50.150803 2.545142 36,000 312 374 0
2021-10-17 20:20:57 GMT 50.146862 2.552094 36,000 312 374 0
2021-10-17 20:20:54 GMT 50.143707 2.557646 36,000 312 375 0
2021-10-17 20:20:52 GMT 50.139275 2.565456 36,025 312 375 0
2021-10-17 20:20:50 GMT 50.139275 2.565456 36,025 312 376 -256
2021-10-17 20:20:47 GMT 50.136017 2.571098 36,025 312 376 128
2021-10-17 20:20:45 GMT 50.133224 2.576005 36,025 312 376 128
2021-10-17 20:20:42 GMT 50.130287 2.581193 36,025 312 376 -64
2021-10-17 20:20:40 GMT 50.127960 2.585276 36,025 312 377 -128
2021-10-17 20:20:38 GMT 50.124935 2.590546 36,025 312 379 64
2021-10-17 20:20:35 GMT 50.122517 2.594778 36,025 312 379 0
2021-10-17 20:20:32 GMT 50.115719 2.606803 36,025 312 379 0
2021-10-17 20:20:30 GMT 50.113392 2.610960 36,025 312 380 -128
2021-10-17 20:20:27 GMT 50.113392 2.610960 36,025 312 381 0
2021-10-17 20:20:25 GMT 50.109741 2.617348 36,025 312 381 0
2021-10-17 20:20:22 GMT 50.107201 2.621798 36,025 312 381 0
2021-10-17 20:20:20 GMT 50.104843 2.626022 36,025 312 381 0
2021-10-17 20:20:17 GMT 50.100311 2.634044 36,025 312 382 -64
2021-10-17 20:20:14 GMT 50.097519 2.638959 36,025 312 382 0
2021-10-17 20:20:11 GMT 50.094360 2.644525 36,025 312 382 64
2021-10-17 20:20:09 GMT 50.092117 2.648596 36,025 312 382 64
2021-10-17 20:20:06 GMT 50.088718 2.654534 36,000 312 383 0
2021-10-17 20:20:04 GMT 50.086250 2.658840 36,025 312 383 -64
2021-10-17 20:20:01 GMT 50.082642 2.665124 36,025 312 384 -64
2021-10-17 20:19:58 GMT 50.078659 2.672135 36,025 312 385 -128
2021-10-17 20:19:55 GMT 50.075134 2.678351 36,025 312 385 -128
2021-10-17 20:19:52 GMT 50.071678 2.684450 36,050 312 385 -128
2021-10-17 20:19:49 GMT 50.067581 2.691650 36,050 312 386 0
2021-10-17 20:19:46 GMT 50.065769 2.694842 36,050 312 386 0
2021-10-17 20:19:44 GMT 50.062092 2.701226 36,050 312 386 -64
2021-10-17 20:19:41 GMT 50.059528 2.705829 36,050 312 386 0
2021-10-17 20:19:39 GMT 50.056961 2.710298 36,075 312 386 64
2021-10-17 20:19:36 GMT 50.052612 2.717960 36,050 312 386 64
2021-10-17 20:19:34 GMT 50.050827 2.721068 36,050 312 386 64
2021-10-17 20:19:31 GMT 50.047760 2.726489 36,050 312 388 64
2021-10-17 20:19:28 GMT 50.042908 2.735090 36,050 312 388 64
2021-10-17 20:19:25 GMT 50.040161 2.739860 36,050 312 388 0
2021-10-17 20:19:22 GMT 50.036766 2.745765 36,050 312 388 0
2021-10-17 20:19:20 GMT 50.033089 2.752224 36,050 312 390 64
2021-10-17 20:19:17 GMT 50.029907 2.757785 36,050 312 390 64
2021-10-17 20:19:14 GMT 50.027527 2.761977 36,025 312 390 0
2021-10-17 20:19:11 GMT 50.022629 2.770578 36,050 312 391 64
2021-10-17 20:19:08 GMT 50.019516 2.775999 36,050 312 391 0
2021-10-17 20:19:05 GMT 50.016037 2.782071 36,025 312 391 64
2021-10-17 20:19:02 GMT 50.012466 2.788300 36,025 312 391 64
2021-10-17 20:18:59 GMT 50.008942 2.794503 36,025 312 392 64
2021-10-17 20:18:56 GMT 50.005692 2.800140 36,025 312 393 64
2021-10-17 20:18:54 GMT 50.000454 2.809308 36,025 312 393 128
2021-10-17 20:18:52 GMT 50.000454 2.809308 36,000 312 393 128
2021-10-17 20:18:50 GMT 49.998173 2.813317 36,000 312 393 0
2021-10-17 20:18:47 GMT 49.994522 2.819728 36,000 312 394 0
2021-10-17 20:18:45 GMT 49.991364 2.825221 36,000 312 394 0
2021-10-17 20:18:42 GMT 49.988400 2.830390 36,000 312 394 0
2021-10-17 20:18:40 GMT 49.986210 2.834176 36,000 312 394 64
2021-10-17 20:18:37 GMT 49.982113 2.841376 36,025 312 395 -64
2021-10-17 20:18:35 GMT 49.978947 2.846869 36,000 312 395 -64
2021-10-17 20:18:32 GMT 49.975983 2.852036 36,000 312 395 -64
2021-10-17 20:18:29 GMT 49.972153 2.858747 36,025 312 395 -64
2021-10-17 20:18:27 GMT 49.969589 2.863126 36,025 312 395 -64
2021-10-17 20:18:25 GMT 49.968338 2.865336 36,025 312 395 -64
2021-10-17 20:18:22 GMT 49.964310 2.872347 36,025 312 395 -64
2021-10-17 20:18:20 GMT 49.961288 2.877623 36,025 312 395 -64
2021-10-17 20:18:16 GMT 49.956837 2.885322 36,025 312 395 -64
2021-10-17 20:18:14 GMT 49.951080 2.895331 36,025 312 395 0
2021-10-17 20:18:11 GMT 49.947525 2.901578 36,025 312 395 0
2021-10-17 20:18:09 GMT 49.944126 2.907517 36,025 312 395 0
2021-10-17 20:18:06 GMT 49.944126 2.907517 36,025 312 395 0
2021-10-17 20:18:03 GMT 49.941513 2.912100 36,025 312 395 0
2021-10-17 20:18:01 GMT 49.938446 2.917376 36,025 312 395 64
2021-10-17 20:17:58 GMT 49.934967 2.923520 36,025 312 395 0
2021-10-17 20:17:56 GMT 49.932404 2.927929 36,025 312 396 64
2021-10-17 20:17:52 GMT 49.928673 2.934389 36,025 312 396 64
2021-10-17 20:17:50 GMT 49.925720 2.939566 36,025 312 396 64
2021-10-17 20:17:47 GMT 49.922573 2.944930 36,025 312 397 128
2021-10-17 20:17:45 GMT 49.919037 2.951091 36,000 312 397 128
2021-10-17 20:17:43 GMT 49.917297 2.954166 36,000 312 397 128
2021-10-17 20:17:41 GMT 49.913776 2.960222 36,000 312 397 0
2021-10-17 20:17:38 GMT 49.909260 2.968016 36,025 312 398 -128
2021-10-17 20:17:35 GMT 49.906792 2.972247 36,050 312 398 -192
2021-10-17 20:17:32 GMT 49.903114 2.978631 36,050 312 398 0
2021-10-17 20:17:29 GMT 49.899857 2.984234 36,050 312 398 -256
2021-10-17 20:17:26 GMT 49.895016 2.992661 36,050 312 398 0
2021-10-17 20:17:23 GMT 49.892452 2.997115 36,050 312 398 0
2021-10-17 20:17:20 GMT 49.888733 3.003604 36,050 312 398 0
2021-10-17 20:17:17 GMT 49.885098 3.009809 36,050 312 398 0
2021-10-17 20:17:15 GMT 49.882771 3.013891 36,050 312 398 0
2021-10-17 20:17:13 GMT 49.879837 3.018939 36,050 312 398 0
2021-10-17 20:17:09 GMT 49.875324 3.026808 36,050 312 398 0
2021-10-17 20:17:06 GMT 49.871647 3.033192 36,050 312 398 0
2021-10-17 20:17:04 GMT 49.868637 3.038370 36,050 312 398 0
2021-10-17 20:17:00 GMT 49.860443 3.052609 36,050 312 398 -64
2021-10-17 20:16:57 GMT 49.860443 3.052609 36,050 312 398 0
2021-10-17 20:16:55 GMT 49.857449 3.057837 36,050 312 398 0
2021-10-17 20:16:52 GMT 49.854515 3.062959 36,050 312 398 64
2021-10-17 20:16:50 GMT 49.851242 3.068583 36,050 312 398 0
2021-10-17 20:16:47 GMT 49.848175 3.073859 36,050 312 398 0
2021-10-17 20:16:45 GMT 49.844692 3.079883 36,050 312 398 64
2021-10-17 20:16:42 GMT 49.842178 3.084195 36,050 312 398 64
2021-10-17 20:16:39 GMT 49.838547 3.090499 36,050 312 398 0
2021-10-17 20:16:35 GMT 49.833519 3.099184 36,050 312 398 64
2021-10-17 20:16:30 GMT 49.827282 3.109947 36,050 312 398 0
2021-10-17 20:16:28 GMT 49.820984 3.120840 36,050 312 397 64
2021-10-17 20:16:25 GMT 49.820984 3.120840 36,050 312 397 64
2021-10-17 20:16:22 GMT 49.817917 3.126116 36,025 312 397 64
2021-10-17 20:16:20 GMT 49.815353 3.130598 36,025 312 397 64
2021-10-17 20:16:18 GMT 49.812744 3.135007 36,025 312 397 64
2021-10-17 20:16:15 GMT 49.808800 3.141867 36,025 312 397 64
2021-10-17 20:16:12 GMT 49.805649 3.147294 36,025 312 397 64
2021-10-17 20:16:09 GMT 49.800560 3.156045 36,025 312 397 0
2021-10-17 20:16:05 GMT 49.797256 3.161761 36,025 312 396 0
2021-10-17 20:16:03 GMT 49.791687 3.171290 36,025 312 396 0
2021-10-17 20:16:01 GMT 49.791687 3.171290 36,025 312 396 0
2021-10-17 20:15:58 GMT 49.788223 3.177276 36,025 312 396 0
2021-10-17 20:15:55 GMT 49.784454 3.183808 36,025 313 395 64
2021-10-17 20:15:52 GMT 49.780170 3.191157 36,025 313 395 0
2021-10-17 20:15:49 GMT 49.777176 3.196299 36,025 312 395 0
2021-10-17 20:15:46 GMT 49.772816 3.203702 36,025 313 394 0
2021-10-17 20:15:41 GMT 49.768021 3.211983 36,025 313 394 0
2021-10-17 20:15:38 GMT 49.759003 3.227451 36,025 313 394 0
2021-10-17 20:15:35 GMT 49.759003 3.227451 36,025 313 394 0
2021-10-17 20:15:32 GMT 49.757221 3.230500 36,025 313 394 0
2021-10-17 20:15:29 GMT 49.752182 3.239160 36,025 313 393 0
2021-10-17 20:15:26 GMT 49.749023 3.244581 36,025 313 392 0
2021-10-17 20:15:23 GMT 49.744995 3.251375 36,025 313 392 0
2021-10-17 20:15:20 GMT 49.741764 3.256927 36,025 312 391 0
2021-10-17 20:15:16 GMT 49.733803 3.270585 36,025 312 391 0
2021-10-17 20:15:14 GMT 49.733803 3.270585 36,025 312 391 0
2021-10-17 20:15:11 GMT 49.730576 3.276094 36,025 313 390 0
2021-10-17 20:15:08 GMT 49.726456 3.283105 36,025 313 390 0
2021-10-17 20:15:05 GMT 49.719955 3.294308 36,025 312 390 0
2021-10-17 20:15:02 GMT 49.719955 3.294308 36,025 312 390 0
2021-10-17 20:14:59 GMT 49.716904 3.299536 36,025 312 390 0
2021-10-17 20:14:56 GMT 49.708805 3.313343 36,025 312 389 0
2021-10-17 20:14:53 GMT 49.708805 3.313343 36,025 312 389 0
2021-10-17 20:14:51 GMT 49.705765 3.318594 36,025 312 389 0
2021-10-17 20:14:47 GMT 49.701729 3.325517 36,025 312 388 0
2021-10-17 20:14:44 GMT 49.698212 3.331604 36,025 312 388 0
2021-10-17 20:14:41 GMT 49.695026 3.337097 36,025 312 388 0
2021-10-17 20:14:38 GMT 49.690231 3.345263 36,025 312 388 0
2021-10-17 20:14:35 GMT 49.687439 3.350014 36,025 313 388 0
2021-10-17 20:14:32 GMT 49.680641 3.361742 36,025 313 388 0
2021-10-17 20:14:29 GMT 49.676544 3.368720 36,025 313 388 0
2021-10-17 20:14:26 GMT 49.676544 3.368720 36,025 313 388 0
2021-10-17 20:14:23 GMT 49.673126 3.374537 36,025 313 388 0
2021-10-17 20:14:21 GMT 49.670307 3.379335 36,025 312 387 64
2021-10-17 20:14:18 GMT 49.664349 3.389579 36,025 312 387 64
2021-10-17 20:14:15 GMT 49.664349 3.389579 36,025 312 387 64
2021-10-17 20:14:13 GMT 49.661091 3.395072 36,000 313 386 64
2021-10-17 20:14:10 GMT 49.653534 3.408075 36,000 313 386 64
2021-10-17 20:14:07 GMT 49.653534 3.408075 36,000 313 386 0
2021-10-17 20:14:04 GMT 49.651016 3.412339 36,000 313 386 0
2021-10-17 20:14:02 GMT 49.648102 3.417342 36,000 312 385 0
2021-10-17 20:13:59 GMT 49.643600 3.424988 36,000 312 385 0
2021-10-17 20:13:56 GMT 49.641026 3.429442 36,000 312 385 64
2021-10-17 20:13:53 GMT 49.637486 3.435529 36,000 312 385 0
2021-10-17 20:13:50 GMT 49.633484 3.442335 36,000 312 385 0
2021-10-17 20:13:47 GMT 49.629154 3.449781 36,000 312 385 64
2021-10-17 20:13:44 GMT 49.627533 3.452526 36,000 312 384 64
2021-10-17 20:13:41 GMT 49.620300 3.464958 36,000 313 383 128
2021-10-17 20:13:38 GMT 49.620300 3.464958 36,000 313 383 128
2021-10-17 20:13:35 GMT 49.615540 3.473053 35,975 312 383 256
2021-10-17 20:13:32 GMT 49.611931 3.479251 35,975 312 383 256
2021-10-17 20:13:30 GMT 49.606762 3.488159 35,950 313 383 256
2021-10-17 20:13:27 GMT 49.606762 3.488159 35,950 313 383 128
2021-10-17 20:13:24 GMT 49.602806 3.494766 35,950 313 383 -64
2021-10-17 20:13:21 GMT 49.599033 3.501224 35,950 313 382 0
2021-10-17 20:13:18 GMT 49.596058 3.506272 35,950 313 382 0
2021-10-17 20:13:15 GMT 49.591965 3.513168 35,950 313 382 0
2021-10-17 20:13:12 GMT 49.584652 3.525572 35,950 313 382 0
2021-10-17 20:13:09 GMT 49.581528 3.530876 35,950 313 381 0
2021-10-17 20:13:06 GMT 49.577957 3.536875 35,950 313 381 -64
2021-10-17 20:13:03 GMT 49.577957 3.536875 35,950 313 381 -64
2021-10-17 20:13:00 GMT 49.574596 3.542571 35,950 313 381 0
2021-10-17 20:12:56 GMT 49.568638 3.552593 35,950 313 381 0
2021-10-17 20:12:53 GMT 49.562668 3.562678 35,950 313 380 0
2021-10-17 20:12:50 GMT 49.562668 3.562678 35,950 313 380 0
2021-10-17 20:12:46 GMT 49.558441 3.569740 35,950 313 380 0
2021-10-17 20:12:43 GMT 49.554020 3.577089 35,950 313 380 0
2021-10-17 20:12:40 GMT 49.550575 3.582879 35,950 313 380 0
2021-10-17 20:12:36 GMT 49.545361 3.591713 35,950 313 381 -64
2021-10-17 20:12:33 GMT 49.539230 3.601925 35,950 313 381 0
2021-10-17 20:12:30 GMT 49.534096 3.610642 35,975 313 381 0
2021-10-17 20:12:27 GMT 49.534096 3.610642 35,975 313 381 -128
2021-10-17 20:12:24 GMT 49.531208 3.615467 35,975 313 381 -64
2021-10-17 20:12:20 GMT 49.526833 3.622890 35,975 313 382 -64
2021-10-17 20:12:17 GMT 49.523941 3.627801 35,975 313 382 -128
2021-10-17 20:12:15 GMT 49.521194 3.632355 35,975 313 382 -64
2021-10-17 20:12:12 GMT 49.517166 3.639221 35,975 313 382 -64
2021-10-17 20:12:08 GMT 49.512405 3.647244 35,975 313 382 -128
2021-10-17 20:12:05 GMT 49.504852 3.659893 36,000 313 383 -128
2021-10-17 20:12:02 GMT 49.504852 3.659893 36,000 313 384 -64
2021-10-17 20:11:59 GMT 49.502243 3.664302 36,000 313 384 -64
2021-10-17 20:11:56 GMT 49.498482 3.670621 36,000 313 384 -64
2021-10-17 20:11:53 GMT 49.494965 3.676589 36,000 313 384 -64
2021-10-17 20:11:50 GMT 49.491081 3.683092 36,000 313 385 -64
2021-10-17 20:11:47 GMT 49.486610 3.690515 36,025 313 384 -64
2021-10-17 20:11:44 GMT 49.483795 3.695237 36,000 313 384 -64
2021-10-17 20:11:42 GMT 49.482010 3.698273 36,000 313 384 0
2021-10-17 20:11:39 GMT 49.478325 3.704397 36,025 312 386 0
2021-10-17 20:11:35 GMT 49.472412 3.714270 36,025 312 386 0
2021-10-17 20:11:32 GMT 49.468876 3.720431 36,025 310 388 -64
2021-10-17 20:11:29 GMT 49.466537 3.724727 36,025 310 388 -64
2021-10-17 20:11:26 GMT 49.462509 3.732460 36,025 309 388 -64
2021-10-17 20:11:23 GMT 49.459763 3.737954 36,025 307 390 0
2021-10-17 20:11:21 GMT 49.457237 3.743146 36,025 307 390 -64
2021-10-17 20:11:19 GMT 49.455688 3.746338 36,025 307 390 -64
2021-10-17 20:11:16 GMT 49.451477 3.755011 36,025 307 390 0
2021-10-17 20:11:13 GMT 49.448502 3.760938 36,025 307 390 0
2021-10-17 20:11:10 GMT 49.445740 3.766603 36,025 307 391 0
2021-10-17 20:11:07 GMT 49.441040 3.776261 36,025 308 392 0
2021-10-17 20:11:04 GMT 49.438663 3.781004 36,025 308 392 0
2021-10-17 20:11:01 GMT 49.435318 3.787753 36,025 308 393 0
2021-10-17 20:10:58 GMT 49.433029 3.792379 36,025 308 393 0
2021-10-17 20:10:55 GMT 49.425385 3.807608 36,025 308 393 -64
2021-10-17 20:10:52 GMT 49.425385 3.807608 36,050 308 394 -64
2021-10-17 20:10:49 GMT 49.422230 3.813918 36,000 309 400 64
2021-10-17 20:10:46 GMT 49.418785 3.820785 36,050 308 395 -128
2021-10-17 20:10:43 GMT 49.412521 3.833313 36,050 308 395 -128
2021-10-17 20:10:40 GMT 49.412521 3.833313 36,050 308 395 -64
2021-10-17 20:10:37 GMT 49.409088 3.840215 36,050 308 395 -64
2021-10-17 20:10:34 GMT 49.405060 3.848243 36,050 308 395 64
2021-10-17 20:10:31 GMT 49.402496 3.853314 36,050 308 396 -64
2021-10-17 20:10:28 GMT 49.399651 3.858948 36,050 308 396 -64
2021-10-17 20:10:25 GMT 49.395088 3.868055 36,050 308 397 0
2021-10-17 20:10:22 GMT 49.392715 3.872753 36,050 308 397 -64
2021-10-17 20:10:19 GMT 49.382263 3.893527 36,050 308 397 0
2021-10-17 20:10:14 GMT 49.382263 3.893527 36,050 308 398 0
2021-10-17 20:10:11 GMT 49.380020 3.898034 36,025 308 399 64
2021-10-17 20:10:08 GMT 49.376724 3.904442 36,050 308 399 64
2021-10-17 20:10:05 GMT 49.373566 3.910710 36,050 308 399 64
2021-10-17 20:10:02 GMT 49.370232 3.917276 36,050 308 399 64
2021-10-17 20:09:58 GMT 49.365646 3.926274 36,025 309 401 64
2021-10-17 20:09:54 GMT 49.360840 3.935570 36,050 309 400 64
2021-10-17 20:09:51 GMT 49.357101 3.942791 36,050 309 400 64
2021-10-17 20:09:48 GMT 49.354065 3.948669 36,025 309 401 64
2021-10-17 20:09:44 GMT 49.345699 3.964763 36,025 309 400 64
2021-10-17 20:09:41 GMT 49.345699 3.964763 36,025 309 401 64
2021-10-17 20:09:38 GMT 49.341087 3.973581 36,025 309 401 64
2021-10-17 20:09:35 GMT 49.338669 3.978280 36,025 309 401 64
2021-10-17 20:09:32 GMT 49.335411 3.984495 36,025 309 401 64
2021-10-17 20:09:29 GMT 49.331726 3.991418 36,025 309 401 64
2021-10-17 20:09:26 GMT 49.328384 3.997826 36,000 309 402 64
2021-10-17 20:09:23 GMT 49.325455 4.003390 36,000 309 402 64
2021-10-17 20:09:21 GMT 49.321838 4.010221 36,000 310 403 0
2021-10-17 20:09:18 GMT 49.319504 4.014658 36,000 310 403 0
2021-10-17 20:09:15 GMT 49.315346 4.022514 36,000 310 402 64
2021-10-17 20:09:12 GMT 49.311901 4.028874 36,000 310 402 -64
2021-10-17 20:09:09 GMT 49.307339 4.037476 36,000 310 402 64
2021-10-17 20:09:06 GMT 49.303711 4.044166 36,000 310 403 -64
2021-10-17 20:09:02 GMT 49.299519 4.052004 36,000 310 402 -64
2021-10-17 20:08:59 GMT 49.296448 4.057714 36,000 310 402 -64
2021-10-17 20:08:56 GMT 49.289337 4.071068 36,000 310 402 -64
2021-10-17 20:08:53 GMT 49.289337 4.071068 36,000 310 402 -64
2021-10-17 20:08:50 GMT 49.285740 4.077735 36,000 310 402 -64
2021-10-17 20:08:47 GMT 49.282806 4.083300 36,025 310 402 -64
2021-10-17 20:08:44 GMT 49.279770 4.088886 36,025 310 402 0
2021-10-17 20:08:41 GMT 49.275356 4.097105 36,025 310 402 0
2021-10-17 20:08:38 GMT 49.272903 4.101562 36,025 310 402 0
2021-10-17 20:08:36 GMT 49.269215 4.108453 36,025 310 402 0
2021-10-17 20:08:33 GMT 49.266933 4.112645 36,025 310 402 0
2021-10-17 20:08:30 GMT 49.261414 4.122831 36,025 310 402 0
2021-10-17 20:08:27 GMT 49.258877 4.127535 36,025 310 402 0
2021-10-17 20:08:24 GMT 49.255295 4.134040 36,000 311 402 0
2021-10-17 20:08:20 GMT 49.250702 4.142480 36,000 311 402 0
2021-10-17 20:08:17 GMT 49.244614 4.153536 36,000 311 403 0
2021-10-17 20:08:15 GMT 49.244614 4.153536 36,000 311 402 0
2021-10-17 20:08:12 GMT 49.240997 4.160015 36,000 311 402 0
2021-10-17 20:08:09 GMT 49.237556 4.166204 36,000 311 403 0
2021-10-17 20:08:06 GMT 49.229645 4.180515 36,000 311 403 0
2021-10-17 20:08:03 GMT 49.229645 4.180515 36,000 311 403 0
2021-10-17 20:07:59 GMT 49.225082 4.188754 36,000 311 403 0
2021-10-17 20:07:55 GMT 49.220490 4.197129 36,000 311 403 0
2021-10-17 20:07:52 GMT 49.216843 4.203788 36,000 311 403 0
2021-10-17 20:07:49 GMT 49.211838 4.212764 36,000 311 403 0
2021-10-17 20:07:45 GMT 49.208790 4.218316 36,000 311 402 0
2021-10-17 20:07:42 GMT 49.205475 4.224243 36,000 311 402 0
2021-10-17 20:07:39 GMT 49.197430 4.238554 36,000 311 402 0
2021-10-17 20:07:36 GMT 49.197430 4.238554 36,000 311 402 0
2021-10-17 20:07:33 GMT 49.189701 4.252359 36,000 311 402 0
2021-10-17 20:07:30 GMT 49.189701 4.252359 36,000 311 402 0
2021-10-17 20:07:27 GMT 49.183884 4.262695 36,000 311 402 0
2021-10-17 20:07:24 GMT 49.183884 4.262695 36,000 311 402 0
2021-10-17 20:07:21 GMT 49.179474 4.270583 36,000 311 402 0
2021-10-17 20:07:18 GMT 49.175877 4.276934 36,000 311 402 64
2021-10-17 20:07:15 GMT 49.172382 4.283150 36,000 311 402 64
2021-10-17 20:07:12 GMT 49.168659 4.289800 36,000 311 401 0
2021-10-17 20:07:09 GMT 49.163910 4.298330 36,000 311 402 64
2021-10-17 20:07:06 GMT 49.157867 4.309106 36,000 311 401 0
2021-10-17 20:07:03 GMT 49.157867 4.309106 36,000 311 402 0
2021-10-17 20:07:00 GMT 49.150085 4.322903 36,000 311 401 0
2021-10-17 20:06:57 GMT 49.150085 4.322903 36,000 311 401 0
2021-10-17 20:06:54 GMT 49.146919 4.328469 36,000 311 401 0
2021-10-17 20:06:51 GMT 49.143661 4.334251 36,000 311 401 0
2021-10-17 20:06:48 GMT 49.139511 4.341642 36,000 311 401 0
2021-10-17 20:06:45 GMT 49.135895 4.348051 36,000 311 401 0
2021-10-17 20:06:42 GMT 49.132233 4.354459 36,000 311 401 0
2021-10-17 20:06:38 GMT 49.126694 4.364319 36,000 311 401 0
2021-10-17 20:06:35 GMT 49.123901 4.369178 36,000 311 401 0
2021-10-17 20:06:32 GMT 49.120972 4.374319 36,000 311 401 0
2021-10-17 20:06:29 GMT 49.116707 4.381883 36,000 311 401 0
2021-10-17 20:06:26 GMT 49.112938 4.388532 36,000 311 400 0
2021-10-17 20:06:23 GMT 49.109253 4.395024 36,000 311 400 -64
2021-10-17 20:06:20 GMT 49.106094 4.400588 36,000 311 400 0
2021-10-17 20:06:15 GMT 49.099995 4.411372 36,000 311 400 0
2021-10-17 20:06:12 GMT 49.096504 4.417588 36,000 311 401 0
2021-10-17 20:06:09 GMT 49.089066 4.430659 36,000 311 401 0
2021-10-17 20:06:06 GMT 49.089066 4.430659 36,000 311 401 0
2021-10-17 20:06:03 GMT 49.086075 4.435875 36,000 312 400 0
2021-10-17 20:06:00 GMT 49.081932 4.443102 36,000 312 400 0
2021-10-17 20:05:57 GMT 49.077026 4.451716 36,000 312 400 0
2021-10-17 20:05:54 GMT 49.074600 4.455942 36,000 312 400 0
2021-10-17 20:05:51 GMT 49.070023 4.464041 36,000 312 400 0
2021-10-17 20:05:49 GMT 49.067688 4.468055 36,000 312 400 64
2021-10-17 20:05:46 GMT 49.064709 4.473243 36,000 312 401 0
2021-10-17 20:05:43 GMT 49.060940 4.479820 36,000 312 401 64
2021-10-17 20:05:40 GMT 49.057251 4.486295 36,000 312 400 0
2021-10-17 20:05:36 GMT 49.051483 4.496225 36,000 312 400 0
2021-10-17 20:05:33 GMT 49.044434 4.508479 36,000 312 400 64
2021-10-17 20:05:30 GMT 49.044434 4.508479 36,000 312 401 64
2021-10-17 20:05:27 GMT 49.042007 4.512705 36,000 312 401 64
2021-10-17 20:05:24 GMT 49.038033 4.519573 36,000 312 401 0
2021-10-17 20:05:21 GMT 49.034821 4.525066 36,000 312 401 0
2021-10-17 20:05:18 GMT 49.029469 4.534390 36,000 312 401 0
2021-10-17 20:05:15 GMT 49.027142 4.538365 36,000 312 400 0
2021-10-17 20:05:12 GMT 49.022644 4.546086 36,000 312 400 0
2021-10-17 20:05:09 GMT 49.020218 4.550312 36,000 312 400 0
2021-10-17 20:05:06 GMT 49.016052 4.557495 36,000 312 400 0
2021-10-17 20:05:03 GMT 49.011593 4.565181 36,000 312 400 0
2021-10-17 20:04:59 GMT 49.007404 4.572336 36,000 312 400 0
2021-10-17 20:04:55 GMT 48.998978 4.586864 36,000 312 400 0
2021-10-17 20:04:52 GMT 48.994034 4.595384 36,000 312 400 0
2021-10-17 20:04:49 GMT 48.994034 4.595384 36,000 312 400 0
2021-10-17 20:04:46 GMT 48.990829 4.600807 36,000 312 400 0
2021-10-17 20:04:43 GMT 48.987030 4.607356 36,000 312 400 0
2021-10-17 20:04:39 GMT 48.982773 4.614680 36,000 312 400 0
2021-10-17 20:04:37 GMT 48.981102 4.617510 36,000 312 400 0
2021-10-17 20:04:34 GMT 48.976677 4.625100 36,000 312 400 0
2021-10-17 20:04:31 GMT 48.971603 4.633836 36,000 312 400 0
2021-10-17 20:04:28 GMT 48.966110 4.643097 36,000 312 400 0
2021-10-17 20:04:25 GMT 48.966110 4.643097 36,000 313 400 0
2021-10-17 20:04:22 GMT 48.961990 4.650175 36,000 312 400 0
2021-10-17 20:04:19 GMT 48.958832 4.655597 35,975 312 400 0
2021-10-17 20:04:16 GMT 48.953728 4.664275 36,000 312 399 0
2021-10-17 20:04:13 GMT 48.949398 4.671647 35,975 312 400 0
2021-10-17 20:04:10 GMT 48.946884 4.675880 35,975 312 400 0
2021-10-17 20:04:07 GMT 48.943176 4.682148 35,975 312 399 0
2021-10-17 20:04:04 GMT 48.935898 4.694472 35,975 313 400 0
2021-10-17 20:04:01 GMT 48.935898 4.694472 35,975 313 400 0
2021-10-17 20:03:58 GMT 48.931320 4.702148 35,975 313 399 0
2021-10-17 20:03:55 GMT 48.928940 4.706092 35,975 313 399 0
2021-10-17 20:03:52 GMT 48.919006 4.722713 35,975 313 399 0
2021-10-17 20:03:47 GMT 48.914795 4.729685 35,975 313 399 0
2021-10-17 20:03:44 GMT 48.914795 4.729685 35,975 313 399 0
2021-10-17 20:03:41 GMT 48.911224 4.735613 35,975 313 399 0
2021-10-17 20:03:37 GMT 48.905128 4.745732 35,975 313 399 0
2021-10-17 20:03:33 GMT 48.900696 4.753066 35,975 313 399 0
2021-10-17 20:03:30 GMT 48.897446 4.758418 35,975 313 399 0
2021-10-17 20:03:27 GMT 48.893536 4.764958 35,975 313 399 0
2021-10-17 20:03:24 GMT 48.886879 4.775872 35,975 313 399 0
2021-10-17 20:03:21 GMT 48.886879 4.775872 35,975 313 399 0
2021-10-17 20:03:16 GMT 48.880409 4.786570 35,975 313 400 0
2021-10-17 20:03:13 GMT 48.876434 4.793067 35,975 313 400 0
2021-10-17 20:03:10 GMT 48.872818 4.798983 35,975 313 400 0
2021-10-17 20:03:07 GMT 48.869095 4.805073 35,975 313 400 0
2021-10-17 20:03:03 GMT 48.860275 4.819618 35,975 313 400 -64
2021-10-17 20:03:00 GMT 48.860275 4.819618 36,000 313 400 -64
2021-10-17 20:02:57 GMT 48.855782 4.826901 36,000 313 401 -64
2021-10-17 20:02:54 GMT 48.852585 4.832153 36,000 313 400 -64
2021-10-17 20:02:51 GMT 48.848282 4.839125 36,000 313 400 0
2021-10-17 20:02:48 GMT 48.845074 4.844320 36,000 313 400 0
2021-10-17 20:02:45 GMT 48.841370 4.850393 36,000 313 399 64
2021-10-17 20:02:42 GMT 48.837204 4.857154 36,000 313 399 0
2021-10-17 20:02:39 GMT 48.832581 4.864760 36,000 313 399 -64
2021-10-17 20:02:35 GMT 48.827850 4.872437 36,000 313 399 64
2021-10-17 20:02:32 GMT 48.824524 4.877859 36,000 313 400 0
2021-10-17 20:02:29 GMT 48.820496 4.884409 36,000 314 401 0
2021-10-17 20:02:26 GMT 48.816742 4.890606 36,000 314 401 0
2021-10-17 20:02:23 GMT 48.812210 4.898001 36,000 313 401 0
2021-10-17 20:02:20 GMT 48.809555 4.902297 36,000 313 401 0
2021-10-17 20:02:18 GMT 48.807312 4.905959 36,000 313 401 0
2021-10-17 20:02:15 GMT 48.803085 4.912840 36,000 313 401 0
2021-10-17 20:02:12 GMT 48.794613 4.926645 36,000 313 401 0
2021-10-17 20:02:09 GMT 48.794613 4.926645 36,025 313 401 0
2021-10-17 20:02:06 GMT 48.792664 4.929763 36,025 313 401 0
2021-10-17 20:02:03 GMT 48.787395 4.938282 36,025 314 401 0
2021-10-17 20:02:00 GMT 48.783485 4.944643 36,000 314 401 0
2021-10-17 20:01:57 GMT 48.779949 4.950425 36,000 314 402 0
2021-10-17 20:01:54 GMT 48.775589 4.957440 36,025 314 401 0
2021-10-17 20:01:51 GMT 48.772827 4.961845 36,000 314 401 0
2021-10-17 20:01:48 GMT 48.768951 4.968144 36,000 314 401 0
2021-10-17 20:01:45 GMT 48.765331 4.973916 36,000 314 402 0
2021-10-17 20:01:42 GMT 48.762222 4.978919 36,000 314 402 0
2021-10-17 20:01:39 GMT 48.757603 4.986420 36,000 314 402 0
2021-10-17 20:01:36 GMT 48.753845 4.992441 36,000 314 402 0
2021-10-17 20:01:33 GMT 48.750916 4.997160 36,000 314 402 0
2021-10-17 20:01:30 GMT 48.744709 5.007091 36,000 314 402 0
2021-10-17 20:01:27 GMT 48.742081 5.011315 36,000 314 402 0
2021-10-17 20:01:24 GMT 48.738842 5.016488 36,000 314 403 0
2021-10-17 20:01:21 GMT 48.733521 5.024977 36,000 314 403 0
2021-10-17 20:01:18 GMT 48.730728 5.029485 36,000 314 403 0
2021-10-17 20:01:15 GMT 48.726654 5.036034 36,000 314 403 0
2021-10-17 20:01:11 GMT 48.720825 5.045399 36,000 314 403 0
2021-10-17 20:01:08 GMT 48.718048 5.049767 36,000 314 403 0
2021-10-17 20:01:05 GMT 48.712727 5.058264 36,000 314 403 0
2021-10-17 20:01:02 GMT 48.709515 5.063396 36,000 314 403 0
2021-10-17 20:00:59 GMT 48.706512 5.068148 36,000 314 404 0
2021-10-17 20:00:56 GMT 48.702484 5.074599 36,000 314 403 0
2021-10-17 20:00:53 GMT 48.698685 5.080613 36,000 314 403 0
2021-10-17 20:00:50 GMT 48.694931 5.086529 36,000 314 403 0
2021-10-17 20:00:47 GMT 48.691639 5.091729 36,000 314 404 0
2021-10-17 20:00:44 GMT 48.687698 5.097938 36,000 314 404 0
2021-10-17 20:00:41 GMT 48.683121 5.105173 36,000 312 403 -64
2021-10-17 20:00:38 GMT 48.680050 5.110016 36,000 314 403 0
2021-10-17 20:00:35 GMT 48.676277 5.115943 36,000 312 403 0
2021-10-17 20:00:32 GMT 48.671722 5.123221 36,000 314 404 0
2021-10-17 20:00:29 GMT 48.667740 5.129488 36,000 314 403 0
2021-10-17 20:00:26 GMT 48.662636 5.137626 36,000 313 403 0
2021-10-17 20:00:23 GMT 48.659843 5.142108 36,000 313 403 0
2021-10-17 20:00:20 GMT 48.655518 5.149278 36,000 312 403 -64
2021-10-17 20:00:17 GMT 48.653095 5.153455 36,000 312 403 -64
2021-10-17 20:00:14 GMT 48.649368 5.160033 36,000 306 401 -64
2021-10-17 20:00:11 GMT 48.644714 5.168778 36,000 307 401 -64
2021-10-17 20:00:08 GMT 48.642014 5.174127 36,000 306 401 -64
2021-10-17 20:00:05 GMT 48.638710 5.180921 36,025 305 401 -64
2021-10-17 20:00:02 GMT 48.634892 5.189161 36,025 303 400 -64
2021-10-17 19:59:59 GMT 48.629818 5.200870 36,025 303 400 -64
2021-10-17 19:59:56 GMT 48.629818 5.200870 36,025 303 401 -64
2021-10-17 19:59:53 GMT 48.625629 5.210700 36,025 303 401 -64
2021-10-17 19:59:49 GMT 48.622238 5.218576 36,025 303 401 -64
2021-10-17 19:59:46 GMT 48.618786 5.226673 36,025 304 402 64
2021-10-17 19:59:43 GMT 48.616692 5.231588 36,025 304 402 64
2021-10-17 19:59:40 GMT 48.610199 5.246746 36,025 303 401 64
2021-10-17 19:59:37 GMT 48.607269 5.253578 36,025 303 401 64
2021-10-17 19:59:34 GMT 48.607269 5.253578 36,025 304 401 64
2021-10-17 19:59:31 GMT 48.604633 5.259777 36,025 303 401 64
2021-10-17 19:59:28 GMT 48.601608 5.266788 36,025 304 401 64
2021-10-17 19:59:25 GMT 48.599186 5.272426 36,025 304 402 64
2021-10-17 19:59:22 GMT 48.591740 5.289556 36,000 304 402 64
2021-10-17 19:59:19 GMT 48.589188 5.295551 36,000 304 402 64
2021-10-17 19:59:17 GMT 48.589188 5.295551 36,000 304 402 64
2021-10-17 19:59:14 GMT 48.587082 5.300325 36,000 304 403 0
2021-10-17 19:59:11 GMT 48.583916 5.307625 36,000 304 403 0
2021-10-17 19:59:08 GMT 48.581078 5.314203 36,000 304 403 0
2021-10-17 19:59:05 GMT 48.577911 5.321430 36,000 304 402 0
2021-10-17 19:59:02 GMT 48.575352 5.327285 36,000 304 402 0
2021-10-17 19:58:59 GMT 48.571396 5.336103 36,000 305 403 64
2021-10-17 19:58:56 GMT 48.568222 5.343158 36,000 305 402 0
2021-10-17 19:58:53 GMT 48.565521 5.348933 36,000 307 403 0
2021-10-17 19:58:50 GMT 48.562500 5.355272 36,000 307 403 0
2021-10-17 19:58:47 GMT 48.559479 5.361399 36,000 308 403 0
2021-10-17 19:58:44 GMT 48.550957 5.377880 36,000 309 404 0
2021-10-17 19:58:40 GMT 48.550957 5.377880 36,000 311 404 0
2021-10-17 19:58:37 GMT 48.546814 5.385541 36,000 311 404 0
2021-10-17 19:58:34 GMT 48.540253 5.397245 36,000 311 404 0
2021-10-17 19:58:31 GMT 48.540253 5.397245 36,000 312 404 0
2021-10-17 19:58:28 GMT 48.535446 5.405485 36,000 312 404 -64
2021-10-17 19:58:24 GMT 48.530521 5.414091 36,000 312 404 0
2021-10-17 19:58:21 GMT 48.528580 5.417387 36,000 312 404 0
2021-10-17 19:58:18 GMT 48.523491 5.426162 36,000 312 404 0
2021-10-17 19:58:15 GMT 48.520752 5.430979 36,000 312 404 0
2021-10-17 19:58:12 GMT 48.515533 5.439967 36,000 312 404 0
2021-10-17 19:58:07 GMT 48.509308 5.450627 36,000 312 404 0
2021-10-17 19:58:04 GMT 48.502579 5.462318 36,000 312 404 0
2021-10-17 19:58:01 GMT 48.502579 5.462318 36,000 312 404 0
2021-10-17 19:57:58 GMT 48.499798 5.467072 36,000 312 404 0
2021-10-17 19:57:55 GMT 48.491558 5.481238 36,000 312 403 0
2021-10-17 19:57:52 GMT 48.491558 5.481238 36,000 312 403 0
2021-10-17 19:57:48 GMT 48.487198 5.488727 36,000 312 403 0
2021-10-17 19:57:46 GMT 48.484573 5.493309 36,000 312 403 0
2021-10-17 19:57:42 GMT 48.478592 5.503517 36,000 312 403 64
2021-10-17 19:57:39 GMT 48.471085 5.516404 36,000 312 403 0
2021-10-17 19:57:36 GMT 48.471085 5.516404 36,000 312 403 0
2021-10-17 19:57:32 GMT 48.467861 5.522003 36,000 312 403 0
2021-10-17 19:57:28 GMT 48.462696 5.530893 36,000 312 403 0
2021-10-17 19:57:26 GMT 48.460835 5.534074 36,000 312 403 0
2021-10-17 19:57:23 GMT 48.455666 5.542964 36,000 312 403 64
2021-10-17 19:57:19 GMT 48.451523 5.550120 36,000 312 403 0
2021-10-17 19:57:16 GMT 48.445099 5.561106 36,000 312 403 64
2021-10-17 19:57:13 GMT 48.445099 5.561106 36,000 312 404 64
2021-10-17 19:57:10 GMT 48.440071 5.569779 36,000 312 404 0
2021-10-17 19:57:07 GMT 48.437603 5.573971 36,000 312 404 0
2021-10-17 19:57:04 GMT 48.433090 5.581689 36,000 312 404 0
2021-10-17 19:57:01 GMT 48.429085 5.588572 36,000 312 404 0
2021-10-17 19:56:57 GMT 48.424664 5.596161 36,000 312 404 0
2021-10-17 19:56:54 GMT 48.420238 5.603750 36,000 312 404 0
2021-10-17 19:56:51 GMT 48.417572 5.608309 36,000 312 404 0
2021-10-17 19:56:48 GMT 48.412994 5.616056 36,000 312 404 0
2021-10-17 19:56:46 GMT 48.411209 5.619145 36,000 312 404 0
2021-10-17 19:56:43 GMT 48.407593 5.625352 36,000 312 403 0
2021-10-17 19:56:40 GMT 48.403290 5.632676 36,000 312 404 0
2021-10-17 19:56:37 GMT 48.400223 5.637958 36,000 312 403 0
2021-10-17 19:56:34 GMT 48.396652 5.644085 36,000 312 403 0
2021-10-17 19:56:31 GMT 48.390976 5.653733 36,000 312 403 0
2021-10-17 19:56:28 GMT 48.388550 5.657959 36,000 312 403 0
2021-10-17 19:56:25 GMT 48.386116 5.662079 36,000 312 403 0
2021-10-17 19:56:22 GMT 48.381229 5.670463 36,000 312 403 0
2021-10-17 19:56:19 GMT 48.377644 5.676607 36,000 312 403 0
2021-10-17 19:56:16 GMT 48.375317 5.680582 36,000 312 403 0
2021-10-17 19:56:14 GMT 48.368286 5.692580 36,000 312 403 0
2021-10-17 19:56:11 GMT 48.368286 5.692580 36,000 312 403 0
2021-10-17 19:56:08 GMT 48.363491 5.700748 36,000 312 403 0
2021-10-17 19:56:05 GMT 48.360855 5.705285 36,000 312 402 -64
2021-10-17 19:56:02 GMT 48.357117 5.711662 36,000 312 403 0
2021-10-17 19:55:59 GMT 48.353256 5.718313 36,000 312 403 0
2021-10-17 19:55:54 GMT 48.347153 5.728720 36,000 312 403 0
2021-10-17 19:55:51 GMT 48.343567 5.734791 36,000 312 403 0
2021-10-17 19:55:48 GMT 48.340576 5.739934 36,000 312 403 0
2021-10-17 19:55:45 GMT 48.336136 5.747469 36,000 312 403 0
2021-10-17 19:55:42 GMT 48.328629 5.760287 36,000 312 403 0
2021-10-17 19:55:39 GMT 48.328629 5.760287 36,000 312 402 0
2021-10-17 19:55:36 GMT 48.324760 5.766883 36,000 312 403 0
2021-10-17 19:55:33 GMT 48.321175 5.772954 36,000 312 403 0
2021-10-17 19:55:30 GMT 48.318192 5.778034 36,000 312 403 0
2021-10-17 19:55:27 GMT 48.308746 5.794059 36,000 312 403 0
2021-10-17 19:55:24 GMT 48.308746 5.794059 36,000 312 403 0
2021-10-17 19:55:20 GMT 48.301113 5.807069 36,000 312 402 0
2021-10-17 19:55:16 GMT 48.301113 5.807069 36,000 312 402 0
2021-10-17 19:55:13 GMT 48.295395 5.816768 36,000 312 403 0
2021-10-17 19:55:09 GMT 48.291801 5.822971 36,000 312 402 0
2021-10-17 19:55:06 GMT 48.283356 5.837332 36,000 312 402 0
2021-10-17 19:55:03 GMT 48.283356 5.837332 36,000 312 402 0
2021-10-17 19:55:00 GMT 48.281021 5.841276 36,000 312 402 0
2021-10-17 19:54:57 GMT 48.276489 5.849022 36,000 312 402 0
2021-10-17 19:54:55 GMT 48.273880 5.853389 36,000 312 402 0
2021-10-17 19:54:52 GMT 48.269272 5.861278 36,000 312 402 64
2021-10-17 19:54:49 GMT 48.266785 5.865502 36,000 312 402 64
2021-10-17 19:54:46 GMT 48.262344 5.873037 36,000 312 403 64
2021-10-17 19:54:43 GMT 48.259682 5.877541 36,000 312 403 64
2021-10-17 19:54:40 GMT 48.255798 5.884165 35,975 312 403 64
2021-10-17 19:54:37 GMT 48.252228 5.890221 35,975 312 403 0
2021-10-17 19:54:34 GMT 48.248062 5.897264 35,975 312 403 0
2021-10-17 19:54:31 GMT 48.244720 5.902968 36,000 312 402 0
2021-10-17 19:54:28 GMT 48.241104 5.909127 35,975 312 403 0
2021-10-17 19:54:25 GMT 48.237522 5.915198 36,000 312 403 0
2021-10-17 19:54:21 GMT 48.232452 5.923884 36,000 312 403 0
2021-10-17 19:54:18 GMT 48.228882 5.929941 36,000 312 403 0
2021-10-17 19:54:15 GMT 48.225094 5.936303 36,000 312 402 0
2021-10-17 19:54:12 GMT 48.221466 5.942406 36,000 312 402 0
2021-10-17 19:54:09 GMT 48.217438 5.949308 36,000 312 402 0
2021-10-17 19:54:06 GMT 48.212803 5.957120 36,000 312 402 0
2021-10-17 19:54:03 GMT 48.210335 5.961312 36,000 312 402 0
2021-10-17 19:54:00 GMT 48.206146 5.968395 36,000 312 402 0
2021-10-17 19:53:56 GMT 48.201782 5.975788 36,000 312 402 0
2021-10-17 19:53:53 GMT 48.197906 5.982345 36,000 312 403 0
2021-10-17 19:53:50 GMT 48.194229 5.988633 36,000 312 402 0
2021-10-17 19:53:47 GMT 48.190979 5.994098 36,000 312 402 0
2021-10-17 19:53:44 GMT 48.186222 6.002149 36,000 312 402 -64
2021-10-17 19:53:41 GMT 48.183334 6.007057 36,000 312 402 -64
2021-10-17 19:53:38 GMT 48.179470 6.013569 36,000 312 402 -64
2021-10-17 19:53:35 GMT 48.175747 6.019785 36,000 312 402 -64
2021-10-17 19:53:32 GMT 48.172024 6.026001 36,025 312 402 -64
2021-10-17 19:53:29 GMT 48.168716 6.031639 36,000 312 402 -64
2021-10-17 19:53:26 GMT 48.164852 6.038071 36,000 312 402 -64
2021-10-17 19:53:24 GMT 48.162689 6.041706 36,000 312 402 -64
2021-10-17 19:53:21 GMT 48.157745 6.049965 36,025 312 402 -64
2021-10-17 19:53:18 GMT 48.155136 6.054291 36,025 312 402 -64
2021-10-17 19:53:15 GMT 48.151867 6.059805 36,025 312 402 -64
2021-10-17 19:53:13 GMT 48.149536 6.063678 36,025 312 402 0
2021-10-17 19:53:10 GMT 48.144150 6.072693 36,025 312 402 0
2021-10-17 19:53:07 GMT 48.138428 6.082237 36,025 312 402 0
2021-10-17 19:53:04 GMT 48.138428 6.082237 36,025 312 402 0
2021-10-17 19:53:01 GMT 48.134781 6.088327 36,025 312 402 0
2021-10-17 19:52:58 GMT 48.129501 6.097137 36,025 312 402 0
2021-10-17 19:52:55 GMT 48.126354 6.102412 36,025 312 402 0
2021-10-17 19:52:52 GMT 48.122723 6.108398 36,025 312 403 0
2021-10-17 19:52:49 GMT 48.114902 6.121427 36,025 312 403 0
2021-10-17 19:52:46 GMT 48.110092 6.129341 36,025 312 403 0
2021-10-17 19:52:42 GMT 48.110092 6.129341 36,025 313 403 0
2021-10-17 19:52:39 GMT 48.106293 6.135653 36,025 313 403 0
2021-10-17 19:52:36 GMT 48.102428 6.142062 36,025 313 403 0
2021-10-17 19:52:32 GMT 48.096451 6.151794 36,025 313 403 0
2021-10-17 19:52:29 GMT 48.094002 6.155865 36,025 313 403 0
2021-10-17 19:52:26 GMT 48.090408 6.161682 36,025 313 404 64
2021-10-17 19:52:23 GMT 48.086460 6.168189 36,025 313 403 64
2021-10-17 19:52:20 GMT 48.082687 6.174316 36,000 313 404 64
2021-10-17 19:52:17 GMT 48.075760 6.185440 36,000 313 403 64
2021-10-17 19:52:11 GMT 48.067558 6.198965 36,000 312 404 64
2021-10-17 19:52:08 GMT 48.067558 6.198965 36,000 311 403 64
2021-10-17 19:52:05 GMT 48.062988 6.207138 36,000 308 402 0
2021-10-17 19:52:01 GMT 48.059692 6.213684 36,000 303 400 -64
2021-10-17 19:51:58 GMT 48.055454 6.223121 36,000 301 399 -64
2021-10-17 19:51:55 GMT 48.053501 6.228051 36,000 300 399 -64
2021-10-17 19:51:53 GMT 48.051174 6.234319 36,000 297 399 -64
2021-10-17 19:51:49 GMT 48.048340 6.242844 36,000 295 398 0
2021-10-17 19:51:46 GMT 48.045273 6.252800 36,000 295 397 0
2021-10-17 19:51:43 GMT 48.043716 6.258018 36,000 295 397 0
2021-10-17 19:51:40 GMT 48.041908 6.264179 36,000 295 397 0
2021-10-17 19:51:37 GMT 48.039597 6.271820 36,000 295 397 0
2021-10-17 19:51:34 GMT 48.037487 6.278968 36,000 295 397 0
2021-10-17 19:51:31 GMT 48.034836 6.287819 36,000 295 397 0
2021-10-17 19:51:28 GMT 48.029572 6.305328 36,000 295 397 0
2021-10-17 19:51:24 GMT 48.029572 6.305328 36,000 295 397 0
2021-10-17 19:51:21 GMT 48.027191 6.313362 36,000 295 397 0
2021-10-17 19:51:18 GMT 48.025223 6.319885 36,000 295 397 0
2021-10-17 19:51:15 GMT 48.020168 6.336717 36,000 295 397 0
2021-10-17 19:51:12 GMT 48.020168 6.336717 36,000 295 397 0
2021-10-17 19:51:09 GMT 48.017750 6.344745 36,000 295 397 0
2021-10-17 19:51:05 GMT 48.014862 6.354464 36,000 295 397 0
2021-10-17 19:51:02 GMT 48.013000 6.360603 36,000 295 397 0
2021-10-17 19:50:59 GMT 48.009975 6.370732 36,000 295 397 0
2021-10-17 19:50:56 GMT 48.006298 6.382986 36,000 295 397 0
2021-10-17 19:50:53 GMT 48.006298 6.382986 36,000 295 397 0
2021-10-17 19:50:49 GMT 48.003067 6.393562 36,000 295 397 0
2021-10-17 19:50:46 GMT 48.001144 6.400085 36,000 295 397 0
2021-10-17 19:50:43 GMT 47.998104 6.410170 36,000 295 397 0
2021-10-17 19:50:40 GMT 47.995697 6.418007 36,000 295 397 0
2021-10-17 19:50:37 GMT 47.991680 6.431368 36,000 295 397 0
2021-10-17 19:50:34 GMT 47.991680 6.431368 36,000 295 397 0
2021-10-17 19:50:31 GMT 47.987862 6.444115 36,000 295 397 0
2021-10-17 19:50:28 GMT 47.987862 6.444115 36,000 295 397 0
2021-10-17 19:50:25 GMT 47.984665 6.454674 36,000 295 397 0
2021-10-17 19:50:22 GMT 47.983154 6.459686 36,000 295 397 0
2021-10-17 19:50:18 GMT 47.980183 6.469539 36,000 295 397 0
2021-10-17 19:50:15 GMT 47.977901 6.477004 36,000 295 397 0
2021-10-17 19:50:12 GMT 47.973038 6.493057 36,000 295 397 0
2021-10-17 19:50:09 GMT 47.973038 6.493057 36,000 295 397 0
2021-10-17 19:50:06 GMT 47.970730 6.500667 36,000 295 397 0
2021-10-17 19:50:03 GMT 47.968826 6.506996 36,000 295 397 0
2021-10-17 19:50:00 GMT 47.966171 6.515717 36,000 295 397 0
2021-10-17 19:49:57 GMT 47.963608 6.524162 36,000 295 397 0
2021-10-17 19:49:53 GMT 47.960678 6.533913 36,000 295 397 0
2021-10-17 19:49:50 GMT 47.956020 6.549190 36,000 295 397 0
2021-10-17 19:49:47 GMT 47.956020 6.549190 36,000 295 397 0
2021-10-17 19:49:44 GMT 47.954407 6.554581 36,000 295 397 0
2021-10-17 19:49:42 GMT 47.949829 6.569481 36,000 295 397 0
2021-10-17 19:49:38 GMT 47.949829 6.569481 36,000 295 397 0
2021-10-17 19:49:35 GMT 47.946762 6.579712 36,000 295 397 0
2021-10-17 19:49:32 GMT 47.945641 6.583275 36,000 295 397 0
2021-10-17 19:49:29 GMT 47.940170 6.601341 36,000 295 397 0
2021-10-17 19:49:26 GMT 47.940170 6.601341 36,000 295 397 0
2021-10-17 19:49:23 GMT 47.937836 6.609032 36,000 295 397 0
2021-10-17 19:49:20 GMT 47.936234 6.614319 36,000 295 397 0
2021-10-17 19:49:17 GMT 47.934326 6.620601 36,000 295 397 0
2021-10-17 19:49:14 GMT 47.932068 6.627983 36,000 295 397 0
2021-10-17 19:49:11 GMT 47.927078 6.644394 36,000 295 397 0
2021-10-17 19:49:08 GMT 47.927078 6.644394 36,000 295 397 0
2021-10-17 19:49:05 GMT 47.924149 6.654076 36,000 295 397 0
2021-10-17 19:49:02 GMT 47.922970 6.657926 36,000 295 397 0
2021-10-17 19:48:59 GMT 47.919846 6.668289 36,000 295 397 0
2021-10-17 19:48:56 GMT 47.917664 6.675321 36,000 295 397 0
2021-10-17 19:48:53 GMT 47.916172 6.680321 36,000 295 397 0
2021-10-17 19:48:51 GMT 47.911606 6.695412 36,000 295 397 0
2021-10-17 19:48:48 GMT 47.911606 6.695412 36,000 295 397 0
2021-10-17 19:48:45 GMT 47.909748 6.701449 36,000 295 397 0
2021-10-17 19:48:42 GMT 47.907578 6.708595 36,025 295 397 0
2021-10-17 19:48:39 GMT 47.905014 6.717041 36,025 295 397 0
2021-10-17 19:48:36 GMT 47.902725 6.724457 36,025 295 397 0
2021-10-17 19:48:33 GMT 47.900715 6.731098 36,025 295 397 0
2021-10-17 19:48:30 GMT 47.896339 6.745465 36,000 295 397 0
2021-10-17 19:48:27 GMT 47.896339 6.745465 36,025 295 397 0
2021-10-17 19:48:24 GMT 47.893127 6.755958 36,025 295 397 0
2021-10-17 19:48:21 GMT 47.890823 6.763527 36,025 295 397 0
2021-10-17 19:48:17 GMT 47.886051 6.779057 36,000 295 397 0
2021-10-17 19:48:14 GMT 47.886051 6.779057 36,025 295 397 0
2021-10-17 19:48:12 GMT 47.884552 6.783920 36,000 295 397 0
2021-10-17 19:48:09 GMT 47.882355 6.791130 36,025 295 397 0
2021-10-17 19:48:06 GMT 47.879162 6.801453 36,000 295 397 0
2021-10-17 19:48:03 GMT 47.876976 6.808636 36,025 295 397 0
2021-10-17 19:48:00 GMT 47.875439 6.813636 36,000 295 398 0
2021-10-17 19:47:57 GMT 47.873108 6.821205 36,000 295 398 0
2021-10-17 19:47:53 GMT 47.870041 6.831161 36,000 295 398 0
2021-10-17 19:47:50 GMT 47.867752 6.838646 36,000 295 398 64
2021-10-17 19:47:47 GMT 47.865524 6.845961 36,000 295 398 64
2021-10-17 19:47:44 GMT 47.861343 6.859589 36,000 295 398 64
2021-10-17 19:47:41 GMT 47.861343 6.859589 36,000 295 398 64
2021-10-17 19:47:38 GMT 47.858959 6.867441 36,000 295 398 64
2021-10-17 19:47:35 GMT 47.856678 6.874906 36,000 295 398 0
2021-10-17 19:47:33 GMT 47.854340 6.882454 36,000 295 398 64
2021-10-17 19:47:30 GMT 47.852394 6.888780 36,000 295 398 0
2021-10-17 19:47:27 GMT 47.850906 6.893646 36,000 295 398 0
2021-10-17 19:47:24 GMT 47.847786 6.903710 36,000 295 399 0
2021-10-17 19:47:21 GMT 47.846146 6.909096 36,000 295 399 0
2021-10-17 19:47:18 GMT 47.843269 6.918429 36,000 295 399 0
2021-10-17 19:47:15 GMT 47.840973 6.925987 36,000 295 399 0
2021-10-17 19:47:12 GMT 47.838989 6.932373 36,000 295 399 0
2021-10-17 19:47:09 GMT 47.836670 6.939926 36,000 295 399 0
2021-10-17 19:47:06 GMT 47.833557 6.950157 36,000 295 398 0
2021-10-17 19:47:03 GMT 47.831959 6.955191 36,000 295 398 0
2021-10-17 19:47:00 GMT 47.829353 6.963642 36,000 295 398 0
2021-10-17 19:46:56 GMT 47.826782 6.971992 36,000 295 398 0
2021-10-17 19:46:53 GMT 47.824371 6.979840 36,000 295 398 -64
2021-10-17 19:46:51 GMT 47.822788 6.985051 36,000 295 398 -64
2021-10-17 19:46:48 GMT 47.820511 6.992386 36,000 295 398 0
2021-10-17 19:46:45 GMT 47.817993 7.000557 36,000 295 398 0
2021-10-17 19:46:43 GMT 47.816036 7.006883 36,000 295 398 -64
2021-10-17 19:46:39 GMT 47.813663 7.014559 36,000 295 398 -64
2021-10-17 19:46:36 GMT 47.810715 7.024109 36,000 295 398 0
2021-10-17 19:46:33 GMT 47.807007 7.036180 36,000 295 398 0
2021-10-17 19:46:30 GMT 47.807007 7.036180 36,000 295 398 0
2021-10-17 19:46:27 GMT 47.804352 7.044842 36,000 295 398 0
2021-10-17 19:46:24 GMT 47.799957 7.059128 36,000 295 398 0
2021-10-17 19:46:21 GMT 47.799957 7.059128 36,000 295 398 0
2021-10-17 19:46:18 GMT 47.797462 7.067167 36,000 295 398 0
2021-10-17 19:46:15 GMT 47.795059 7.074989 36,000 295 398 0
2021-10-17 19:46:12 GMT 47.791901 7.085152 36,000 295 398 0
2021-10-17 19:46:09 GMT 47.790665 7.089134 36,000 295 398 0
2021-10-17 19:46:06 GMT 47.788246 7.096957 36,000 295 398 0
2021-10-17 19:46:03 GMT 47.785641 7.105337 36,000 295 398 0
2021-10-17 19:46:00 GMT 47.783844 7.111176 36,000 295 398 0
2021-10-17 19:45:57 GMT 47.780685 7.121407 36,000 295 398 0
2021-10-17 19:45:53 GMT 47.777985 7.130058 36,000 295 398 0
2021-10-17 19:45:49 GMT 47.775257 7.138860 36,000 295 398 0
2021-10-17 19:45:46 GMT 47.772186 7.148790 36,000 295 398 0
2021-10-17 19:45:42 GMT 47.769485 7.157452 36,000 295 398 0
2021-10-17 19:45:39 GMT 47.768005 7.162331 36,000 295 398 0
2021-10-17 19:45:36 GMT 47.764984 7.171944 36,000 295 398 0
2021-10-17 19:45:33 GMT 47.762604 7.179634 36,000 295 398 0
2021-10-17 19:45:31 GMT 47.761387 7.183509 36,000 295 398 64
2021-10-17 19:45:28 GMT 47.759354 7.190071 36,000 295 398 64
2021-10-17 19:45:25 GMT 47.753952 7.207443 36,000 295 398 64
2021-10-17 19:45:22 GMT 47.753952 7.207443 36,000 295 399 64
2021-10-17 19:45:19 GMT 47.752075 7.213510 36,000 295 398 64
2021-10-17 19:45:16 GMT 47.749653 7.221187 36,000 295 399 64
2021-10-17 19:45:13 GMT 47.746956 7.229919 36,000 295 399 0
2021-10-17 19:45:10 GMT 47.745090 7.235835 36,000 295 399 0
2021-10-17 19:45:07 GMT 47.741974 7.245765 36,000 295 399 0
2021-10-17 19:45:03 GMT 47.737270 7.260907 36,000 295 399 -64
2021-10-17 19:45:00 GMT 47.737270 7.260907 36,000 295 399 -64
2021-10-17 19:44:57 GMT 47.734852 7.268653 36,000 295 399 -64
2021-10-17 19:44:54 GMT 47.732059 7.277597 36,000 295 399 0
2021-10-17 19:44:51 GMT 47.730331 7.283180 36,000 295 399 0
2021-10-17 19:44:48 GMT 47.728054 7.290485 36,000 295 399 0
2021-10-17 19:44:45 GMT 47.725159 7.299797 36,000 295 399 0
2021-10-17 19:44:42 GMT 47.723511 7.305016 36,000 295 399 0
2021-10-17 19:44:38 GMT 47.719440 7.318021 36,000 295 399 0
2021-10-17 19:44:34 GMT 47.715454 7.330765 36,000 295 399 0
2021-10-17 19:44:31 GMT 47.715454 7.330765 36,000 295 399 0
2021-10-17 19:44:28 GMT 47.711761 7.342529 36,000 295 399 0
2021-10-17 19:44:25 GMT 47.709991 7.348234 36,000 295 399 0
2021-10-17 19:44:22 GMT 47.707993 7.354591 36,000 295 399 0
2021-10-17 19:44:20 GMT 47.706757 7.358574 36,000 295 399 0
2021-10-17 19:44:17 GMT 47.704056 7.367226 36,000 295 399 0
2021-10-17 19:44:14 GMT 47.700821 7.377531 36,000 295 399 0
2021-10-17 19:44:11 GMT 47.699982 7.380277 36,000 295 399 0
2021-10-17 19:44:08 GMT 47.696686 7.390846 36,000 295 399 0
2021-10-17 19:44:05 GMT 47.694351 7.398262 36,000 295 399 -64
2021-10-17 19:44:02 GMT 47.691837 7.406335 36,000 295 399 -64
2021-10-17 19:43:58 GMT 47.689415 7.414011 36,000 295 399 0
2021-10-17 19:43:55 GMT 47.684464 7.429710 36,000 295 399 0
2021-10-17 19:43:52 GMT 47.684464 7.429710 36,025 295 399 0
2021-10-17 19:43:49 GMT 47.681641 7.438801 36,000 295 399 0
2021-10-17 19:43:46 GMT 47.680115 7.443581 36,000 295 399 0
2021-10-17 19:43:43 GMT 47.677452 7.452111 36,000 295 399 0
2021-10-17 19:43:40 GMT 47.675030 7.459787 36,000 296 399 64
2021-10-17 19:43:37 GMT 47.673065 7.466171 36,000 296 400 0
2021-10-17 19:43:34 GMT 47.670376 7.474717 36,000 296 399 0
2021-10-17 19:43:31 GMT 47.668121 7.481758 36,000 295 400 0
2021-10-17 19:43:28 GMT 47.665813 7.489084 36,000 295 400 0
2021-10-17 19:43:25 GMT 47.663021 7.498028 36,000 295 400 0
2021-10-17 19:43:22 GMT 47.660660 7.505585 36,000 295 400 0
2021-10-17 19:43:19 GMT 47.658970 7.510916 36,000 295 400 0
2021-10-17 19:43:16 GMT 47.656921 7.517325 36,000 295 400 0
2021-10-17 19:43:13 GMT 47.653896 7.526973 36,000 295 400 0
2021-10-17 19:43:10 GMT 47.651939 7.533170 36,000 295 400 0
2021-10-17 19:43:07 GMT 47.648727 7.543382 36,000 295 400 0
2021-10-17 19:43:04 GMT 47.645325 7.554131 36,000 295 400 0
2021-10-17 19:43:01 GMT 47.645325 7.554131 36,000 296 400 0
2021-10-17 19:42:59 GMT 47.643036 7.561340 36,000 296 400 0
2021-10-17 19:42:56 GMT 47.640209 7.570355 36,000 296 400 0
2021-10-17 19:42:53 GMT 47.637726 7.578163 36,000 296 400 0
2021-10-17 19:42:50 GMT 47.636299 7.582750 36,000 296 400 0
2021-10-17 19:42:47 GMT 47.634201 7.589355 36,000 296 400 0
2021-10-17 19:42:44 GMT 47.629131 7.605286 36,000 296 400 0
2021-10-17 19:42:41 GMT 47.629131 7.605286 36,000 296 400 0
2021-10-17 19:42:37 GMT 47.625641 7.616483 36,000 296 400 0
2021-10-17 19:42:34 GMT 47.623497 7.623174 36,000 296 400 0
2021-10-17 19:42:31 GMT 47.621658 7.628975 36,000 296 400 0
2021-10-17 19:42:29 GMT 47.619415 7.636185 36,000 296 400 0
2021-10-17 19:42:26 GMT 47.617905 7.640854 36,000 296 400 64
2021-10-17 19:42:23 GMT 47.615070 7.649935 36,000 296 400 0
2021-10-17 19:42:20 GMT 47.612698 7.657330 36,000 296 400 0
2021-10-17 19:42:17 GMT 47.609848 7.666397 36,000 296 400 0
2021-10-17 19:42:14 GMT 47.608231 7.671485 36,000 296 400 0
2021-10-17 19:42:11 GMT 47.605480 7.680148 36,000 296 400 0
2021-10-17 19:42:07 GMT 47.602177 7.690571 36,000 296 400 64
2021-10-17 19:42:03 GMT 47.599293 7.699726 36,000 296 401 0
2021-10-17 19:42:00 GMT 47.596359 7.708881 36,000 296 401 64
2021-10-17 19:41:57 GMT 47.592316 7.721672 35,975 296 401 0
2021-10-17 19:41:54 GMT 47.592316 7.721672 35,975 296 401 0
2021-10-17 19:41:51 GMT 47.589798 7.729568 35,975 296 401 0
2021-10-17 19:41:49 GMT 47.588585 7.733389 35,975 296 401 0
2021-10-17 19:41:46 GMT 47.585884 7.741840 35,975 296 401 0
2021-10-17 19:41:43 GMT 47.583572 7.749138 35,975 296 401 0
2021-10-17 19:41:40 GMT 47.580826 7.757858 35,975 296 401 0
2021-10-17 19:41:37 GMT 47.578033 7.766510 35,975 296 401 0
2021-10-17 19:41:34 GMT 47.576435 7.771559 35,975 296 401 0
2021-10-17 19:41:31 GMT 47.574013 7.779236 35,975 296 401 0
2021-10-17 19:41:29 GMT 47.572105 7.785222 35,975 296 401 0
2021-10-17 19:41:26 GMT 47.570427 7.790433 35,975 296 401 0
2021-10-17 19:41:23 GMT 47.567001 7.801186 35,975 296 401 -64
2021-10-17 19:41:20 GMT 47.565445 7.806129 35,975 296 401 0
2021-10-17 19:41:17 GMT 47.563122 7.813462 35,975 296 401 0
2021-10-17 19:41:14 GMT 47.558167 7.828926 36,000 296 401 -64
2021-10-17 19:41:11 GMT 47.558167 7.828926 36,000 296 401 0
2021-10-17 19:41:09 GMT 47.556427 7.834419 36,000 296 401 0
2021-10-17 19:41:06 GMT 47.554321 7.840928 36,000 296 401 0
2021-10-17 19:41:03 GMT 47.551849 7.848770 36,000 296 401 0
2021-10-17 19:41:00 GMT 47.549015 7.857549 36,000 296 401 0
2021-10-17 19:40:57 GMT 47.544357 7.872127 36,000 296 401 0
2021-10-17 19:40:54 GMT 47.544357 7.872127 36,000 296 401 0
2021-10-17 19:40:51 GMT 47.542511 7.877953 36,000 296 401 0
2021-10-17 19:40:48 GMT 47.540451 7.884338 36,000 296 401 0
2021-10-17 19:40:45 GMT 47.538029 7.891916 36,000 296 401 64
2021-10-17 19:40:42 GMT 47.535233 7.900681 36,000 296 401 0
2021-10-17 19:40:39 GMT 47.533092 7.907269 36,000 296 401 0
2021-10-17 19:40:36 GMT 47.530674 7.914875 36,000 296 401 0
2021-10-17 19:40:33 GMT 47.528439 7.921847 36,000 296 401 64
2021-10-17 19:40:30 GMT 47.526077 7.929108 36,000 296 401 0
2021-10-17 19:40:27 GMT 47.523502 7.937200 35,975 296 401 0
2021-10-17 19:40:24 GMT 47.521179 7.944489 35,975 296 401 0
2021-10-17 19:40:21 GMT 47.518524 7.952660 35,975 296 401 0
2021-10-17 19:40:18 GMT 47.516193 7.959947 36,000 296 401 0
2021-10-17 19:40:15 GMT 47.513992 7.966736 36,000 296 402 -64
2021-10-17 19:40:12 GMT 47.510971 7.976143 36,000 296 402 -64
2021-10-17 19:40:09 GMT 47.509026 7.982272 36,000 296 402 -64
2021-10-17 19:40:06 GMT 47.507210 7.987976 36,000 296 402 -64
2021-10-17 19:40:03 GMT 47.503601 7.999214 36,000 296 402 -64
2021-10-17 19:40:00 GMT 47.502319 8.003197 36,000 296 403 0
2021-10-17 19:39:58 GMT 47.497696 8.017548 36,000 296 402 0
2021-10-17 19:39:55 GMT 47.497696 8.017548 36,000 296 403 0
2021-10-17 19:39:52 GMT 47.496048 8.022766 36,000 296 403 0
2021-10-17 19:39:49 GMT 47.490639 8.039457 36,000 296 403 0
2021-10-17 19:39:46 GMT 47.490639 8.039457 36,000 296 403 0
2021-10-17 19:39:42 GMT 47.487717 8.048515 36,000 296 403 0
2021-10-17 19:39:40 GMT 47.486496 8.052345 36,000 296 403 0
2021-10-17 19:39:38 GMT 47.484924 8.057236 36,000 296 403 0
2021-10-17 19:39:36 GMT 47.480488 8.070937 36,000 296 403 0
2021-10-17 19:39:33 GMT 47.480488 8.070937 36,000 296 403 0
2021-10-17 19:39:30 GMT 47.478561 8.077080 36,000 296 403 0
2021-10-17 19:39:28 GMT 47.476997 8.081853 36,000 296 403 0
2021-10-17 19:39:26 GMT 47.472530 8.095797 36,000 296 403 0
2021-10-17 19:39:23 GMT 47.469772 8.104340 36,000 296 403 0
2021-10-17 19:39:20 GMT 47.469772 8.104340 36,000 296 403 0
2021-10-17 19:39:17 GMT 47.467667 8.110794 36,000 296 403 0
2021-10-17 19:39:14 GMT 47.464966 8.119240 36,000 296 403 0
2021-10-17 19:39:10 GMT 47.461807 8.128922 36,000 296 404 0
2021-10-17 19:39:08 GMT 47.460564 8.132770 36,000 296 404 0
2021-10-17 19:39:06 GMT 47.458923 8.137848 36,000 296 404 0
2021-10-17 19:39:03 GMT 47.456795 8.144461 36,000 296 404 0
2021-10-17 19:39:00 GMT 47.453888 8.153503 36,000 296 404 0
2021-10-17 19:38:57 GMT 47.451645 8.160439 36,000 296 404 0
2021-10-17 19:38:54 GMT 47.449219 8.167923 36,000 296 404 0
2021-10-17 19:38:51 GMT 47.445923 8.178085 36,000 296 404 0
2021-10-17 19:38:48 GMT 47.444271 8.183195 36,000 296 404 0
2021-10-17 19:38:45 GMT 47.441986 8.190308 36,000 296 404 0
2021-10-17 19:38:42 GMT 47.439651 8.197517 36,000 296 404 0
2021-10-17 19:38:39 GMT 47.435101 8.211506 36,000 296 404 0
2021-10-17 19:38:36 GMT 47.435101 8.211506 36,000 296 404 0
2021-10-17 19:38:33 GMT 47.429703 8.228196 36,000 296 404 0
2021-10-17 19:38:30 GMT 47.429703 8.228196 36,000 296 404 0
2021-10-17 19:38:27 GMT 47.428024 8.233292 36,000 296 404 0
2021-10-17 19:38:24 GMT 47.424908 8.242845 36,000 296 404 0
2021-10-17 19:38:21 GMT 47.419968 8.258148 36,000 296 404 0
2021-10-17 19:38:18 GMT 47.419968 8.258148 36,000 296 404 0
2021-10-17 19:38:16 GMT 47.419182 8.260522 36,000 296 404 0
2021-10-17 19:38:13 GMT 47.415665 8.271332 36,000 296 405 0
2021-10-17 19:38:10 GMT 47.413742 8.277306 36,000 296 405 0
2021-10-17 19:38:08 GMT 47.411964 8.282635 36,000 296 405 0
2021-10-17 19:38:05 GMT 47.409119 8.291451 36,000 296 405 0
2021-10-17 19:38:02 GMT 47.407242 8.297218 36,000 296 405 0
2021-10-17 19:37:59 GMT 47.404907 8.304428 36,000 296 405 0
2021-10-17 19:37:57 GMT 47.402893 8.310677 36,000 296 406 0
2021-10-17 19:37:54 GMT 47.398277 8.324679 36,000 296 406 0
2021-10-17 19:37:51 GMT 47.398277 8.324679 36,000 296 406 -64
2021-10-17 19:37:48 GMT 47.396622 8.329834 36,000 296 406 -64
2021-10-17 19:37:46 GMT 47.394463 8.336440 36,000 296 406 -64
2021-10-17 19:37:43 GMT 47.389481 8.351738 36,000 296 406 -64
2021-10-17 19:37:40 GMT 47.388130 8.355877 36,000 296 406 -64
2021-10-17 19:37:36 GMT 47.386368 8.361214 36,025 296 406 -64
2021-10-17 19:37:32 GMT 47.383427 8.370314 36,025 296 406 0
2021-10-17 19:37:29 GMT 47.380680 8.378765 36,025 296 406 0
2021-10-17 19:37:27 GMT 47.379089 8.383667 36,025 296 406 0
2021-10-17 19:37:25 GMT 47.376537 8.391512 36,025 296 406 0
2021-10-17 19:37:22 GMT 47.374489 8.397710 36,025 296 407 0
2021-10-17 19:37:19 GMT 47.370907 8.408696 36,025 296 407 0
2021-10-17 19:37:17 GMT 47.370907 8.408696 36,025 296 407 0
2021-10-17 19:37:14 GMT 47.368393 8.416372 36,025 296 407 0
2021-10-17 19:37:11 GMT 47.366016 8.423626 36,025 296 407 0
2021-10-17 19:37:08 GMT 47.363205 8.432213 36,025 296 407 0
2021-10-17 19:37:05 GMT 47.360367 8.441002 36,025 296 407 0
2021-10-17 19:37:02 GMT 47.357574 8.449448 36,025 296 407 0
2021-10-17 19:36:59 GMT 47.355404 8.456092 36,025 296 408 0
2021-10-17 19:36:56 GMT 47.352859 8.463936 36,025 296 408 0
2021-10-17 19:36:52 GMT 47.350609 8.470811 36,025 296 408 0
2021-10-17 19:36:49 GMT 47.347584 8.480037 36,025 296 408 0
2021-10-17 19:36:47 GMT 47.345955 8.485037 36,025 296 408 0
2021-10-17 19:36:44 GMT 47.343796 8.491676 36,025 296 408 0
2021-10-17 19:36:41 GMT 47.341324 8.499161 36,025 296 408 0
2021-10-17 19:36:38 GMT 47.339344 8.505319 36,025 296 408 0
2021-10-17 19:36:36 GMT 47.336655 8.513443 36,025 296 408 0
2021-10-17 19:36:33 GMT 47.334923 8.518841 36,025 296 408 0
2021-10-17 19:36:30 GMT 47.331940 8.527856 36,025 296 408 0
2021-10-17 19:36:27 GMT 47.329800 8.534335 36,025 296 408 0
2021-10-17 19:36:25 GMT 47.327847 8.540321 36,025 296 408 0
2021-10-17 19:36:22 GMT 47.325611 8.547082 36,025 296 408 0
2021-10-17 19:36:19 GMT 47.323563 8.553349 36,025 296 408 0
2021-10-17 19:36:17 GMT 47.321228 8.560478 36,025 296 408 0
2021-10-17 19:36:14 GMT 47.318813 8.567857 36,025 296 408 0
2021-10-17 19:36:11 GMT 47.316158 8.575815 36,025 296 409 0
2021-10-17 19:36:08 GMT 47.313694 8.583351 36,025 296 409 0
2021-10-17 19:36:05 GMT 47.312248 8.587858 36,025 296 409 0
2021-10-17 19:36:02 GMT 47.309418 8.596458 36,025 296 409 0
2021-10-17 19:35:52 GMT 47.300892 8.622366 36,000 296 409 64
2021-10-17 19:35:48 GMT 47.295116 8.639902 36,000 296 409 0
2021-10-17 19:35:45 GMT 47.295116 8.639902 36,000 296 409 0
2021-10-17 19:35:41 GMT 47.292526 8.647820 36,000 296 409 0
2021-10-17 19:35:38 GMT 47.289001 8.658600 36,000 296 409 0
2021-10-17 19:35:35 GMT 47.287262 8.663818 36,000 296 409 0
2021-10-17 19:35:32 GMT 47.284737 8.671452 36,000 296 409 0
2021-10-17 19:35:29 GMT 47.282135 8.679337 36,000 296 409 0
2021-10-17 19:35:27 GMT 47.280361 8.684692 36,000 296 409 0
2021-10-17 19:35:24 GMT 47.278290 8.691078 36,000 296 409 64
2021-10-17 19:35:21 GMT 47.275452 8.699593 36,000 296 408 0
2021-10-17 19:35:18 GMT 47.273052 8.707017 36,000 296 409 0
2021-10-17 19:35:16 GMT 47.271286 8.712364 36,000 296 409 64
2021-10-17 19:35:14 GMT 47.267281 8.724483 36,000 296 409 64
2021-10-17 19:35:11 GMT 47.267281 8.724483 36,000 296 409 64
2021-10-17 19:35:08 GMT 47.264328 8.733376 36,000 296 409 64
2021-10-17 19:35:05 GMT 47.262207 8.739694 36,000 296 409 0
2021-10-17 19:35:02 GMT 47.260250 8.745751 36,000 296 409 0
2021-10-17 19:34:59 GMT 47.257366 8.754484 36,000 296 409 0
2021-10-17 19:34:57 GMT 47.255676 8.759605 35,975 296 409 0
2021-10-17 19:34:54 GMT 47.253315 8.766667 35,975 296 409 0
2021-10-17 19:34:52 GMT 47.251602 8.771828 35,975 296 409 0
2021-10-17 19:34:49 GMT 47.247265 8.784907 35,975 296 409 0
2021-10-17 19:34:46 GMT 47.247265 8.784907 35,975 297 408 0
2021-10-17 19:34:43 GMT 47.244232 8.794006 35,975 297 408 0
2021-10-17 19:34:40 GMT 47.239471 8.808426 35,975 297 408 0
2021-10-17 19:34:37 GMT 47.239471 8.808426 35,975 297 408 0
2021-10-17 19:34:34 GMT 47.236908 8.816185 35,975 297 408 0
2021-10-17 19:34:31 GMT 47.233566 8.826141 35,975 297 408 0
2021-10-17 19:34:28 GMT 47.228642 8.840895 36,000 297 408 0
2021-10-17 19:34:25 GMT 47.228642 8.840895 35,975 297 408 0
2021-10-17 19:34:23 GMT 47.227943 8.843149 35,975 297 407 0
2021-10-17 19:34:20 GMT 47.221115 8.863632 35,975 297 407 0
2021-10-17 19:34:16 GMT 47.221115 8.863632 35,975 297 408 0
2021-10-17 19:34:12 GMT 47.218586 8.871249 35,975 297 408 0
2021-10-17 19:34:09 GMT 47.212921 8.888214 35,975 297 408 0
2021-10-17 19:34:06 GMT 47.212921 8.888214 35,975 297 408 0
2021-10-17 19:34:03 GMT 47.210266 8.896179 35,975 297 407 -64
2021-10-17 19:34:00 GMT 47.206284 8.908127 35,975 297 407 -64
2021-10-17 19:33:57 GMT 47.203876 8.915405 36,000 297 407 -64
2021-10-17 19:33:55 GMT 47.202202 8.920405 36,000 297 407 -64
2021-10-17 19:33:52 GMT 47.202202 8.920405 36,000 297 407 -64
2021-10-17 19:33:49 GMT 47.199268 8.929279 36,000 297 407 -64
2021-10-17 19:33:46 GMT 47.197220 8.935387 36,000 297 407 -64
2021-10-17 19:33:43 GMT 47.194931 8.942322 36,000 297 407 -64
2021-10-17 19:33:41 GMT 47.192471 8.949632 36,000 297 407 -64
2021-10-17 19:33:38 GMT 47.190331 8.956111 36,000 297 407 -64
2021-10-17 19:33:35 GMT 47.188282 8.962308 36,000 296 406 -64
2021-10-17 19:33:32 GMT 47.184837 8.972661 36,025 297 407 -64
2021-10-17 19:33:29 GMT 47.183022 8.978154 36,025 297 407 -64
2021-10-17 19:33:26 GMT 47.180878 8.984563 36,025 297 407 -64
2021-10-17 19:33:23 GMT 47.177994 8.993225 36,025 297 406 -64
2021-10-17 19:33:21 GMT 47.175758 8.999915 36,025 297 406 -64
2021-10-17 19:33:18 GMT 47.174377 9.003983 36,025 297 406 0
2021-10-17 19:33:16 GMT 47.172268 9.010338 36,025 297 406 0
2021-10-17 19:33:13 GMT 47.169800 9.017733 36,025 297 406 0
2021-10-17 19:33:10 GMT 47.167473 9.024705 36,025 297 406 0
2021-10-17 19:33:07 GMT 47.164444 9.033714 36,025 297 406 -64
2021-10-17 19:33:04 GMT 47.159958 9.047035 36,025 297 407 -64
2021-10-17 19:33:01 GMT 47.159958 9.047035 36,025 297 407 0
2021-10-17 19:32:58 GMT 47.156952 9.056115 36,025 297 407 0
2021-10-17 19:32:55 GMT 47.154575 9.063298 36,025 297 407 0
2021-10-17 19:32:52 GMT 47.152061 9.070693 36,025 297 407 0
2021-10-17 19:32:49 GMT 47.150108 9.076679 36,025 297 407 0
2021-10-17 19:32:46 GMT 47.144669 9.092903 36,025 297 407 64
2021-10-17 19:32:43 GMT 47.144669 9.092903 36,025 297 407 64
2021-10-17 19:32:41 GMT 47.143356 9.096750 36,025 297 407 64
2021-10-17 19:32:38 GMT 47.141190 9.103271 36,025 297 407 64
2021-10-17 19:32:36 GMT 47.138889 9.110060 36,025 297 407 64
2021-10-17 19:32:33 GMT 47.136330 9.117807 36,025 297 407 64
2021-10-17 19:32:30 GMT 47.134186 9.124216 36,000 297 407 64
2021-10-17 19:32:27 GMT 47.131989 9.130806 36,000 297 407 64
2021-10-17 19:32:24 GMT 47.129471 9.138222 36,000 297 407 64
2021-10-17 19:32:21 GMT 47.124344 9.153603 36,000 297 407 0
2021-10-17 19:32:18 GMT 47.122192 9.160057 36,000 297 407 0
2021-10-17 19:32:16 GMT 47.122192 9.160057 36,000 297 407 0
2021-10-17 19:32:13 GMT 47.119583 9.167747 36,000 297 407 0
2021-10-17 19:32:10 GMT 47.116730 9.176260 36,000 297 408 0
2021-10-17 19:32:07 GMT 47.114868 9.181753 36,000 297 408 0
2021-10-17 19:32:04 GMT 47.109936 9.196331 36,000 297 408 0
2021-10-17 19:32:01 GMT 47.109936 9.196331 36,000 297 408 64
2021-10-17 19:31:58 GMT 47.106209 9.207458 36,000 297 408 0
2021-10-17 19:31:53 GMT 47.103928 9.214149 36,000 297 408 0
2021-10-17 19:31:50 GMT 47.101044 9.222679 36,000 297 408 0
2021-10-17 19:31:47 GMT 47.097878 9.232178 36,000 297 408 0
2021-10-17 19:31:44 GMT 47.095779 9.238335 36,000 297 408 0
2021-10-17 19:31:41 GMT 47.092758 9.247192 36,000 297 408 0
2021-10-17 19:31:38 GMT 47.088379 9.260207 36,000 297 408 0
2021-10-17 19:31:36 GMT 47.088379 9.260207 36,000 297 408 0
2021-10-17 19:31:33 GMT 47.086761 9.265045 36,000 297 408 0
2021-10-17 19:31:30 GMT 47.084564 9.271500 36,000 297 408 0
2021-10-17 19:31:27 GMT 47.081635 9.280151 36,000 297 408 0
2021-10-17 19:31:25 GMT 47.079895 9.285301 36,000 297 408 0
2021-10-17 19:31:22 GMT 47.075905 9.297039 36,000 297 408 0
2021-10-17 19:31:17 GMT 47.073296 9.304716 36,000 297 408 0
2021-10-17 19:31:14 GMT 47.070786 9.312286 36,000 297 408 0
2021-10-17 19:31:11 GMT 47.067570 9.321759 36,000 297 408 0
2021-10-17 19:31:08 GMT 47.065895 9.326759 36,000 297 408 0
2021-10-17 19:31:05 GMT 47.063416 9.334053 36,000 297 408 0
2021-10-17 19:31:02 GMT 47.060123 9.343802 36,000 297 407 0
2021-10-17 19:30:59 GMT 47.058334 9.349091 36,000 297 407 0
2021-10-17 19:30:56 GMT 47.055096 9.358591 36,000 297 407 0
2021-10-17 19:30:53 GMT 47.053001 9.364788 36,000 297 407 0
2021-10-17 19:30:49 GMT 47.049603 9.374859 36,000 297 407 0
2021-10-17 19:30:46 GMT 47.046669 9.383521 36,000 297 407 0
2021-10-17 19:30:43 GMT 47.045059 9.388367 36,000 297 407 0
2021-10-17 19:30:40 GMT 47.039291 9.405396 36,000 297 407 0
2021-10-17 19:30:37 GMT 47.039291 9.405396 36,000 297 407 0
2021-10-17 19:30:34 GMT 47.038010 9.409156 36,000 297 407 0
2021-10-17 19:30:31 GMT 47.035404 9.416833 36,000 297 407 0
2021-10-17 19:30:29 GMT 47.033588 9.422255 36,000 297 407 0
2021-10-17 19:30:26 GMT 47.030331 9.431904 36,000 297 407 0
2021-10-17 19:30:23 GMT 47.025723 9.445425 36,000 297 407 0
2021-10-17 19:30:20 GMT 47.025723 9.445425 36,000 297 406 64
2021-10-17 19:30:17 GMT 47.023178 9.452911 36,000 297 406 64
2021-10-17 19:30:14 GMT 47.020248 9.461563 36,000 297 406 64
2021-10-17 19:30:11 GMT 47.017914 9.468430 35,975 297 406 64
2021-10-17 19:30:08 GMT 47.013153 9.482328 35,975 297 406 64
2021-10-17 19:30:05 GMT 47.013153 9.482328 35,975 297 406 64
2021-10-17 19:30:02 GMT 47.011002 9.488617 35,975 297 406 64
2021-10-17 19:29:59 GMT 47.008030 9.497329 35,975 297 407 0
2021-10-17 19:29:56 GMT 47.005371 9.505096 35,975 297 406 0
2021-10-17 19:29:53 GMT 47.000488 9.519512 35,975 297 406 0
2021-10-17 19:29:50 GMT 47.000488 9.519512 35,975 297 406 0
2021-10-17 19:29:47 GMT 46.998001 9.526726 35,975 297 406 0
2021-10-17 19:29:44 GMT 46.995274 9.534724 35,975 297 406 0
2021-10-17 19:29:40 GMT 46.989643 9.551204 35,975 297 406 0
2021-10-17 19:29:37 GMT 46.989643 9.551204 35,975 297 406 0
2021-10-17 19:29:34 GMT 46.984150 9.567402 35,975 297 406 -64
2021-10-17 19:29:31 GMT 46.984150 9.567402 35,975 297 406 -64
2021-10-17 19:29:28 GMT 46.981339 9.575684 35,975 297 406 0
2021-10-17 19:29:24 GMT 46.978935 9.582684 36,000 297 406 -64
2021-10-17 19:29:21 GMT 46.976330 9.590290 36,000 297 406 0
2021-10-17 19:29:18 GMT 46.973785 9.597725 36,000 297 406 0
2021-10-17 19:29:15 GMT 46.970695 9.606699 36,000 297 406 0
2021-10-17 19:29:12 GMT 46.969345 9.610771 36,000 297 406 0
2021-10-17 19:29:09 GMT 46.966644 9.618599 36,000 297 406 0
2021-10-17 19:29:06 GMT 46.963760 9.627052 36,000 297 406 0
2021-10-17 19:29:03 GMT 46.961014 9.635010 36,000 297 406 0
2021-10-17 19:29:00 GMT 46.958405 9.642757 36,000 297 406 0
2021-10-17 19:28:57 GMT 46.956310 9.648884 36,000 297 406 0
2021-10-17 19:28:54 GMT 46.953461 9.657051 36,000 297 406 0
2021-10-17 19:28:51 GMT 46.951309 9.663437 36,000 297 406 0
2021-10-17 19:28:48 GMT 46.948380 9.672020 36,000 297 406 0
2021-10-17 19:28:45 GMT 46.945496 9.680328 36,000 297 406 0
2021-10-17 19:28:42 GMT 46.943790 9.685364 36,000 297 406 0
2021-10-17 19:28:39 GMT 46.940762 9.694167 36,000 297 406 -64
2021-10-17 19:28:36 GMT 46.939133 9.698936 36,000 297 406 0
2021-10-17 19:28:33 GMT 46.935783 9.708604 36,000 297 406 -64
2021-10-17 19:28:29 GMT 46.932541 9.718025 36,000 297 406 0
2021-10-17 19:28:26 GMT 46.929077 9.728182 36,000 297 406 0
2021-10-17 19:28:23 GMT 46.927402 9.733042 36,000 297 406 0
2021-10-17 19:28:20 GMT 46.923027 9.745789 36,000 297 406 0
2021-10-17 19:28:14 GMT 46.920090 9.754211 36,000 297 406 0
2021-10-17 19:28:11 GMT 46.917534 9.761705 36,000 297 406 0
2021-10-17 19:28:08 GMT 46.914963 9.769112 36,000 297 406 0
2021-10-17 19:28:05 GMT 46.912506 9.776353 36,000 297 406 0
2021-10-17 19:28:02 GMT 46.907501 9.790947 36,000 297 406 0
2021-10-17 19:27:59 GMT 46.905396 9.797058 36,000 297 406 0
2021-10-17 19:27:56 GMT 46.905396 9.797058 36,025 297 406 0
2021-10-17 19:27:53 GMT 46.901657 9.807904 36,000 297 406 0
2021-10-17 19:27:50 GMT 46.896725 9.822129 36,000 297 406 0
2021-10-17 19:27:47 GMT 46.896725 9.822129 36,025 297 408 0
2021-10-17 19:27:44 GMT 46.894363 9.829124 36,000 297 406 0
2021-10-17 19:27:41 GMT 46.891834 9.836355 36,000 297 407 0
2021-10-17 19:27:38 GMT 46.887085 9.850204 36,000 297 407 0
2021-10-17 19:27:35 GMT 46.887085 9.850204 36,000 297 407 0
2021-10-17 19:27:32 GMT 46.884666 9.857131 36,000 297 407 0
2021-10-17 19:27:29 GMT 46.878616 9.874649 36,000 297 407 0
2021-10-17 19:27:26 GMT 46.878616 9.874649 36,000 297 407 0
2021-10-17 19:27:23 GMT 46.874939 9.885371 36,025 297 407 0
2021-10-17 19:27:20 GMT 46.874939 9.885371 36,025 297 407 0
2021-10-17 19:27:17 GMT 46.871338 9.895798 36,025 297 407 0
2021-10-17 19:27:14 GMT 46.869965 9.899712 36,025 297 407 0
2021-10-17 19:27:11 GMT 46.867023 9.908157 36,025 297 407 0
2021-10-17 19:27:08 GMT 46.864380 9.915831 36,025 297 407 0
2021-10-17 19:27:05 GMT 46.860718 9.926415 36,025 297 407 0
2021-10-17 19:27:01 GMT 46.858040 9.934113 36,025 297 407 0
2021-10-17 19:26:58 GMT 46.855957 9.940081 36,025 297 407 -64
2021-10-17 19:26:55 GMT 46.853668 9.946713 36,025 297 407 0
2021-10-17 19:26:52 GMT 46.850098 9.957030 36,025 297 407 0
2021-10-17 19:26:48 GMT 46.843746 9.975243 36,025 297 407 0
2021-10-17 19:26:45 GMT 46.843746 9.975243 36,025 297 407 0
2021-10-17 19:26:42 GMT 46.842072 9.980186 36,025 297 407 64
2021-10-17 19:26:39 GMT 46.837830 9.992266 36,025 297 407 64
2021-10-17 19:26:37 GMT 46.837830 9.992266 36,025 297 407 64
2021-10-17 19:26:34 GMT 46.835312 9.999635 36,025 297 407 64
2021-10-17 19:26:31 GMT 46.832714 10.007103 36,025 297 407 64
2021-10-17 19:26:28 GMT 46.830093 10.014574 36,000 297 407 64
2021-10-17 19:26:25 GMT 46.825150 10.028843 36,000 297 407 64
2021-10-17 19:26:22 GMT 46.825150 10.028843 36,000 297 407 64
2021-10-17 19:26:19 GMT 46.822659 10.036079 36,000 297 407 64
2021-10-17 19:26:16 GMT 46.819077 10.046379 36,000 297 408 0
2021-10-17 19:26:13 GMT 46.817688 10.050414 36,000 297 409 64
2021-10-17 19:26:10 GMT 46.812241 10.066089 36,000 297 409 64
2021-10-17 19:26:07 GMT 46.812241 10.066089 36,000 297 408 64
2021-10-17 19:26:04 GMT 46.809174 10.074932 36,000 297 408 64
2021-10-17 19:26:01 GMT 46.806610 10.082301 36,000 297 408 64
2021-10-17 19:25:58 GMT 46.804413 10.088539 35,975 297 408 64
2021-10-17 19:25:55 GMT 46.801575 10.096770 35,975 297 408 64
2021-10-17 19:25:51 GMT 46.798965 10.104195 35,975 297 408 64
2021-10-17 19:25:48 GMT 46.795101 10.115250 35,975 297 408 0
2021-10-17 19:25:45 GMT 46.793701 10.119279 35,975 297 408 0
2021-10-17 19:25:42 GMT 46.790676 10.127953 35,975 297 408 0
2021-10-17 19:25:39 GMT 46.788071 10.135424 35,975 297 408 0
2021-10-17 19:25:36 GMT 46.785690 10.142257 35,975 297 408 0
2021-10-17 19:25:32 GMT 46.782669 10.150831 35,975 297 408 0
2021-10-17 19:25:29 GMT 46.777405 10.166038 35,975 297 408 0
2021-10-17 19:25:26 GMT 46.777405 10.166038 35,975 297 408 0
2021-10-17 19:25:23 GMT 46.774616 10.173958 35,975 297 408 -64
2021-10-17 19:25:20 GMT 46.772430 10.180138 35,975 297 408 0
2021-10-17 19:25:17 GMT 46.769730 10.187897 35,975 298 407 0
2021-10-17 19:25:14 GMT 46.766785 10.196317 35,975 298 407 -64
2021-10-17 19:25:10 GMT 46.763947 10.204356 35,975 298 407 -64
2021-10-17 19:25:07 GMT 46.761063 10.212663 35,975 298 407 -64
2021-10-17 19:25:04 GMT 46.758091 10.221130 35,975 298 407 -64
2021-10-17 19:25:01 GMT 46.755753 10.227803 36,000 298 407 0
2021-10-17 19:24:57 GMT 46.752228 10.237784 36,000 298 407 -64
2021-10-17 19:24:54 GMT 46.749939 10.244416 36,000 298 407 -64
2021-10-17 19:24:51 GMT 46.746780 10.253265 36,000 298 407 0
2021-10-17 19:24:48 GMT 46.744629 10.259489 36,000 298 406 64
2021-10-17 19:24:46 GMT 46.743256 10.263374 36,000 298 407 0
2021-10-17 19:24:43 GMT 46.739704 10.273521 36,000 298 406 -64
2021-10-17 19:24:40 GMT 46.737236 10.280594 36,000 298 406 -64
2021-10-17 19:24:37 GMT 46.735565 10.285347 36,000 298 406 -64
2021-10-17 19:24:35 GMT 46.733791 10.290276 36,000 298 406 0
2021-10-17 19:24:32 GMT 46.731171 10.297740 36,000 298 406 64
2021-10-17 19:24:29 GMT 46.729183 10.303459 36,000 298 406 64
2021-10-17 19:24:26 GMT 46.725632 10.313550 36,000 298 406 0
2021-10-17 19:24:23 GMT 46.723480 10.319646 36,000 298 407 0
2021-10-17 19:24:20 GMT 46.720917 10.326947 36,025 298 407 64
2021-10-17 19:24:17 GMT 46.716240 10.340195 36,025 298 407 64
2021-10-17 19:24:14 GMT 46.712952 10.349590 36,025 298 407 64
2021-10-17 19:24:11 GMT 46.712952 10.349590 36,025 298 407 0
2021-10-17 19:24:08 GMT 46.711121 10.354820 36,000 298 407 64
2021-10-17 19:24:05 GMT 46.708466 10.362442 36,000 298 407 64
2021-10-17 19:24:02 GMT 46.705582 10.370558 36,000 298 407 0
2021-10-17 19:23:59 GMT 46.702972 10.378029 36,000 297 408 -64
2021-10-17 19:23:55 GMT 46.696335 10.396952 36,000 297 408 0
2021-10-17 19:23:52 GMT 46.696335 10.396952 36,000 297 408 0
2021-10-17 19:23:49 GMT 46.694641 10.401842 36,000 297 408 0
2021-10-17 19:23:46 GMT 46.688736 10.418657 36,000 297 408 64
2021-10-17 19:23:42 GMT 46.688736 10.418657 36,000 298 408 64
2021-10-17 19:23:39 GMT 46.683060 10.434801 36,000 298 408 0
2021-10-17 19:23:36 GMT 46.683060 10.434801 36,000 298 408 0
2021-10-17 19:23:33 GMT 46.679993 10.443577 36,000 298 409 0
2021-10-17 19:23:30 GMT 46.678253 10.448616 36,000 298 409 0
2021-10-17 19:23:27 GMT 46.675369 10.456841 36,000 298 409 0
2021-10-17 19:23:24 GMT 46.672390 10.465233 36,000 298 408 0
2021-10-17 19:23:21 GMT 46.670574 10.470383 36,000 298 409 0
2021-10-17 19:23:18 GMT 46.667500 10.479172 36,000 298 408 0
2021-10-17 19:23:15 GMT 46.664242 10.488510 36,000 298 408 0
2021-10-17 19:23:12 GMT 46.662521 10.493385 36,000 298 408 0
2021-10-17 19:23:09 GMT 46.659393 10.502260 36,000 298 409 0
2021-10-17 19:23:06 GMT 46.657681 10.507050 36,000 298 408 0
2021-10-17 19:23:04 GMT 46.656048 10.511719 36,000 298 408 0
2021-10-17 19:23:01 GMT 46.653301 10.519478 36,000 298 408 0
2021-10-17 19:22:58 GMT 46.651070 10.525864 36,000 298 408 0
2021-10-17 19:22:55 GMT 46.647621 10.535614 36,000 298 409 0
2021-10-17 19:22:52 GMT 46.642178 10.550995 36,000 298 409 0
2021-10-17 19:22:49 GMT 46.642178 10.550995 36,000 298 409 0
2021-10-17 19:22:46 GMT 46.639851 10.557587 36,000 298 409 0
2021-10-17 19:22:43 GMT 46.637146 10.565297 36,000 298 409 0
2021-10-17 19:22:40 GMT 46.632156 10.579432 36,000 298 409 64
2021-10-17 19:22:37 GMT 46.632156 10.579432 36,000 298 409 64
2021-10-17 19:22:34 GMT 46.629932 10.585670 36,000 298 409 0
2021-10-17 19:22:31 GMT 46.626583 10.595215 36,000 298 409 0
2021-10-17 19:22:27 GMT 46.623974 10.602493 36,000 298 409 0
2021-10-17 19:22:24 GMT 46.621834 10.608604 36,000 298 409 0
2021-10-17 19:22:21 GMT 46.619247 10.615808 36,000 298 409 0
2021-10-17 19:22:18 GMT 46.616199 10.624466 36,000 298 410 0
2021-10-17 19:22:15 GMT 46.613594 10.631813 36,000 298 410 0
2021-10-17 19:22:12 GMT 46.611053 10.639053 36,000 298 410 -64
2021-10-17 19:22:09 GMT 46.608490 10.646355 36,000 298 410 0
2021-10-17 19:22:05 GMT 46.605103 10.655934 36,000 298 410 -64
2021-10-17 19:22:02 GMT 46.599815 10.670952 36,000 298 409 0
2021-10-17 19:21:59 GMT 46.599815 10.670952 36,000 298 409 0
2021-10-17 19:21:56 GMT 46.597000 10.678912 36,000 298 409 0
2021-10-17 19:21:53 GMT 46.594437 10.686214 36,000 298 409 0
2021-10-17 19:21:50 GMT 46.591110 10.695671 36,000 298 410 0
2021-10-17 19:21:46 GMT 46.588486 10.703095 36,000 298 410 0
2021-10-17 19:21:43 GMT 46.586315 10.709198 36,000 298 410 0
2021-10-17 19:21:40 GMT 46.583313 10.717766 36,000 298 410 0
2021-10-17 19:21:37 GMT 46.579983 10.726845 36,000 300 408 0
2021-10-17 19:21:34 GMT 46.577049 10.734329 36,000 302 408 0
2021-10-17 19:21:31 GMT 46.574982 10.739270 36,000 302 407 0
2021-10-17 19:21:28 GMT 46.571465 10.747513 36,000 304 407 0
2021-10-17 19:21:24 GMT 46.567692 10.755615 36,000 305 406 0
2021-10-17 19:21:21 GMT 46.563858 10.763587 36,000 306 406 0
2021-10-17 19:21:17 GMT 46.560196 10.771157 36,000 306 406 0
2021-10-17 19:21:14 GMT 46.556988 10.777725 36,000 306 406 0
2021-10-17 19:21:10 GMT 46.548466 10.795303 36,000 306 407 0
2021-10-17 19:21:06 GMT 46.546837 10.798668 36,000 306 406 0
2021-10-17 19:21:00 GMT 46.541718 10.809174 36,000 306 406 0
2021-10-17 19:20:57 GMT 46.537582 10.817715 36,000 306 406 0
2021-10-17 19:20:54 GMT 46.534973 10.823074 36,000 306 406 0
2021-10-17 19:20:50 GMT 46.530212 10.832854 36,000 306 406 64
2021-10-17 19:20:46 GMT 46.526962 10.839553 36,000 306 407 0
2021-10-17 19:20:44 GMT 46.520096 10.853554 36,000 306 407 -64
2021-10-17 19:20:41 GMT 46.520096 10.853554 36,000 306 407 0
2021-10-17 19:20:37 GMT 46.517166 10.859583 36,000 306 407 0
2021-10-17 19:20:34 GMT 46.512810 10.868568 36,000 306 407 0
2021-10-17 19:20:30 GMT 46.508743 10.876934 36,000 306 407 0
2021-10-17 19:20:27 GMT 46.505314 10.883949 36,000 306 407 0
2021-10-17 19:20:23 GMT 46.500458 10.893882 36,000 306 408 -64
2021-10-17 19:20:19 GMT 46.493999 10.907158 36,000 306 408 -64
2021-10-17 19:20:16 GMT 46.493999 10.907158 36,000 306 408 -64
2021-10-17 19:20:12 GMT 46.489624 10.916016 36,000 306 409 0
2021-10-17 19:20:09 GMT 46.486313 10.922822 36,000 306 408 0
2021-10-17 19:20:06 GMT 46.483017 10.929521 36,000 306 408 0
2021-10-17 19:20:03 GMT 46.479710 10.936340 36,000 306 408 0
2021-10-17 19:19:57 GMT 46.473377 10.949249 36,025 306 408 -64
2021-10-17 19:19:54 GMT 46.470676 10.954811 36,025 306 408 -64
2021-10-17 19:19:51 GMT 46.465557 10.965317 36,025 306 409 0
2021-10-17 19:19:48 GMT 46.463139 10.970192 36,025 306 408 0
2021-10-17 19:19:45 GMT 46.460815 10.975007 36,025 306 408 0
2021-10-17 19:19:42 GMT 46.456154 10.984474 36,025 306 408 0
2021-10-17 19:19:39 GMT 46.452896 10.991135 36,000 306 408 0
2021-10-17 19:19:36 GMT 46.450104 10.996846 36,025 306 408 0
2021-10-17 19:19:34 GMT 46.448456 11.000195 36,025 306 408 0
2021-10-17 19:19:31 GMT 46.445774 11.005623 36,000 306 409 0
2021-10-17 19:19:28 GMT 46.441681 11.013995 36,000 306 409 0
2021-10-17 19:19:24 GMT 46.436508 11.024574 36,000 306 409 0
2021-10-17 19:19:21 GMT 46.434906 11.027862 36,000 306 409 0
2021-10-17 19:19:18 GMT 46.429852 11.038239 36,000 306 409 0
2021-10-17 19:19:15 GMT 46.426968 11.044006 36,000 306 409 0
2021-10-17 19:19:12 GMT 46.424194 11.049700 36,000 306 409 0
2021-10-17 19:19:09 GMT 46.420544 11.057190 36,000 306 409 0
2021-10-17 19:19:05 GMT 46.416733 11.064907 36,000 306 409 64
2021-10-17 19:19:02 GMT 46.408020 11.082664 36,000 306 410 64
2021-10-17 19:18:58 GMT 46.408020 11.082664 36,000 306 410 64
2021-10-17 19:18:55 GMT 46.405830 11.087128 36,000 306 410 0
2021-10-17 19:18:52 GMT 46.399063 11.100881 36,000 306 410 0
2021-10-17 19:18:49 GMT 46.399063 11.100881 36,000 306 411 0
2021-10-17 19:18:46 GMT 46.396545 11.105972 36,000 306 410 0
2021-10-17 19:18:43 GMT 46.392380 11.114480 36,000 306 410 0
2021-10-17 19:18:40 GMT 46.384418 11.130661 36,000 306 411 0
2021-10-17 19:18:36 GMT 46.384418 11.130661 36,000 306 410 0
2021-10-17 19:18:33 GMT 46.381027 11.137457 36,000 306 410 0
2021-10-17 19:18:30 GMT 46.378132 11.143433 36,000 306 410 0
2021-10-17 19:18:27 GMT 46.375153 11.149406 36,000 306 410 -64
2021-10-17 19:18:23 GMT 46.369492 11.160971 36,000 306 410 -64
2021-10-17 19:18:20 GMT 46.367065 11.165861 36,000 306 410 -64
2021-10-17 19:18:17 GMT 46.364262 11.171585 36,000 306 410 -64
2021-10-17 19:18:14 GMT 46.360535 11.179138 36,000 306 410 -64
2021-10-17 19:18:11 GMT 46.353424 11.193595 36,025 306 410 -64
2021-10-17 19:18:08 GMT 46.353424 11.193595 36,000 306 410 0
2021-10-17 19:18:05 GMT 46.350677 11.199155 36,025 306 410 0
2021-10-17 19:18:02 GMT 46.347317 11.205986 36,025 306 410 0
2021-10-17 19:17:59 GMT 46.343918 11.212852 36,025 306 411 0
2021-10-17 19:17:56 GMT 46.340706 11.219376 36,025 306 411 0
2021-10-17 19:17:53 GMT 46.336899 11.227089 36,025 306 411 0
2021-10-17 19:17:49 GMT 46.333115 11.234756 36,025 306 411 0
2021-10-17 19:17:45 GMT 46.327560 11.246048 36,025 306 411 0
2021-10-17 19:17:42 GMT 46.321838 11.257637 36,025 306 411 64
2021-10-17 19:17:38 GMT 46.321838 11.257637 36,000 306 411 0
2021-10-17 19:17:34 GMT 46.316452 11.268471 36,025 306 411 0
2021-10-17 19:17:31 GMT 46.313004 11.275523 36,000 306 411 64
2021-10-17 19:17:28 GMT 46.310257 11.281083 36,000 306 411 64
2021-10-17 19:17:24 GMT 46.305183 11.291267 36,000 306 411 64
2021-10-17 19:17:21 GMT 46.301556 11.298615 36,000 306 412 64
2021-10-17 19:17:17 GMT 46.297623 11.306539 36,000 306 412 64
2021-10-17 19:17:13 GMT 46.293129 11.315575 36,000 306 412 64
2021-10-17 19:17:10 GMT 46.287403 11.327179 36,000 306 412 0
2021-10-17 19:17:07 GMT 46.287403 11.327179 36,000 306 412 0
2021-10-17 19:17:04 GMT 46.282421 11.337273 36,000 306 412 0
2021-10-17 19:17:01 GMT 46.280327 11.341530 36,000 306 412 0
2021-10-17 19:16:58 GMT 46.275833 11.350552 36,000 306 412 0
2021-10-17 19:16:55 GMT 46.273438 11.355400 36,000 306 412 0
2021-10-17 19:16:52 GMT 46.269608 11.363079 36,000 306 412 0
2021-10-17 19:16:49 GMT 46.266495 11.369309 36,000 306 412 0
2021-10-17 19:16:45 GMT 46.261414 11.379625 36,000 306 412 0
2021-10-17 19:16:42 GMT 46.259144 11.384171 36,000 306 412 0
2021-10-17 19:16:39 GMT 46.254955 11.392685 36,000 306 412 0
2021-10-17 19:16:35 GMT 46.251755 11.399052 36,000 306 412 0
2021-10-17 19:16:32 GMT 46.247272 11.408066 36,000 306 412 0
2021-10-17 19:16:29 GMT 46.243927 11.414862 36,000 306 412 0
2021-10-17 19:16:26 GMT 46.241592 11.419551 36,000 306 412 0
2021-10-17 19:16:23 GMT 46.235687 11.431341 36,000 306 412 0
2021-10-17 19:16:21 GMT 46.235687 11.431341 36,000 306 412 0
2021-10-17 19:16:18 GMT 46.231121 11.440613 36,000 306 412 0
2021-10-17 19:16:14 GMT 46.227116 11.448647 36,000 306 412 0
2021-10-17 19:16:11 GMT 46.224556 11.453728 36,000 306 412 0
2021-10-17 19:16:08 GMT 46.221405 11.460080 36,000 306 412 0
2021-10-17 19:16:04 GMT 46.216507 11.469861 36,000 306 412 0
2021-10-17 19:16:00 GMT 46.211895 11.479134 36,000 306 412 0
2021-10-17 19:15:57 GMT 46.205891 11.491150 36,000 306 412 0
2021-10-17 19:15:54 GMT 46.205891 11.491150 36,000 306 412 0
2021-10-17 19:15:52 GMT 46.203644 11.495719 36,000 306 412 0
2021-10-17 19:15:49 GMT 46.197510 11.507978 36,000 306 412 0
2021-10-17 19:15:46 GMT 46.197510 11.507978 36,025 306 412 0
2021-10-17 19:15:43 GMT 46.193619 11.515816 36,000 306 412 0
2021-10-17 19:15:40 GMT 46.189781 11.523491 36,000 306 412 0
2021-10-17 19:15:37 GMT 46.186523 11.530017 36,000 306 412 0
2021-10-17 19:15:34 GMT 46.183594 11.535846 36,000 306 412 0
2021-10-17 19:15:31 GMT 46.179543 11.543953 36,000 306 412 0
2021-10-17 19:15:28 GMT 46.172886 11.557274 36,000 306 412 0
2021-10-17 19:15:25 GMT 46.172886 11.557274 36,000 306 412 0
2021-10-17 19:15:20 GMT 46.167854 11.567299 36,000 306 412 0
2021-10-17 19:15:17 GMT 46.164322 11.574298 36,025 306 412 0
2021-10-17 19:15:13 GMT 46.159103 11.584815 36,025 306 412 0
2021-10-17 19:15:10 GMT 46.156860 11.589236 36,025 306 412 0
2021-10-17 19:15:07 GMT 46.152191 11.598615 36,000 306 412 0
2021-10-17 19:15:04 GMT 46.149948 11.603036 36,025 306 412 0
2021-10-17 19:15:00 GMT 46.144821 11.613286 36,025 306 412 0
2021-10-17 19:14:57 GMT 46.140793 11.621324 36,025 306 412 0
2021-10-17 19:14:54 GMT 46.138855 11.625183 36,025 306 412 0
2021-10-17 19:14:51 GMT 46.135574 11.631775 36,025 306 413 0
2021-10-17 19:14:48 GMT 46.132057 11.638779 36,000 306 413 64
2021-10-17 19:14:45 GMT 46.129032 11.644821 36,000 306 413 0
2021-10-17 19:14:41 GMT 46.123772 11.655258 36,000 306 414 0
2021-10-17 19:14:38 GMT 46.121063 11.660714 36,000 306 412 0
2021-10-17 19:14:35 GMT 46.118649 11.665489 36,000 306 414 0
2021-10-17 19:14:32 GMT 46.109985 11.682754 36,000 306 414 0
2021-10-17 19:14:28 GMT 46.109985 11.682754 36,000 306 414 0
2021-10-17 19:14:25 GMT 46.106731 11.689384 36,000 306 414 0
2021-10-17 19:14:22 GMT 46.102203 11.698363 36,000 306 413 0
2021-10-17 19:14:19 GMT 46.098679 11.705383 36,000 306 412 0
2021-10-17 19:14:16 GMT 46.096390 11.709952 36,000 306 412 0
2021-10-17 19:14:12 GMT 46.092209 11.718292 36,000 306 413 0
2021-10-17 19:14:08 GMT 46.087090 11.728523 36,000 306 413 0
2021-10-17 19:14:05 GMT 46.084110 11.734497 36,000 306 413 0
2021-10-17 19:14:02 GMT 46.081100 11.740432 36,000 306 413 0
2021-10-17 19:13:59 GMT 46.076706 11.749260 36,000 306 413 0
2021-10-17 19:13:56 GMT 46.073448 11.755714 36,000 306 413 0
2021-10-17 19:13:52 GMT 46.069908 11.762787 36,000 306 413 0
2021-10-17 19:13:49 GMT 46.066650 11.769241 36,000 306 413 0
2021-10-17 19:13:46 GMT 46.062183 11.778099 36,000 306 413 0
2021-10-17 19:13:43 GMT 46.059357 11.783775 36,000 306 413 0
2021-10-17 19:13:41 GMT 46.057114 11.788196 36,000 306 413 0
2021-10-17 19:13:37 GMT 46.049427 11.803436 36,000 306 413 0
2021-10-17 19:13:34 GMT 46.049427 11.803436 36,000 306 413 0
2021-10-17 19:13:31 GMT 46.046585 11.809097 36,000 306 413 0
2021-10-17 19:13:28 GMT 46.042694 11.816868 36,000 306 412 0
2021-10-17 19:13:25 GMT 46.038719 11.824722 36,000 306 412 0
2021-10-17 19:13:22 GMT 46.036743 11.828658 36,000 306 412 0
2021-10-17 19:13:19 GMT 46.032902 11.836258 36,000 306 412 0
2021-10-17 19:13:16 GMT 46.030289 11.841520 36,000 306 412 0
2021-10-17 19:13:12 GMT 46.025024 11.851903 36,000 306 412 0
2021-10-17 19:13:09 GMT 46.021637 11.858535 36,000 306 412 0
2021-10-17 19:13:06 GMT 46.018982 11.863895 36,000 306 412 0
2021-10-17 19:13:03 GMT 46.014748 11.872169 36,000 306 412 0
2021-10-17 19:12:59 GMT 46.010010 11.881647 36,000 306 412 0
2021-10-17 19:12:56 GMT 46.007252 11.887070 36,000 306 412 0
2021-10-17 19:12:53 GMT 46.003830 11.893839 36,000 306 412 0
2021-10-17 19:12:51 GMT 46.000874 11.899704 36,000 306 412 0
2021-10-17 19:12:48 GMT 45.998566 11.904222 36,000 306 412 0
2021-10-17 19:12:45 GMT 45.994263 11.912750 36,000 306 412 0
2021-10-17 19:12:42 GMT 45.992123 11.916939 36,000 306 412 0
2021-10-17 19:12:38 GMT 45.987328 11.926483 36,000 307 413 0
2021-10-17 19:12:35 GMT 45.984009 11.933028 36,000 307 413 0
2021-10-17 19:12:32 GMT 45.980301 11.940330 36,000 307 413 0
2021-10-17 19:12:29 GMT 45.977039 11.946808 36,000 307 413 0
2021-10-17 19:12:26 GMT 45.969032 11.962532 36,000 307 413 0
2021-10-17 19:12:22 GMT 45.969032 11.962532 36,000 307 413 0
2021-10-17 19:12:19 GMT 45.964890 11.970703 36,000 307 413 0
2021-10-17 19:12:15 GMT 45.960884 11.978668 36,000 307 413 0
2021-10-17 19:12:12 GMT 45.956837 11.986633 36,000 307 413 0
2021-10-17 19:12:09 GMT 45.950958 11.998209 36,000 307 412 0
2021-10-17 19:12:06 GMT 45.950958 11.998209 36,000 307 412 0
2021-10-17 19:12:03 GMT 45.942856 12.014086 36,000 307 413 64
2021-10-17 19:11:59 GMT 45.942856 12.014086 36,000 307 413 64
2021-10-17 19:11:56 GMT 45.939240 12.021309 36,000 307 413 0
2021-10-17 19:11:53 GMT 45.936306 12.027008 36,000 307 413 0
2021-10-17 19:11:51 GMT 45.933514 12.032570 36,000 307 413 0
2021-10-17 19:11:48 GMT 45.930725 12.037934 36,000 307 413 0
2021-10-17 19:11:45 GMT 45.927383 12.044566 36,000 307 412 0
2021-10-17 19:11:42 GMT 45.923996 12.051198 36,000 307 412 0
2021-10-17 19:11:39 GMT 45.917217 12.064568 36,000 307 412 0
2021-10-17 19:11:36 GMT 45.917217 12.064568 36,000 307 412 0
2021-10-17 19:11:33 GMT 45.913818 12.071159 36,000 307 412 0
2021-10-17 19:11:30 GMT 45.909256 12.080138 36,000 307 412 0
2021-10-17 19:11:26 GMT 45.902695 12.092995 36,000 307 412 0
2021-10-17 19:11:23 GMT 45.898224 12.101852 36,000 307 412 0
2021-10-17 19:11:20 GMT 45.898224 12.101852 36,000 307 412 0
2021-10-17 19:11:17 GMT 45.896484 12.105259 36,000 307 412 0
2021-10-17 19:11:14 GMT 45.891861 12.114302 36,000 307 412 0
2021-10-17 19:11:11 GMT 45.889427 12.119019 36,000 307 412 0
2021-10-17 19:11:08 GMT 45.885052 12.127602 36,000 307 412 0
2021-10-17 19:11:05 GMT 45.882259 12.133095 36,000 307 412 0
2021-10-17 19:11:02 GMT 45.878254 12.140991 36,000 307 412 0
2021-10-17 19:10:58 GMT 45.871719 12.153692 36,000 307 412 0
2021-10-17 19:10:55 GMT 45.871719 12.153692 36,000 307 412 0
2021-10-17 19:10:51 GMT 45.865967 12.165092 36,000 307 412 0
2021-10-17 19:10:46 GMT 45.860367 12.175933 36,000 307 412 0
2021-10-17 19:10:43 GMT 45.856796 12.183034 36,000 307 412 0
2021-10-17 19:10:40 GMT 45.853317 12.189867 36,000 307 412 0
2021-10-17 19:10:37 GMT 45.850651 12.195030 36,000 307 412 0
2021-10-17 19:10:34 GMT 45.848007 12.200183 36,000 307 412 0
2021-10-17 19:10:31 GMT 45.845078 12.205945 36,000 307 412 64
2021-10-17 19:10:28 GMT 45.840965 12.213982 36,000 307 412 64
2021-10-17 19:10:25 GMT 45.838264 12.219269 36,000 307 412 0
2021-10-17 19:10:22 GMT 45.833889 12.227852 36,000 307 412 64
2021-10-17 19:10:19 GMT 45.830307 12.234924 36,000 307 412 0
2021-10-17 19:10:15 GMT 45.825882 12.243507 35,975 307 412 0
2021-10-17 19:10:12 GMT 45.822235 12.250627 35,975 307 412 0
2021-10-17 19:10:09 GMT 45.820084 12.254847 35,975 307 412 0
2021-10-17 19:10:06 GMT 45.813129 12.268364 35,975 307 412 0
2021-10-17 19:10:03 GMT 45.809052 12.276351 35,975 307 412 0
2021-10-17 19:10:00 GMT 45.809052 12.276351 35,975 307 412 0
2021-10-17 19:09:57 GMT 45.804794 12.284637 35,975 307 412 0
2021-10-17 19:09:54 GMT 45.801270 12.291557 35,975 307 412 0
2021-10-17 19:09:50 GMT 45.797813 12.298233 35,975 307 412 0
2021-10-17 19:09:47 GMT 45.794815 12.304085 35,975 307 412 0
2021-10-17 19:09:44 GMT 45.790787 12.311989 35,975 307 412 0
2021-10-17 19:09:39 GMT 45.785290 12.322678 35,975 307 412 0
2021-10-17 19:09:36 GMT 45.782318 12.328469 35,975 307 412 0
2021-10-17 19:09:33 GMT 45.777924 12.337044 35,975 307 412 0
2021-10-17 19:09:29 GMT 45.774536 12.343609 35,975 307 412 -64
2021-10-17 19:09:26 GMT 45.770393 12.351654 36,000 307 412 0
2021-10-17 19:09:23 GMT 45.768158 12.356049 36,000 307 412 -64
2021-10-17 19:09:20 GMT 45.764236 12.363572 36,000 307 412 -64
2021-10-17 19:09:17 GMT 45.760437 12.371074 36,000 307 412 0
2021-10-17 19:09:13 GMT 45.756615 12.378433 36,000 307 412 0
2021-10-17 19:09:09 GMT 45.748901 12.393449 36,000 307 412 0
2021-10-17 19:09:06 GMT 45.748901 12.393449 36,000 307 412 0
2021-10-17 19:09:03 GMT 45.744827 12.401287 36,000 307 412 0
2021-10-17 19:09:00 GMT 45.740982 12.408790 36,000 307 412 0
2021-10-17 19:08:57 GMT 45.733616 12.423134 36,000 307 412 0
2021-10-17 19:08:54 GMT 45.733616 12.423134 36,000 307 412 0
2021-10-17 19:08:51 GMT 45.730778 12.428627 36,000 307 412 0
2021-10-17 19:08:48 GMT 45.727570 12.434849 36,000 307 412 0
2021-10-17 19:08:45 GMT 45.724773 12.440231 36,000 307 412 -64
2021-10-17 19:08:42 GMT 45.716625 12.456024 36,000 307 412 -64
2021-10-17 19:08:39 GMT 45.716625 12.456024 36,000 307 412 -64
2021-10-17 19:08:36 GMT 45.714981 12.459233 36,000 307 412 0
2021-10-17 19:08:33 GMT 45.711319 12.466324 36,000 307 412 0
2021-10-17 19:08:31 GMT 45.709671 12.469482 36,000 307 412 0
2021-10-17 19:08:28 GMT 45.705315 12.477928 36,000 307 412 0
2021-10-17 19:08:24 GMT 45.700699 12.486833 36,000 307 413 0
2021-10-17 19:08:21 GMT 45.698284 12.491524 36,025 307 413 0
2021-10-17 19:08:18 GMT 45.693859 12.500107 36,000 307 413 0
2021-10-17 19:08:15 GMT 45.691177 12.505255 36,000 307 413 0
2021-10-17 19:08:12 GMT 45.687241 12.512892 36,025 307 416 64
2021-10-17 19:08:09 GMT 45.684265 12.518653 36,025 307 413 0
2021-10-17 19:08:06 GMT 45.679802 12.527298 36,025 307 413 0
2021-10-17 19:08:03 GMT 45.677662 12.531487 36,025 307 414 0
2021-10-17 19:08:01 GMT 45.675053 12.536499 36,025 307 414 0
2021-10-17 19:07:57 GMT 45.670441 12.545382 36,025 307 414 0
2021-10-17 19:07:53 GMT 45.666302 12.553391 36,025 307 414 0
2021-10-17 19:07:51 GMT 45.663929 12.558060 36,025 307 414 0
2021-10-17 19:07:48 GMT 45.660782 12.564072 36,025 307 414 0
2021-10-17 19:07:45 GMT 45.656712 12.571861 36,025 307 414 0
2021-10-17 19:07:42 GMT 45.652588 12.579882 36,025 307 414 0
2021-10-17 19:07:39 GMT 45.649544 12.585663 36,025 307 414 0
2021-10-17 19:07:36 GMT 45.646564 12.591362 36,025 307 414 0
2021-10-17 19:07:32 GMT 45.640915 12.602256 36,025 307 414 0
2021-10-17 19:07:29 GMT 45.637527 12.608821 36,025 307 414 0
2021-10-17 19:07:25 GMT 45.634094 12.615453 36,025 307 416 0
2021-10-17 19:07:22 GMT 45.631390 12.620613 36,025 307 416 0
2021-10-17 19:07:20 GMT 45.628372 12.626440 36,025 307 416 0
2021-10-17 19:07:17 GMT 45.623707 12.635307 36,025 307 416 64
2021-10-17 19:07:13 GMT 45.620316 12.641780 36,025 307 416 0
2021-10-17 19:07:10 GMT 45.617020 12.648144 36,025 307 416 0
2021-10-17 19:07:06 GMT 45.611881 12.657898 36,025 307 416 64
2021-10-17 19:07:03 GMT 45.608345 12.664764 36,025 307 416 64
2021-10-17 19:07:00 GMT 45.604248 12.672529 36,025 307 416 64
2021-10-17 19:06:57 GMT 45.601269 12.678291 36,025 307 417 64
2021-10-17 19:06:54 GMT 45.597839 12.684855 36,025 307 417 64
2021-10-17 19:06:51 GMT 45.594891 12.690514 36,000 307 417 64
2021-10-17 19:06:47 GMT 45.589725 12.700401 36,000 307 418 64
2021-10-17 19:06:44 GMT 45.586742 12.706169 36,000 307 418 64
2021-10-17 19:06:41 GMT 45.579063 12.721001 36,000 307 418 0
2021-10-17 19:06:38 GMT 45.579063 12.721001 36,000 307 418 0
2021-10-17 19:06:34 GMT 45.571289 12.735901 36,000 307 417 0
2021-10-17 19:06:30 GMT 45.571289 12.735901 36,000 307 417 0
2021-10-17 19:06:27 GMT 45.567890 12.742424 36,000 307 417 0
2021-10-17 19:06:24 GMT 45.563095 12.751694 36,000 307 417 64
2021-10-17 19:06:21 GMT 45.560852 12.755998 36,000 307 417 0
2021-10-17 19:06:19 GMT 45.558022 12.761444 36,000 307 417 64
2021-10-17 19:06:15 GMT 45.552902 12.771332 36,000 307 417 64
2021-10-17 19:06:11 GMT 45.548199 12.780396 36,000 307 418 64
2021-10-17 19:06:08 GMT 45.546066 12.784489 35,975 307 418 64
2021-10-17 19:06:05 GMT 45.542103 12.792105 35,975 307 418 0
2021-10-17 19:06:02 GMT 45.538422 12.799206 36,000 307 418 0
2021-10-17 19:05:59 GMT 45.534512 12.806709 35,975 307 417 -64
2021-10-17 19:05:56 GMT 45.532379 12.810778 35,975 307 417 0
2021-10-17 19:05:53 GMT 45.527344 12.820375 36,000 307 417 0
2021-10-17 19:05:50 GMT 45.524921 12.824997 36,000 307 417 0
2021-10-17 19:05:46 GMT 45.519104 12.836118 36,000 307 417 0
2021-10-17 19:05:42 GMT 45.514893 12.844260 36,000 307 417 0
2021-10-17 19:05:37 GMT 45.509979 12.853602 35,975 307 417 0
2021-10-17 19:05:34 GMT 45.505280 12.862579 35,975 307 417 64
2021-10-17 19:05:31 GMT 45.502808 12.867344 35,975 307 417 0
2021-10-17 19:05:27 GMT 45.498047 12.876304 35,975 307 417 64
2021-10-17 19:05:23 GMT 45.493500 12.885020 35,975 307 416 64
2021-10-17 19:05:20 GMT 45.489441 12.892848 35,975 307 416 64
2021-10-17 19:05:17 GMT 45.486610 12.898217 35,975 307 417 0
2021-10-17 19:05:14 GMT 45.483215 12.904685 35,975 307 417 0
2021-10-17 19:05:11 GMT 45.478500 12.913709 35,975 307 417 0
2021-10-17 19:05:07 GMT 45.474972 12.920391 35,975 307 417 0
2021-10-17 19:05:03 GMT 45.469986 12.929927 35,975 307 418 -64
2021-10-17 19:05:00 GMT 45.467010 12.935530 35,975 307 417 0
2021-10-17 19:04:57 GMT 45.464264 12.940823 35,975 307 417 0
2021-10-17 19:04:54 GMT 45.460190 12.948630 35,975 307 416 0
2021-10-17 19:04:49 GMT 45.454651 12.959159 35,975 307 416 -64
2021-10-17 19:04:44 GMT 45.449184 12.969561 35,975 307 416 -64
2021-10-17 19:04:41 GMT 45.444435 12.978538 35,975 307 416 0
2021-10-17 19:04:38 GMT 45.442566 12.982178 35,975 307 416 0
2021-10-17 19:04:35 GMT 45.438477 12.989926 35,975 307 416 0
2021-10-17 19:04:32 GMT 45.434101 12.998300 35,975 307 416 0
2021-10-17 19:04:29 GMT 45.431396 13.003431 35,975 307 417 0
2021-10-17 19:04:26 GMT 45.424881 13.015851 35,975 307 417 0
2021-10-17 19:04:23 GMT 45.424881 13.015851 35,975 307 417 0
2021-10-17 19:04:19 GMT 45.416473 13.031747 35,975 307 417 0
2021-10-17 19:04:16 GMT 45.416473 13.031747 35,975 307 417 0
2021-10-17 19:04:13 GMT 45.413040 13.038286 36,000 307 417 0
2021-10-17 19:04:10 GMT 45.408646 13.046657 36,000 307 418 0
2021-10-17 19:04:07 GMT 45.406219 13.051235 35,975 307 418 0
2021-10-17 19:04:03 GMT 45.401459 13.060259 35,975 307 418 0
2021-10-17 19:03:59 GMT 45.397064 13.068564 35,975 307 418 0
2021-10-17 19:03:56 GMT 45.393646 13.075070 35,975 307 418 0
2021-10-17 19:03:53 GMT 45.389923 13.082166 35,975 307 418 0
2021-10-17 19:03:50 GMT 45.382195 13.096775 35,975 307 418 0
2021-10-17 19:03:47 GMT 45.382195 13.096775 35,975 307 418 0
2021-10-17 19:03:43 GMT 45.377586 13.105551 35,975 307 418 64
2021-10-17 19:03:39 GMT 45.373444 13.113360 35,975 307 418 64
2021-10-17 19:03:36 GMT 45.370468 13.119114 35,975 307 419 0
2021-10-17 19:03:33 GMT 45.366783 13.125983 35,975 307 419 0
2021-10-17 19:03:30 GMT 45.362968 13.133284 35,975 307 419 0
2021-10-17 19:03:27 GMT 45.360081 13.138778 35,975 307 419 -64
2021-10-17 19:03:23 GMT 45.354633 13.149094 35,975 307 420 0
2021-10-17 19:03:19 GMT 45.349777 13.158286 35,975 307 420 0
2021-10-17 19:03:16 GMT 45.347580 13.162471 35,975 307 420 0
2021-10-17 19:03:13 GMT 45.344162 13.168923 36,000 307 420 0
2021-10-17 19:03:10 GMT 45.339970 13.176828 36,000 307 420 0
2021-10-17 19:03:07 GMT 45.335495 13.185359 36,000 307 420 0
2021-10-17 19:03:04 GMT 45.332382 13.191164 36,000 307 420 0
2021-10-17 19:03:00 GMT 45.327728 13.200006 35,975 307 420 0
2021-10-17 19:02:56 GMT 45.324238 13.206571 36,000 307 421 0
2021-10-17 19:02:52 GMT 45.319160 13.216151 36,000 307 421 -64
2021-10-17 19:02:49 GMT 45.316181 13.221778 36,000 307 421 -64
2021-10-17 19:02:47 GMT 45.310272 13.232967 36,000 307 421 -64
2021-10-17 19:02:44 GMT 45.310272 13.232967 36,000 307 421 -64
2021-10-17 19:02:41 GMT 45.305428 13.242076 36,000 307 421 -64
2021-10-17 19:02:38 GMT 45.302811 13.247092 36,000 307 422 -64
2021-10-17 19:02:35 GMT 45.297840 13.256479 36,000 307 422 -64
2021-10-17 19:02:32 GMT 45.295578 13.260760 36,000 307 422 -64
2021-10-17 19:02:29 GMT 45.291962 13.267626 36,000 307 423 -64
2021-10-17 19:02:27 GMT 45.286201 13.278585 36,000 307 423 -64
2021-10-17 19:02:24 GMT 45.286201 13.278585 36,000 307 423 -64
2021-10-17 19:02:21 GMT 45.283504 13.283677 36,000 307 423 -64
2021-10-17 19:02:18 GMT 45.278614 13.293055 36,025 307 422 0
2021-10-17 19:02:15 GMT 45.270950 13.307582 36,000 307 422 0
2021-10-17 19:02:12 GMT 45.270950 13.307582 36,025 307 423 0
2021-10-17 19:02:09 GMT 45.269119 13.311114 36,025 307 423 0
2021-10-17 19:02:07 GMT 45.266647 13.315822 36,025 307 423 0
2021-10-17 19:02:04 GMT 45.262802 13.323146 36,025 307 423 0
2021-10-17 19:02:01 GMT 45.259342 13.329699 36,025 307 424 0
2021-10-17 19:01:58 GMT 45.255707 13.336748 36,025 307 424 -64
2021-10-17 19:01:56 GMT 45.253895 13.340216 36,025 307 424 0
2021-10-17 19:01:53 GMT 45.250900 13.345838 36,025 307 424 0
2021-10-17 19:01:49 GMT 45.245316 13.356563 36,025 307 425 0
2021-10-17 19:01:47 GMT 45.241699 13.363495 36,025 307 425 0
2021-10-17 19:01:44 GMT 45.239319 13.368007 36,025 307 426 0
2021-10-17 19:01:41 GMT 45.236485 13.373443 36,025 307 425 0
2021-10-17 19:01:38 GMT 45.232635 13.380759 36,025 307 426 0
2021-10-17 19:01:35 GMT 45.229111 13.387429 36,025 307 425 0
2021-10-17 19:01:32 GMT 45.225586 13.394165 36,025 307 425 0
2021-10-17 19:01:29 GMT 45.221832 13.401293 36,025 307 426 0
2021-10-17 19:01:24 GMT 45.216248 13.411756 36,025 308 426 0
2021-10-17 19:01:20 GMT 45.209393 13.424489 36,025 308 426 0
2021-10-17 19:01:17 GMT 45.207642 13.427713 36,025 308 427 0
2021-10-17 19:01:14 GMT 45.203712 13.434873 36,025 309 426 0
2021-10-17 19:01:11 GMT 45.199860 13.441772 36,025 309 426 0
2021-10-17 19:01:08 GMT 45.196884 13.447004 36,025 309 426 0
2021-10-17 19:01:04 GMT 45.192028 13.455572 36,025 310 427 0
2021-10-17 19:01:01 GMT 45.188187 13.462176 36,025 310 427 -64
2021-10-17 19:00:58 GMT 45.184532 13.468501 36,025 310 427 -64
2021-10-17 19:00:55 GMT 45.180725 13.475124 36,025 310 427 0
2021-10-17 19:00:52 GMT 45.171982 13.490230 36,025 310 427 0
2021-10-17 19:00:48 GMT 45.170010 13.493556 36,025 310 427 -64
2021-10-17 19:00:43 GMT 45.165771 13.500924 36,025 310 427 0
2021-10-17 19:00:40 GMT 45.162140 13.507222 36,025 310 426 0
2021-10-17 19:00:37 GMT 45.154404 13.520508 36,025 310 428 0
2021-10-17 19:00:34 GMT 45.154404 13.520508 36,025 310 428 -64
2021-10-17 19:00:31 GMT 45.146255 13.534568 36,025 310 428 0
2021-10-17 19:00:28 GMT 45.146255 13.534568 36,025 310 428 0
2021-10-17 19:00:24 GMT 45.141724 13.542350 36,025 310 429 0
2021-10-17 19:00:20 GMT 45.131744 13.559541 36,025 310 429 0
2021-10-17 19:00:17 GMT 45.131744 13.559541 36,025 310 429 0
2021-10-17 19:00:13 GMT 45.128716 13.564766 36,025 310 429 64
2021-10-17 19:00:10 GMT 45.124283 13.572431 36,025 310 429 0
2021-10-17 19:00:07 GMT 45.120941 13.578164 36,025 310 429 64
2021-10-17 19:00:04 GMT 45.116455 13.585903 36,025 310 429 64
2021-10-17 19:00:01 GMT 45.113205 13.591527 36,025 310 429 64
2021-10-17 18:59:57 GMT 45.108032 13.600420 36,025 310 429 64
2021-10-17 18:59:51 GMT 45.100784 13.612864 36,025 310 430 64
2021-10-17 18:59:47 GMT 45.095524 13.621975 36,025 310 430 0
2021-10-17 18:59:45 GMT 45.091782 13.628409 36,025 310 430 0
2021-10-17 18:59:42 GMT 45.088821 13.633497 36,025 310 430 0
2021-10-17 18:59:38 GMT 45.084400 13.641067 36,025 310 430 0
2021-10-17 18:59:36 GMT 45.081711 13.645739 36,025 310 430 0
2021-10-17 18:59:34 GMT 45.077976 13.652120 36,025 310 429 0
2021-10-17 18:59:31 GMT 45.075043 13.657145 36,025 310 429 0
2021-10-17 18:59:27 GMT 45.069504 13.666657 36,025 310 429 0
2021-10-17 18:59:21 GMT 45.062428 13.678782 36,025 310 429 64
2021-10-17 18:59:18 GMT 45.055069 13.691450 36,025 310 429 0
2021-10-17 18:59:11 GMT 45.049812 13.700420 36,000 310 429 0
2021-10-17 18:59:08 GMT 45.045959 13.707079 36,000 310 429 0
2021-10-17 18:59:05 GMT 45.042526 13.712899 36,000 310 429 0
2021-10-17 18:59:01 GMT 45.037994 13.720681 36,000 310 429 0
2021-10-17 18:58:58 GMT 45.033657 13.728154 36,000 310 429 0
2021-10-17 18:58:56 GMT 45.024162 13.744365 36,000 310 429 0
2021-10-17 18:58:51 GMT 45.024162 13.744365 36,000 310 429 64
2021-10-17 18:58:48 GMT 45.020531 13.750662 36,000 310 429 0
2021-10-17 18:58:45 GMT 45.017876 13.755218 36,000 310 429 0
2021-10-17 18:58:40 GMT 45.010986 13.766981 36,000 310 429 0
2021-10-17 18:58:37 GMT 45.005867 13.775784 36,000 310 429 0
2021-10-17 18:58:34 GMT 45.001511 13.783199 36,000 310 429 0
2021-10-17 18:58:31 GMT 44.999130 13.787319 36,000 310 429 0
2021-10-17 18:58:28 GMT 44.995834 13.792943 36,000 310 429 0
2021-10-17 18:58:25 GMT 44.991165 13.800921 36,000 310 429 0
2021-10-17 18:58:21 GMT 44.985569 13.810551 36,000 310 429 0
2021-10-17 18:58:18 GMT 44.982330 13.816027 36,000 310 429 0
2021-10-17 18:58:15 GMT 44.979237 13.821337 36,000 310 429 0
2021-10-17 18:58:11 GMT 44.974777 13.828975 36,000 310 429 0
2021-10-17 18:58:08 GMT 44.970337 13.836496 36,000 310 429 0
2021-10-17 18:58:06 GMT 44.965645 13.844582 36,000 310 429 64
2021-10-17 18:58:01 GMT 44.961639 13.851340 36,000 310 429 0
2021-10-17 18:57:58 GMT 44.956429 13.860258 36,000 310 429 0
2021-10-17 18:57:55 GMT 44.952713 13.866643 36,000 310 428 0
2021-10-17 18:57:51 GMT 44.948685 13.873509 36,000 310 428 0
2021-10-17 18:57:48 GMT 44.941864 13.885084 36,000 310 428 0
2021-10-17 18:57:45 GMT 44.941864 13.885084 36,000 310 428 0
2021-10-17 18:57:41 GMT 44.936188 13.894762 36,000 310 428 0
2021-10-17 18:57:38 GMT 44.932297 13.901433 36,000 310 428 0
2021-10-17 18:57:36 GMT 44.929333 13.906481 36,000 310 427 -64
2021-10-17 18:57:33 GMT 44.926167 13.911840 36,000 310 427 -64
2021-10-17 18:57:30 GMT 44.923233 13.916866 36,000 310 427 -64
2021-10-17 18:57:27 GMT 44.918564 13.924844 36,000 310 427 -64
2021-10-17 18:57:25 GMT 44.916046 13.929095 36,000 310 427 -64
2021-10-17 18:57:20 GMT 44.909595 13.940177 36,000 310 426 64
2021-10-17 18:57:17 GMT 44.906387 13.945639 36,000 310 426 0
2021-10-17 18:57:15 GMT 44.903870 13.949890 36,000 310 426 0
2021-10-17 18:57:11 GMT 44.894669 13.965519 36,000 310 426 0
2021-10-17 18:57:08 GMT 44.894669 13.965519 36,000 310 426 64
2021-10-17 18:57:05 GMT 44.891281 13.971274 36,000 310 426 64
2021-10-17 18:57:00 GMT 44.884872 13.982130 36,000 310 426 64
2021-10-17 18:56:57 GMT 44.877522 13.994639 36,000 310 426 64
2021-10-17 18:56:54 GMT 44.877522 13.994639 36,000 310 426 64
2021-10-17 18:56:51 GMT 44.873840 14.000963 36,000 310 426 64
2021-10-17 18:56:48 GMT 44.868862 14.009377 35,975 310 426 64
2021-10-17 18:56:45 GMT 44.865646 14.014827 36,000 310 426 64
2021-10-17 18:56:41 GMT 44.860153 14.024179 35,975 310 426 64
2021-10-17 18:56:37 GMT 44.855621 14.031830 35,975 310 426 64
2021-10-17 18:56:34 GMT 44.852509 14.037192 35,975 310 426 64
2021-10-17 18:56:30 GMT 44.847401 14.045820 35,975 310 426 0
2021-10-17 18:56:27 GMT 44.843258 14.052853 35,975 310 426 0
2021-10-17 18:56:24 GMT 44.840000 14.058414 35,975 310 426 0
2021-10-17 18:56:17 GMT 44.831131 14.073421 35,975 310 425 0
2021-10-17 18:56:15 GMT 44.827942 14.078779 35,975 310 425 0
2021-10-17 18:56:10 GMT 44.821659 14.089430 35,975 310 425 0
2021-10-17 18:56:06 GMT 44.813976 14.102359 35,975 310 425 0
2021-10-17 18:56:03 GMT 44.813976 14.102359 35,975 310 425 0
2021-10-17 18:55:59 GMT 44.808949 14.110867 35,975 310 424 0
2021-10-17 18:55:56 GMT 44.804855 14.117759 35,975 310 424 0
2021-10-17 18:55:53 GMT 44.801468 14.123448 35,975 310 424 0
2021-10-17 18:55:50 GMT 44.795837 14.132996 35,975 310 424 0
2021-10-17 18:55:47 GMT 44.793182 14.137442 35,975 310 424 0
2021-10-17 18:55:43 GMT 44.787350 14.147242 35,975 310 423 0
2021-10-17 18:55:38 GMT 44.781235 14.157453 35,975 310 423 -64
2021-10-17 18:55:35 GMT 44.777527 14.163722 35,975 310 423 0
2021-10-17 18:55:32 GMT 44.774921 14.168143 35,975 310 423 0
2021-10-17 18:55:29 GMT 44.770405 14.175713 35,975 310 423 -64
2021-10-17 18:55:26 GMT 44.767517 14.180603 35,975 310 423 0
2021-10-17 18:55:24 GMT 44.763748 14.186900 36,000 310 423 0
2021-10-17 18:55:22 GMT 44.761234 14.191120 35,975 310 423 0
2021-10-17 18:55:18 GMT 44.756790 14.198587 35,975 310 423 0
2021-10-17 18:55:15 GMT 44.751297 14.207873 35,975 310 423 0
2021-10-17 18:55:12 GMT 44.747772 14.213758 35,975 310 423 0
2021-10-17 18:55:07 GMT 44.742706 14.222271 35,975 310 423 0
2021-10-17 18:55:04 GMT 44.738701 14.229037 35,975 310 423 0
2021-10-17 18:55:00 GMT 44.733536 14.237678 35,975 310 423 -64
2021-10-17 18:54:56 GMT 44.728786 14.245717 35,975 310 423 0
2021-10-17 18:54:53 GMT 44.725067 14.251949 35,975 310 423 0
2021-10-17 18:54:47 GMT 44.717697 14.264374 36,000 310 423 0
2021-10-17 18:54:44 GMT 44.713303 14.271763 36,000 310 423 -64
2021-10-17 18:54:37 GMT 44.705093 14.285509 36,000 310 423 -64
2021-10-17 18:54:33 GMT 44.700947 14.292476 36,000 310 423 0
2021-10-17 18:54:27 GMT 44.692566 14.306488 36,000 310 423 -64
2021-10-17 18:54:22 GMT 44.686283 14.317061 36,000 310 423 0
2021-10-17 18:54:16 GMT 44.678925 14.329507 36,025 310 423 -64
2021-10-17 18:54:14 GMT 44.676544 14.333561 36,025 310 423 -64
2021-10-17 18:54:11 GMT 44.667389 14.348929 36,025 310 423 0
2021-10-17 18:54:07 GMT 44.667389 14.348929 36,025 310 424 0
2021-10-17 18:54:03 GMT 44.662544 14.357054 36,025 310 424 0
2021-10-17 18:53:58 GMT 44.655441 14.369005 36,025 310 424 0
2021-10-17 18:53:55 GMT 44.652328 14.374302 36,025 310 424 0
2021-10-17 18:53:52 GMT 44.648483 14.380702 36,025 310 425 -64
2021-10-17 18:53:46 GMT 44.641781 14.391889 36,025 310 425 -64
2021-10-17 18:53:42 GMT 44.626190 14.417986 36,025 310 425 0
2021-10-17 18:53:35 GMT 44.626190 14.417986 36,025 311 425 -64
2021-10-17 18:53:31 GMT 44.621384 14.426030 36,025 311 425 -64
2021-10-17 18:53:25 GMT 44.615013 14.436705 36,050 311 425 0
2021-10-17 18:53:21 GMT 44.609756 14.445452 36,050 311 425 0
2021-10-17 18:53:15 GMT 44.601791 14.458727 36,050 311 425 0
2021-10-17 18:53:12 GMT 44.595932 14.468471 36,050 311 427 0
2021-10-17 18:53:10 GMT 44.595932 14.468471 36,050 311 427 0
2021-10-17 18:53:05 GMT 44.585541 14.485801 36,050 311 427 0
2021-10-17 18:53:02 GMT 44.585541 14.485801 36,050 311 427 0
2021-10-17 18:52:59 GMT 44.582336 14.491032 36,050 311 427 0
2021-10-17 18:52:55 GMT 44.576469 14.500881 36,050 311 427 0
2021-10-17 18:52:51 GMT 44.570324 14.511064 36,050 311 427 0
2021-10-17 18:52:45 GMT 44.563713 14.522050 36,050 311 427 0
2021-10-17 18:52:41 GMT 44.558357 14.530893 36,050 311 427 0
2021-10-17 18:52:38 GMT 44.553146 14.539601 36,050 311 427 0
2021-10-17 18:52:35 GMT 44.551888 14.541678 36,050 311 427 0
2021-10-17 18:52:32 GMT 44.546997 14.549822 36,050 310 428 0
2021-10-17 18:52:29 GMT 44.542923 14.556623 36,050 310 428 0
2021-10-17 18:52:26 GMT 44.539215 14.562770 36,025 310 428 64
2021-10-17 18:52:22 GMT 44.533493 14.572253 36,025 310 428 64
2021-10-17 18:52:19 GMT 44.530891 14.576647 36,025 310 428 64
2021-10-17 18:52:16 GMT 44.526535 14.583893 36,025 310 428 64
2021-10-17 18:52:14 GMT 44.524563 14.587231 36,025 310 428 64
2021-10-17 18:52:11 GMT 44.520233 14.594399 35,975 311 427 128
2021-10-17 18:52:06 GMT 44.513996 14.604782 36,025 310 428 64
2021-10-17 18:52:01 GMT 44.508640 14.613625 36,000 311 427 64
2021-10-17 18:51:59 GMT 44.505989 14.618113 36,000 311 427 64
2021-10-17 18:51:56 GMT 44.500809 14.626661 36,000 311 427 64
2021-10-17 18:51:52 GMT 44.496445 14.633923 36,000 311 427 64
2021-10-17 18:51:49 GMT 44.493279 14.639215 35,975 311 427 64
2021-10-17 18:51:45 GMT 44.487350 14.649026 35,975 311 427 64
2021-10-17 18:51:43 GMT 44.485565 14.652034 35,975 311 425 0
2021-10-17 18:51:40 GMT 44.481354 14.658966 35,975 311 427 64
2021-10-17 18:51:35 GMT 44.474796 14.669830 35,975 311 427 64
2021-10-17 18:51:33 GMT 44.472977 14.672895 35,975 311 425 0
2021-10-17 18:51:30 GMT 44.468536 14.680285 35,975 311 426 0
2021-10-17 18:51:26 GMT 44.463112 14.689257 35,975 311 426 0
2021-10-17 18:51:23 GMT 44.459885 14.694606 35,975 311 426 0
2021-10-17 18:51:20 GMT 44.455032 14.702584 35,975 311 426 0
2021-10-17 18:51:17 GMT 44.450542 14.710090 35,975 311 426 0
2021-10-17 18:51:14 GMT 44.449081 14.712459 35,975 311 426 0
2021-10-17 18:51:11 GMT 44.444138 14.720699 35,975 311 425 0
2021-10-17 18:51:08 GMT 44.437454 14.731816 35,975 311 425 0
2021-10-17 18:51:05 GMT 44.437454 14.731816 35,975 311 425 0
2021-10-17 18:51:03 GMT 44.433971 14.737556 35,975 311 425 0
2021-10-17 18:51:00 GMT 44.429642 14.744724 35,975 311 425 0
2021-10-17 18:50:56 GMT 44.426056 14.750650 35,975 311 425 0
2021-10-17 18:50:53 GMT 44.422424 14.756648 35,975 311 424 0
2021-10-17 18:50:50 GMT 44.412697 14.772726 35,975 311 424 0
2021-10-17 18:50:47 GMT 44.412697 14.772726 35,975 311 424 0
2021-10-17 18:50:44 GMT 44.411362 14.774911 35,975 311 424 0
2021-10-17 18:50:42 GMT 44.408043 14.780430 35,975 311 423 0
2021-10-17 18:50:38 GMT 44.402023 14.790344 35,975 311 422 0
2021-10-17 18:50:35 GMT 44.399570 14.794431 35,975 311 422 0
2021-10-17 18:50:33 GMT 44.396851 14.798911 35,975 311 422 0
2021-10-17 18:50:30 GMT 44.392822 14.805581 35,975 311 422 0
2021-10-17 18:50:28 GMT 44.390865 14.808766 35,975 311 422 0
2021-10-17 18:50:25 GMT 44.386581 14.815867 35,975 311 422 0
2021-10-17 18:50:23 GMT 44.384159 14.819820 35,975 311 422 0
2021-10-17 18:50:20 GMT 44.374008 14.836578 35,975 311 422 0
2021-10-17 18:50:15 GMT 44.374008 14.836578 35,975 311 422 0
2021-10-17 18:50:13 GMT 44.370800 14.841859 35,975 311 422 0
2021-10-17 18:50:10 GMT 44.367496 14.847286 35,975 311 422 0
2021-10-17 18:50:08 GMT 44.364983 14.851439 35,975 311 422 0
2021-10-17 18:50:04 GMT 44.358929 14.861420 35,975 311 422 0
2021-10-17 18:49:59 GMT 44.352676 14.871695 35,975 311 422 0
2021-10-17 18:49:53 GMT 44.346130 14.882486 35,975 311 422 0
2021-10-17 18:49:49 GMT 44.340591 14.891641 35,975 311 422 0
2021-10-17 18:49:45 GMT 44.335419 14.900142 35,975 311 422 0
2021-10-17 18:49:43 GMT 44.333466 14.903356 35,975 311 422 0
2021-10-17 18:49:39 GMT 44.328964 14.910671 35,975 311 422 0
2021-10-17 18:49:37 GMT 44.325668 14.916098 35,975 311 422 0
2021-10-17 18:49:34 GMT 44.319080 14.927003 35,975 311 422 0
2021-10-17 18:49:28 GMT 44.310097 14.941741 35,975 311 422 0
2021-10-17 18:49:25 GMT 44.310097 14.941741 35,975 311 422 0
2021-10-17 18:49:22 GMT 44.306789 14.947100 36,000 311 422 0
2021-10-17 18:49:19 GMT 44.300949 14.956774 36,000 311 422 -64
2021-10-17 18:49:12 GMT 44.293488 14.969003 36,000 311 422 0
2021-10-17 18:49:08 GMT 44.288406 14.977308 36,000 311 422 0
2021-10-17 18:49:05 GMT 44.285751 14.981624 36,000 311 422 0
2021-10-17 18:49:01 GMT 44.280907 14.989639 36,000 311 422 0
2021-10-17 18:48:58 GMT 44.277191 14.995749 36,000 311 422 0
2021-10-17 18:48:56 GMT 44.273254 15.002158 36,000 311 422 0
2021-10-17 18:48:51 GMT 44.268173 15.010463 36,000 311 423 64
2021-10-17 18:48:48 GMT 44.260345 15.023346 36,000 311 423 64
2021-10-17 18:48:45 GMT 44.260345 15.023346 35,975 311 423 64
2021-10-17 18:48:42 GMT 44.255905 15.030605 35,975 311 423 64
2021-10-17 18:48:38 GMT 44.250595 15.039302 35,975 311 423 0
2021-10-17 18:48:35 GMT 44.247391 15.044571 35,975 311 423 0
2021-10-17 18:48:30 GMT 44.241802 15.053748 35,975 311 423 0
2021-10-17 18:48:27 GMT 44.229309 15.074223 35,975 311 424 64
2021-10-17 18:48:21 GMT 44.229309 15.074223 35,975 311 424 0
2021-10-17 18:48:18 GMT 44.220623 15.088449 35,975 311 424 0
2021-10-17 18:48:14 GMT 44.220623 15.088449 35,975 311 424 0
2021-10-17 18:48:11 GMT 44.215408 15.096957 35,975 311 424 0
2021-10-17 18:48:07 GMT 44.212967 15.100970 35,975 311 424 0
2021-10-17 18:48:05 GMT 44.209076 15.107340 35,975 311 425 -64
2021-10-17 18:48:01 GMT 44.204609 15.114575 35,975 311 424 0
2021-10-17 18:47:57 GMT 44.198868 15.124054 35,975 311 424 0
2021-10-17 18:47:48 GMT 44.187569 15.142430 35,975 311 425 -64
2021-10-17 18:47:45 GMT 44.183659 15.148904 35,975 311 425 -64
2021-10-17 18:47:41 GMT 44.178539 15.157209 35,975 311 425 -64
2021-10-17 18:47:37 GMT 44.172729 15.166690 36,000 311 425 -64
2021-10-17 18:47:33 GMT 44.168858 15.172969 36,000 311 425 -64
2021-10-17 18:47:28 GMT 44.161594 15.184806 36,000 311 425 -64
2021-10-17 18:47:26 GMT 44.159866 15.187641 36,000 311 426 -64
2021-10-17 18:47:23 GMT 44.156296 15.193453 36,000 311 426 -64
2021-10-17 18:47:20 GMT 44.151031 15.202012 36,000 311 426 -64
2021-10-17 18:47:17 GMT 44.148376 15.206356 36,025 311 426 -64
2021-10-17 18:47:14 GMT 44.143299 15.214560 36,000 311 426 -64
2021-10-17 18:47:10 GMT 44.139202 15.221165 36,025 311 426 -64
2021-10-17 18:47:06 GMT 44.134083 15.229470 36,025 311 426 -64
2021-10-17 18:47:03 GMT 44.130295 15.235610 36,025 311 426 -64
2021-10-17 18:46:56 GMT 44.119324 15.253405 36,025 311 426 -64
2021-10-17 18:46:54 GMT 44.119324 15.253405 36,025 311 426 -64
2021-10-17 18:46:47 GMT 44.109741 15.268888 36,025 311 427 -64
2021-10-17 18:46:45 GMT 44.107819 15.272018 36,025 311 428 -64
2021-10-17 18:46:39 GMT 44.099808 15.284921 36,050 311 428 -64
2021-10-17 18:46:36 GMT 44.093952 15.294407 36,050 311 428 0
2021-10-17 18:46:33 GMT 44.092072 15.297440 36,050 311 428 0
2021-10-17 18:46:27 GMT 44.081200 15.315072 36,025 311 431 0
2021-10-17 18:46:21 GMT 44.075821 15.323756 36,025 311 429 0
2021-10-17 18:46:17 GMT 44.070446 15.332402 36,025 311 429 64
2021-10-17 18:46:15 GMT 44.068352 15.335737 36,025 311 431 0
2021-10-17 18:46:12 GMT 44.064999 15.341230 36,025 311 431 0
2021-10-17 18:46:06 GMT 44.057419 15.353457 36,025 311 431 0
2021-10-17 18:46:02 GMT 44.052109 15.362080 36,025 311 431 64
2021-10-17 18:45:56 GMT 44.044327 15.374664 36,025 311 431 0
2021-10-17 18:45:53 GMT 44.035217 15.389418 36,025 311 431 0
2021-10-17 18:45:44 GMT 44.028782 15.399824 36,025 311 432 64
2021-10-17 18:45:41 GMT 44.025009 15.405906 36,025 311 432 64
2021-10-17 18:45:34 GMT 44.014721 15.422516 36,025 311 433 0
2021-10-17 18:45:26 GMT 44.001781 15.443311 36,025 311 433 0
2021-10-17 18:45:24 GMT 44.001781 15.443311 36,025 311 433 0
2021-10-17 18:45:21 GMT 43.997818 15.449716 36,025 311 433 0
2021-10-17 18:45:14 GMT 43.977081 15.483186 36,000 311 433 0
2021-10-17 18:45:05 GMT 43.977081 15.483186 36,000 311 433 64
2021-10-17 18:45:02 GMT 43.974197 15.487784 36,000 311 433 64
2021-10-17 18:44:58 GMT 43.968887 15.496471 36,000 311 433 0
2021-10-17 18:44:55 GMT 43.963840 15.504521 36,000 311 433 0
2021-10-17 18:44:52 GMT 43.958626 15.512957 36,000 311 433 0
2021-10-17 18:44:43 GMT 43.948990 15.528521 36,000 311 433 0
2021-10-17 18:44:35 GMT 43.938377 15.545589 36,000 311 433 0
2021-10-17 18:44:32 GMT 43.934746 15.551474 36,000 311 433 0
2021-10-17 18:44:24 GMT 43.924484 15.567946 36,000 311 433 0
2021-10-17 18:44:21 GMT 43.919632 15.575675 36,000 311 433 0
2021-10-17 18:44:14 GMT 43.911190 15.589207 36,000 311 433 0
2021-10-17 18:44:11 GMT 43.897705 15.610934 36,000 311 433 0
2021-10-17 18:44:05 GMT 43.895096 15.615149 36,000 311 433 0
2021-10-17 18:44:02 GMT 43.895096 15.615149 36,000 311 433 0
2021-10-17 18:43:54 GMT 43.884701 15.631779 36,000 311 433 0
2021-10-17 18:43:50 GMT 43.878277 15.642046 36,000 311 433 -64
2021-10-17 18:43:41 GMT 43.867710 15.659049 36,000 311 432 -64
2021-10-17 18:43:36 GMT 43.861221 15.669378 36,000 311 432 -64
2021-10-17 18:43:32 GMT 43.855515 15.678471 36,025 311 432 -64
2021-10-17 18:43:26 GMT 43.846527 15.692756 36,025 311 432 -64
2021-10-17 18:43:22 GMT 43.834076 15.712621 36,025 311 432 0
2021-10-17 18:43:10 GMT 43.826836 15.724182 36,025 311 432 0
2021-10-17 18:43:03 GMT 43.818459 15.737523 36,025 311 432 0
2021-10-17 18:42:59 GMT 43.811050 15.749348 36,025 311 432 0
2021-10-17 18:42:54 GMT 43.805748 15.757795 36,025 311 432 0
2021-10-17 18:42:51 GMT 43.801701 15.764269 36,025 311 432 0
2021-10-17 18:42:48 GMT 43.798737 15.768958 36,025 311 432 0
2021-10-17 18:42:43 GMT 43.791550 15.780455 36,025 311 433 0
2021-10-17 18:42:40 GMT 43.788025 15.786140 36,025 311 433 0
2021-10-17 18:42:37 GMT 43.784149 15.792258 36,025 311 433 0
2021-10-17 18:42:34 GMT 43.779099 15.800320 36,025 311 433 0
2021-10-17 18:42:31 GMT 43.776489 15.804472 36,025 311 433 0
2021-10-17 18:42:23 GMT 43.765457 15.822037 36,000 311 433 0
2021-10-17 18:42:20 GMT 43.760971 15.829127 36,000 311 433 0
2021-10-17 18:42:14 GMT 43.753647 15.840816 36,000 311 433 0
2021-10-17 18:42:11 GMT 43.749573 15.847267 36,000 311 433 0
2021-10-17 18:42:08 GMT 43.744583 15.855188 36,000 311 433 0
2021-10-17 18:42:03 GMT 43.739784 15.862819 36,000 311 433 0
2021-10-17 18:41:59 GMT 43.733688 15.872498 36,000 311 433 0
2021-10-17 18:41:48 GMT 43.719162 15.895517 36,000 311 433 0
2021-10-17 18:41:44 GMT 43.705994 15.916443 36,025 311 433 -64
2021-10-17 18:41:39 GMT 43.705994 15.916443 36,000 311 433 -64
2021-10-17 18:41:32 GMT 43.698727 15.928018 36,025 312 432 -64
2021-10-17 18:41:27 GMT 43.691711 15.939118 36,025 312 432 -64
2021-10-17 18:41:20 GMT 43.682419 15.953873 36,025 312 432 0
2021-10-17 18:41:18 GMT 43.679592 15.958296 36,025 312 432 0
2021-10-17 18:41:12 GMT 43.672005 15.970394 36,025 312 432 0
2021-10-17 18:41:07 GMT 43.665813 15.980137 36,025 312 432 0
2021-10-17 18:41:02 GMT 43.659714 15.989770 36,025 312 432 0
2021-10-17 18:40:58 GMT 43.653030 16.000309 36,025 312 432 0
2021-10-17 18:40:53 GMT 43.645569 16.012127 36,025 312 432 0
2021-10-17 18:40:48 GMT 43.642212 16.017412 36,025 312 432 0
2021-10-17 18:40:46 GMT 43.638107 16.023943 36,025 312 432 64
2021-10-17 18:40:42 GMT 43.633392 16.031416 36,000 312 432 64
2021-10-17 18:40:40 GMT 43.629044 16.038252 36,000 312 431 0
2021-10-17 18:40:37 GMT 43.625172 16.044355 36,000 312 431 0
2021-10-17 18:40:31 GMT 43.619678 16.053053 36,000 312 431 64
2021-10-17 18:40:29 GMT 43.615814 16.059137 36,000 312 431 0
2021-10-17 18:40:26 GMT 43.612015 16.065142 36,000 312 431 0
2021-10-17 18:40:21 GMT 43.605972 16.074659 36,000 312 430 0
2021-10-17 18:40:19 GMT 43.602779 16.079735 36,000 312 430 64
2021-10-17 18:40:15 GMT 43.597733 16.087688 36,000 312 430 64
2021-10-17 18:40:11 GMT 43.593376 16.094645 36,000 312 430 0
2021-10-17 18:40:09 GMT 43.586021 16.106218 36,000 312 430 64
2021-10-17 18:40:06 GMT 43.586021 16.106218 36,000 312 430 64
2021-10-17 18:40:01 GMT 43.578480 16.118187 36,000 312 430 64
2021-10-17 18:39:57 GMT 43.572334 16.127865 35,975 311 430 64
2021-10-17 18:39:51 GMT 43.564819 16.139746 35,975 311 430 64
2021-10-17 18:39:46 GMT 43.558823 16.149263 35,975 312 430 64
2021-10-17 18:39:41 GMT 43.553192 16.158077 35,975 312 430 0
2021-10-17 18:39:39 GMT 43.549107 16.164616 35,975 312 430 64
2021-10-17 18:39:35 GMT 43.545799 16.169718 35,975 312 430 64
2021-10-17 18:39:31 GMT 43.539936 16.179003 35,975 312 429 64
2021-10-17 18:39:28 GMT 43.536026 16.185150 35,950 312 429 64
2021-10-17 18:39:25 GMT 43.532822 16.190207 35,950 312 429 64
2021-10-17 18:39:19 GMT 43.524353 16.203493 35,950 312 429 0
2021-10-17 18:39:16 GMT 43.519867 16.210455 35,950 312 428 0
2021-10-17 18:39:12 GMT 43.515121 16.217978 35,950 312 428 0
2021-10-17 18:39:10 GMT 43.510895 16.224571 35,950 312 428 -64
2021-10-17 18:39:06 GMT 43.505859 16.232496 35,975 312 428 -64
2021-10-17 18:38:58 GMT 43.496658 16.246927 35,975 312 428 -64
2021-10-17 18:38:55 GMT 43.492630 16.253250 35,975 312 428 -64
2021-10-17 18:38:52 GMT 43.488235 16.260214 35,975 312 427 -64
2021-10-17 18:38:47 GMT 43.482445 16.269247 35,975 312 426 0
2021-10-17 18:38:45 GMT 43.479126 16.274458 35,975 312 427 0
2021-10-17 18:38:41 GMT 43.475052 16.280781 35,975 312 426 0
2021-10-17 18:38:37 GMT 43.469830 16.289062 35,975 312 426 0
2021-10-17 18:38:34 GMT 43.466492 16.294258 35,975 312 426 0
2021-10-17 18:38:28 GMT 43.452885 16.315481 35,975 312 427 0
2021-10-17 18:38:25 GMT 43.452885 16.315481 35,975 312 427 0
2021-10-17 18:38:19 GMT 43.445251 16.327408 35,975 312 426 0
2021-10-17 18:38:14 GMT 43.440079 16.335520 35,975 312 426 0
2021-10-17 18:38:07 GMT 43.430351 16.350599 35,975 312 426 0
2021-10-17 18:38:04 GMT 43.425980 16.357430 36,000 312 426 0
2021-10-17 18:38:00 GMT 43.421951 16.363752 36,000 312 426 0
2021-10-17 18:37:57 GMT 43.417282 16.371035 36,000 312 425 0
2021-10-17 18:37:53 GMT 43.412663 16.378262 36,000 312 426 0
2021-10-17 18:37:47 GMT 43.403164 16.393106 35,975 312 426 0
2021-10-17 18:37:43 GMT 43.399673 16.398600 36,000 312 426 0
2021-10-17 18:37:37 GMT 43.390968 16.412201 35,975 312 426 0
2021-10-17 18:37:34 GMT 43.386032 16.419918 35,975 312 426 0
2021-10-17 18:37:27 GMT 43.378143 16.432224 35,975 312 426 64
2021-10-17 18:37:23 GMT 43.372787 16.440529 35,975 312 426 64
2021-10-17 18:37:15 GMT 43.363598 16.454838 35,975 312 426 0
2021-10-17 18:37:12 GMT 43.359787 16.460777 35,975 312 426 0
2021-10-17 18:37:06 GMT 43.346649 16.481192 35,975 312 426 0
2021-10-17 18:37:03 GMT 43.346649 16.481192 35,975 312 427 0
2021-10-17 18:36:55 GMT 43.337585 16.495270 35,975 312 427 -64
2021-10-17 18:36:52 GMT 43.332870 16.502615 35,975 312 427 0
2021-10-17 18:36:46 GMT 43.324265 16.515965 35,975 312 427 -64
2021-10-17 18:36:42 GMT 43.320465 16.521841 36,000 312 427 -64
2021-10-17 18:36:35 GMT 43.311272 16.536188 36,000 312 427 0
2021-10-17 18:36:32 GMT 43.306091 16.544197 36,000 312 427 0
2021-10-17 18:36:25 GMT 43.297852 16.556971 36,000 312 427 0
2021-10-17 18:36:21 GMT 43.292789 16.564768 36,000 312 427 -64
2021-10-17 18:36:15 GMT 43.284119 16.578304 36,000 312 427 0
2021-10-17 18:36:12 GMT 43.280411 16.583990 36,000 312 427 -64
2021-10-17 18:36:06 GMT 43.271839 16.597334 36,000 312 428 0
2021-10-17 18:36:02 GMT 43.266628 16.605442 36,000 312 429 0
2021-10-17 18:35:54 GMT 43.257828 16.619045 36,000 312 429 0
2021-10-17 18:35:51 GMT 43.253311 16.626083 36,025 312 429 -64
2021-10-17 18:35:45 GMT 43.243538 16.641279 36,025 312 429 -64
2021-10-17 18:35:41 GMT 43.240002 16.646772 36,025 312 430 0
2021-10-17 18:35:34 GMT 43.231293 16.660318 36,025 312 430 -64
2021-10-17 18:35:31 GMT 43.227150 16.666782 36,025 312 430 -64
2021-10-17 18:35:24 GMT 43.217331 16.681973 36,025 312 430 -64
2021-10-17 18:35:20 GMT 43.213326 16.688168 36,025 312 430 -64
2021-10-17 18:35:14 GMT 43.204109 16.702423 36,025 312 430 0
2021-10-17 18:35:10 GMT 43.200150 16.708570 36,025 312 431 0
2021-10-17 18:35:04 GMT 43.190964 16.722725 36,025 312 431 0
2021-10-17 18:35:00 GMT 43.186432 16.729687 36,050 312 432 -64
2021-10-17 18:34:53 GMT 43.176910 16.744314 36,050 312 431 0
2021-10-17 18:34:49 GMT 43.171829 16.752043 36,050 312 432 0
2021-10-17 18:34:43 GMT 43.162811 16.765903 36,025 312 432 0
2021-10-17 18:34:40 GMT 43.159470 16.771013 36,050 312 432 0
2021-10-17 18:34:32 GMT 43.148438 16.787939 36,025 312 432 0
2021-10-17 18:34:29 GMT 43.145683 16.792080 36,025 312 432 64
2021-10-17 18:34:22 GMT 43.135483 16.807741 36,025 312 433 0
2021-10-17 18:34:19 GMT 43.131912 16.813234 36,025 312 433 0
2021-10-17 18:34:12 GMT 43.122780 16.827263 36,025 312 434 0
2021-10-17 18:34:09 GMT 43.118042 16.834568 36,025 312 434 0
2021-10-17 18:34:01 GMT 43.108200 16.849770 36,025 312 434 0
2021-10-17 18:33:58 GMT 43.104355 16.855709 36,025 312 434 0
2021-10-17 18:33:49 GMT 43.091309 16.875767 36,025 312 434 0
2021-10-17 18:33:38 GMT 43.077576 16.896845 36,025 312 434 64
2021-10-17 18:33:32 GMT 43.069016 16.909939 36,025 312 434 0
2021-10-17 18:33:27 GMT 43.062241 16.920351 36,025 312 434 0
2021-10-17 18:33:19 GMT 43.051231 16.937189 36,025 312 434 0
2021-10-17 18:33:07 GMT 43.036057 16.960400 36,025 312 434 0
2021-10-17 18:32:57 GMT 43.021996 16.981920 36,000 312 433 64
2021-10-17 18:32:52 GMT 43.014267 16.993757 36,000 312 433 0
2021-10-17 18:32:47 GMT 43.009277 17.001408 36,000 312 432 64
2021-10-17 18:32:41 GMT 43.000256 17.015141 36,000 312 432 64
2021-10-17 18:32:37 GMT 42.995739 17.022074 36,000 312 432 64
2021-10-17 18:32:31 GMT 42.987030 17.035389 36,000 312 432 64
2021-10-17 18:32:26 GMT 42.981125 17.044437 36,000 312 432 0
2021-10-17 18:32:19 GMT 42.971115 17.059675 36,000 312 432 0
2021-10-17 18:32:16 GMT 42.968399 17.063812 36,000 312 432 0
2021-10-17 18:32:11 GMT 42.960220 17.076284 36,000 312 432 0
2021-10-17 18:32:07 GMT 42.955147 17.083937 36,000 312 431 0
2021-10-17 18:32:01 GMT 42.947044 17.096296 35,975 312 430 0
2021-10-17 18:31:56 GMT 42.941601 17.104601 35,975 312 430 0
2021-10-17 18:31:46 GMT 42.927887 17.125450 35,975 312 430 0
2021-10-17 18:31:40 GMT 42.918320 17.140013 35,975 312 430 0
2021-10-17 18:31:35 GMT 42.912971 17.148153 35,975 312 429 0
2021-10-17 18:31:30 GMT 42.906078 17.158617 35,975 312 429 0
2021-10-17 18:31:26 GMT 42.901192 17.166006 35,975 312 428 0
2021-10-17 18:31:19 GMT 42.892273 17.179615 35,975 312 428 0
2021-10-17 18:31:15 GMT 42.886597 17.188238 35,975 312 428 0
2021-10-17 18:31:09 GMT 42.878708 17.200144 36,000 312 428 0
2021-10-17 18:31:04 GMT 42.871536 17.211040 35,975 312 427 0
2021-10-17 18:30:59 GMT 42.865627 17.219957 36,000 312 427 0
2021-10-17 18:30:56 GMT 42.860825 17.227264 36,000 312 427 0
2021-10-17 18:30:49 GMT 42.851715 17.241062 36,000 312 427 0
2021-10-17 18:30:46 GMT 42.848419 17.246044 36,000 312 427 -64
2021-10-17 18:30:43 GMT 42.845261 17.250835 36,000 312 427 0
2021-10-17 18:30:36 GMT 42.834961 17.266356 36,000 312 427 0
2021-10-17 18:30:31 GMT 42.828571 17.276066 36,000 312 427 0
2021-10-17 18:30:24 GMT 42.819214 17.290192 36,000 312 426 0
2021-10-17 18:30:18 GMT 42.811951 17.301178 36,000 312 426 -64
2021-10-17 18:30:13 GMT 42.805389 17.311132 36,000 312 426 -64
2021-10-17 18:30:08 GMT 42.798637 17.321287 36,000 312 427 -64
2021-10-17 18:30:05 GMT 42.793991 17.328373 36,025 312 426 -64
2021-10-17 18:29:59 GMT 42.785568 17.341106 36,025 312 426 0
2021-10-17 18:29:53 GMT 42.778900 17.351181 36,025 312 426 0
2021-10-17 18:29:46 GMT 42.769730 17.365105 36,025 312 426 0
2021-10-17 18:29:43 GMT 42.765839 17.370945 36,025 312 426 0
2021-10-17 18:29:36 GMT 42.756500 17.385054 36,025 312 426 0
2021-10-17 18:29:33 GMT 42.752151 17.391607 36,025 312 426 0
2021-10-17 18:29:25 GMT 42.740215 17.409624 36,025 312 426 0
2021-10-17 18:29:22 GMT 42.738213 17.412563 36,025 312 426 0
2021-10-17 18:29:12 GMT 42.725178 17.432238 36,025 312 426 0
2021-10-17 18:29:04 GMT 42.714157 17.448849 36,025 313 426 0
2021-10-17 18:29:01 GMT 42.710861 17.453779 36,025 313 426 0
2021-10-17 18:28:54 GMT 42.700287 17.469635 36,025 313 426 0
2021-10-17 18:28:49 GMT 42.695023 17.477564 36,025 313 426 0
2021-10-17 18:28:43 GMT 42.686493 17.490362 36,025 313 426 0
2021-10-17 18:28:37 GMT 42.678581 17.502243 36,025 313 426 64
2021-10-17 18:28:33 GMT 42.672684 17.511084 36,000 313 426 64
2021-10-17 18:28:30 GMT 42.669250 17.516203 36,000 313 426 64
2021-10-17 18:28:23 GMT 42.659363 17.531059 36,000 313 425 64
2021-10-17 18:28:20 GMT 42.656513 17.535330 36,000 313 425 64
2021-10-17 18:28:13 GMT 42.646454 17.550472 36,000 313 425 64
2021-10-17 18:28:10 GMT 42.643433 17.555029 36,000 313 425 64
2021-10-17 18:28:02 GMT 42.631531 17.572819 35,975 313 425 64
2021-10-17 18:27:55 GMT 42.622696 17.586054 35,975 313 425 64
2021-10-17 18:27:52 GMT 42.618622 17.592171 35,975 313 424 64
2021-10-17 18:27:47 GMT 42.612442 17.601410 35,975 313 424 64
2021-10-17 18:27:40 GMT 42.603539 17.614725 35,950 313 424 64
2021-10-17 18:27:30 GMT 42.589851 17.635164 35,950 313 423 0
2021-10-17 18:27:22 GMT 42.579052 17.651260 35,950 313 423 0
2021-10-17 18:27:19 GMT 42.576305 17.655413 35,950 313 423 0
2021-10-17 18:27:12 GMT 42.566994 17.669336 35,950 313 422 0
2021-10-17 18:27:09 GMT 42.562805 17.675596 35,950 313 422 0
2021-10-17 18:26:59 GMT 42.549637 17.695292 35,950 313 421 0
2021-10-17 18:26:49 GMT 42.536640 17.714750 35,975 313 421 -64
2021-10-17 18:26:41 GMT 42.526169 17.730400 35,975 313 421 -64
2021-10-17 18:26:36 GMT 42.518997 17.741131 35,975 313 421 -64
2021-10-17 18:26:32 GMT 42.513840 17.748850 35,975 313 421 -64
2021-10-17 18:26:29 GMT 42.509903 17.754656 35,975 313 421 -64
2021-10-17 18:26:22 GMT 42.500702 17.768406 36,000 313 421 0
2021-10-17 18:26:10 GMT 42.485527 17.791018 36,000 313 421 -64
2021-10-17 18:26:01 GMT 42.473648 17.808651 36,000 313 421 -64
2021-10-17 18:25:52 GMT 42.460342 17.828382 36,000 313 421 -64
2021-10-17 18:25:40 GMT 42.446655 17.848631 36,000 313 421 0
2021-10-17 18:25:31 GMT 42.433960 17.867453 36,025 313 422 -64
2021-10-17 18:25:20 GMT 42.419518 17.888744 36,025 313 423 -64
2021-10-17 18:25:10 GMT 42.406631 17.907778 36,025 313 423 0
2021-10-17 18:25:00 GMT 42.393585 17.927067 36,025 313 423 64
2021-10-17 18:24:49 GMT 42.379120 17.948353 36,025 313 425 64
2021-10-17 18:24:40 GMT 42.366394 17.967140 36,025 313 425 0
2021-10-17 18:24:30 GMT 42.353119 17.986803 36,025 313 426 0
2021-10-17 18:24:20 GMT 42.340118 18.006029 36,025 313 426 0
2021-10-17 18:24:10 GMT 42.326504 18.026136 36,025 313 426 0
2021-10-17 18:24:00 GMT 42.313049 18.045938 36,025 313 426 0
2021-10-17 18:23:49 GMT 42.299423 18.066080 36,025 313 426 0
2021-10-17 18:23:40 GMT 42.286423 18.085157 36,025 313 426 0
2021-10-17 18:23:29 GMT 42.272552 18.105597 36,000 313 427 0
2021-10-17 18:23:18 GMT 42.257889 18.127123 36,000 313 427 0
2021-10-17 18:23:08 GMT 42.244583 18.146667 36,000 313 427 0
2021-10-17 18:22:59 GMT 42.231903 18.165270 36,000 313 427 0
2021-10-17 18:22:48 GMT 42.217896 18.185806 36,025 313 427 -64
2021-10-17 18:22:38 GMT 42.204803 18.204969 36,025 313 427 0
2021-10-17 18:22:29 GMT 42.191502 18.224466 36,025 313 427 0
2021-10-17 18:22:17 GMT 42.176048 18.247141 36,025 313 427 0
2021-10-17 18:22:08 GMT 42.162231 18.267391 36,025 313 427 0
2021-10-17 18:21:56 GMT 42.148815 18.286999 36,025 313 426 0
2021-10-17 18:21:48 GMT 42.137035 18.304180 36,025 313 426 64
2021-10-17 18:21:33 GMT 42.117809 18.332285 36,000 313 426 0
2021-10-17 18:21:26 GMT 42.108223 18.346273 36,000 313 426 0
2021-10-17 18:21:13 GMT 42.091049 18.371264 36,000 313 426 0
2021-10-17 18:21:07 GMT 42.083084 18.382811 36,000 313 425 64
2021-10-17 18:20:55 GMT 42.065918 18.407719 35,975 313 425 64
2021-10-17 18:20:45 GMT 42.053513 18.425695 35,975 313 424 64
2021-10-17 18:20:35 GMT 42.039558 18.445852 35,975 313 423 0
2021-10-17 18:20:26 GMT 42.027649 18.463148 35,975 313 424 0
2021-10-17 18:20:16 GMT 42.014923 18.481688 35,975 313 423 -64
2021-10-17 18:20:06 GMT 42.001785 18.500790 35,975 313 423 -64
2021-10-17 18:19:56 GMT 41.988396 18.520393 35,975 313 422 0
2021-10-17 18:19:46 GMT 41.974457 18.540739 36,000 313 421 -64
2021-10-17 18:19:35 GMT 41.960697 18.560890 36,000 313 421 0
2021-10-17 18:19:25 GMT 41.947998 18.579441 36,000 313 421 0
2021-10-17 18:19:15 GMT 41.934162 18.599791 36,000 313 421 0
2021-10-17 18:19:06 GMT 41.921585 18.618206 36,000 314 420 0
2021-10-17 18:18:56 GMT 41.907074 18.637432 36,000 319 420 0
2021-10-17 18:18:42 GMT 41.887939 18.658592 36,000 323 419 0
2021-10-17 18:18:30 GMT 41.868801 18.678419 36,000 323 419 0
2021-10-17 18:18:23 GMT 41.858189 18.689341 36,000 323 419 0
2021-10-17 18:18:08 GMT 41.835285 18.713037 36,000 323 419 0
2021-10-17 18:17:58 GMT 41.820786 18.728069 36,000 323 419 0
2021-10-17 18:17:54 GMT 41.813873 18.735249 36,000 323 420 0
2021-10-17 18:17:43 GMT 41.797714 18.751978 36,025 323 421 -64
2021-10-17 18:17:34 GMT 41.781193 18.769056 36,025 323 421 -64
2021-10-17 18:17:23 GMT 41.766678 18.784124 36,025 323 421 -64
2021-10-17 18:17:14 GMT 41.751770 18.799459 36,025 323 421 -64
2021-10-17 18:17:04 GMT 41.736549 18.815237 36,050 323 422 0
2021-10-17 18:16:53 GMT 41.719620 18.832689 36,050 323 422 0
2021-10-17 18:16:43 GMT 41.704288 18.848515 36,050 323 422 0
2021-10-17 18:16:34 GMT 41.689499 18.863712 36,050 323 422 64
2021-10-17 18:16:23 GMT 41.673332 18.880388 36,025 323 422 64
2021-10-17 18:16:13 GMT 41.658051 18.895985 36,025 323 423 128
2021-10-17 18:16:02 GMT 41.641891 18.912527 36,000 323 423 64
2021-10-17 18:15:53 GMT 41.626266 18.928486 35,975 323 423 64
2021-10-17 18:15:43 GMT 41.592819 18.962713 35,975 323 422 0
2021-10-17 18:15:31 GMT 41.592819 18.962713 35,975 323 422 0
2021-10-17 18:15:21 GMT 41.576569 18.979382 35,975 323 422 0
2021-10-17 18:15:04 GMT 41.551346 19.005224 35,975 323 421 0
2021-10-17 18:14:54 GMT 41.535324 19.021641 35,975 323 421 0
2021-10-17 18:14:52 GMT 41.532074 19.025011 35,975 323 421 0
2021-10-17 18:14:49 GMT 41.528275 19.028831 35,975 323 420 0
2021-10-17 18:14:42 GMT 41.516785 19.040619 35,975 323 420 0
2021-10-17 18:14:38 GMT 41.509933 19.047674 35,975 323 420 0
2021-10-17 18:14:31 GMT 41.501083 19.056723 35,975 323 420 0
2021-10-17 18:14:26 GMT 41.493313 19.064665 35,975 323 420 0
2021-10-17 18:14:21 GMT 41.485306 19.072840 35,975 323 420 0
2021-10-17 18:14:17 GMT 41.480255 19.077946 35,975 323 420 0
2021-10-17 18:14:05 GMT 41.461193 19.097368 35,975 323 420 -64
2021-10-17 18:13:58 GMT 41.450253 19.108482 35,975 323 420 0
2021-10-17 18:13:50 GMT 41.437225 19.121704 36,000 323 420 0
2021-10-17 18:13:47 GMT 41.433380 19.125637 36,000 323 420 0
2021-10-17 18:13:39 GMT 41.420319 19.138885 35,975 323 420 0
2021-10-17 18:13:29 GMT 41.404583 19.154856 35,975 323 420 0
2021-10-17 18:13:19 GMT 41.389130 19.170504 35,975 323 421 -64
2021-10-17 18:13:09 GMT 41.373230 19.186523 36,000 323 421 -64
2021-10-17 18:12:59 GMT 41.357334 19.202541 36,000 323 421 0
2021-10-17 18:12:48 GMT 41.340248 19.219770 36,000 323 421 0
2021-10-17 18:12:38 GMT 41.325493 19.234627 36,000 323 421 0
2021-10-17 18:12:28 GMT 41.309944 19.250233 36,000 323 423 0
2021-10-17 18:12:18 GMT 41.294586 19.265686 36,000 323 423 0
2021-10-17 18:12:07 GMT 41.277355 19.283066 36,000 323 423 0
2021-10-17 18:11:58 GMT 41.261215 19.299316 36,000 323 424 0
2021-10-17 18:11:50 GMT 41.250217 19.310345 36,000 323 424 0
2021-10-17 18:11:47 GMT 41.245655 19.314964 36,000 323 424 0
2021-10-17 18:11:42 GMT 41.237881 19.322828 36,000 323 424 0
2021-10-17 18:11:37 GMT 41.230061 19.330694 36,000 323 424 0
2021-10-17 18:11:32 GMT 41.222305 19.338501 36,000 323 424 0
2021-10-17 18:11:26 GMT 41.212975 19.347860 36,000 323 426 0
2021-10-17 18:11:18 GMT 41.200455 19.360470 36,000 323 426 0
2021-10-17 18:11:16 GMT 41.198406 19.362530 36,000 323 426 0
2021-10-17 18:11:07 GMT 41.181786 19.379259 36,000 323 426 0
2021-10-17 18:10:55 GMT 41.164654 19.396425 36,000 323 426 0
2021-10-17 18:10:54 GMT 41.163258 19.397799 36,000 323 426 -64
2021-10-17 18:10:50 GMT 41.156891 19.404175 36,000 323 426 0
2021-10-17 18:10:44 GMT 41.147198 19.413841 36,000 323 426 -64
2021-10-17 18:10:39 GMT 41.140366 19.420715 36,000 323 426 0
2021-10-17 18:10:34 GMT 41.131393 19.429688 36,000 323 427 0
2021-10-17 18:10:29 GMT 41.124619 19.436462 36,000 323 427 0
2021-10-17 18:10:24 GMT 41.115646 19.445435 36,025 323 427 0
2021-10-17 18:10:17 GMT 41.105209 19.455811 36,025 323 428 0
2021-10-17 18:10:13 GMT 41.098827 19.462217 36,025 323 428 0
2021-10-17 18:10:09 GMT 41.091568 19.469460 36,025 323 428 0
2021-10-17 18:10:06 GMT 41.085888 19.475140 36,025 323 428 0
2021-10-17 18:10:03 GMT 41.082397 19.478573 36,025 323 428 0
2021-10-17 18:09:58 GMT 41.074993 19.486000 36,025 323 428 0
2021-10-17 18:09:52 GMT 41.064846 19.496113 36,025 323 428 0
2021-10-17 18:09:48 GMT 41.058655 19.502232 36,025 323 428 0
2021-10-17 18:09:45 GMT 41.053391 19.507507 36,025 323 429 0
2021-10-17 18:09:42 GMT 41.050049 19.510864 36,025 323 429 0
2021-10-17 18:09:37 GMT 41.041569 19.519335 36,025 323 429 0
2021-10-17 18:09:32 GMT 41.034210 19.526672 36,025 323 429 0
2021-10-17 18:09:27 GMT 41.025417 19.535439 36,025 323 429 0
2021-10-17 18:09:24 GMT 41.021667 19.539124 36,025 323 429 0
2021-10-17 18:09:21 GMT 41.016197 19.544615 36,025 323 429 0
2021-10-17 18:09:15 GMT 41.005585 19.555227 36,025 323 429 0
2021-10-17 18:09:11 GMT 41.000046 19.560783 36,025 323 429 0
2021-10-17 18:09:04 GMT 40.988846 19.571899 36,025 324 430 0
2021-10-17 18:09:01 GMT 40.984638 19.576139 36,025 324 430 0
2021-10-17 18:08:54 GMT 40.972916 19.587769 36,025 324 431 0
2021-10-17 18:08:51 GMT 40.968292 19.592346 36,025 324 431 0
2021-10-17 18:08:43 GMT 40.955383 19.605164 36,025 324 431 0
2021-10-17 18:08:40 GMT 40.951080 19.609436 36,025 324 431 0
2021-10-17 18:08:33 GMT 40.939201 19.621206 36,025 323 432 0
2021-10-17 18:08:30 GMT 40.934509 19.625854 36,025 323 432 0
2021-10-17 18:08:23 GMT 40.921921 19.638367 36,025 323 432 -64
2021-10-17 18:08:20 GMT 40.918625 19.641621 36,025 323 432 0
2021-10-17 18:08:13 GMT 40.907314 19.652857 36,025 324 431 0
2021-10-17 18:08:10 GMT 40.902786 19.657349 36,025 324 431 0
2021-10-17 18:08:03 GMT 40.891857 19.668213 36,025 324 431 64
2021-10-17 18:08:00 GMT 40.886738 19.673267 36,025 324 431 64
2021-10-17 18:07:52 GMT 40.874962 19.684940 36,025 324 431 64
2021-10-17 18:07:49 GMT 40.870102 19.689758 36,025 324 431 64
2021-10-17 18:07:42 GMT 40.858429 19.701294 36,025 324 431 64
2021-10-17 18:07:39 GMT 40.853733 19.705976 36,000 323 432 64
2021-10-17 18:07:33 GMT 40.842499 19.717102 36,000 323 432 64
2021-10-17 18:07:29 GMT 40.837234 19.722290 36,000 323 432 64
2021-10-17 18:07:22 GMT 40.826523 19.732910 36,000 324 431 0
2021-10-17 18:07:18 GMT 40.820938 19.738403 36,000 324 431 0
2021-10-17 18:07:12 GMT 40.810730 19.748535 36,000 324 431 0
2021-10-17 18:07:08 GMT 40.804367 19.754822 36,000 324 431 0
2021-10-17 18:07:01 GMT 40.794098 19.764965 36,000 324 431 0
2021-10-17 18:06:57 GMT 40.787476 19.771545 36,000 324 431 0
2021-10-17 18:06:51 GMT 40.776947 19.781921 36,000 324 430 0
2021-10-17 18:06:47 GMT 40.771362 19.787415 36,000 324 430 0
2021-10-17 18:06:40 GMT 40.760422 19.798279 36,000 324 430 0
2021-10-17 18:06:37 GMT 40.754761 19.803856 36,000 324 430 0
2021-10-17 18:06:30 GMT 40.744034 19.814453 36,000 324 430 0
2021-10-17 18:06:27 GMT 40.738632 19.819763 36,000 324 430 0
2021-10-17 18:06:20 GMT 40.727325 19.830872 36,000 324 429 0
2021-10-17 18:06:17 GMT 40.722500 19.835629 36,000 324 429 0
2021-10-17 18:06:09 GMT 40.710983 19.846985 36,000 324 428 0
2021-10-17 18:06:06 GMT 40.705975 19.851919 36,000 324 428 0
2021-10-17 18:05:59 GMT 40.694710 19.862968 35,975 324 428 0
2021-10-17 18:05:56 GMT 40.689697 19.867920 35,975 324 428 0
2021-10-17 18:05:48 GMT 40.676788 19.880634 35,975 324 428 0
2021-10-17 18:05:44 GMT 40.671616 19.885681 35,975 324 428 64
2021-10-17 18:05:38 GMT 40.661774 19.895325 35,975 324 428 64
2021-10-17 18:05:35 GMT 40.656490 19.900547 35,975 324 428 64
2021-10-17 18:05:25 GMT 40.640800 19.916027 35,975 324 428 64
2021-10-17 18:05:17 GMT 40.628174 19.928345 35,950 324 428 0
2021-10-17 18:05:14 GMT 40.624054 19.932434 35,975 324 428 0
2021-10-17 18:05:10 GMT 40.614716 19.941589 35,950 324 428 0
2021-10-17 18:05:07 GMT 40.612335 19.943909 35,950 324 428 0
2021-10-17 18:05:04 GMT 40.607758 19.948425 35,950 324 428 0
2021-10-17 18:04:59 GMT 40.598877 19.957092 35,950 324 427 0
2021-10-17 18:04:54 GMT 40.591599 19.964233 35,950 324 427 0
2021-10-17 18:04:47 GMT 40.579632 19.975954 35,950 324 428 0
2021-10-17 18:04:44 GMT 40.575676 19.979824 35,950 324 427 0
2021-10-17 18:04:36 GMT 40.562500 19.992683 35,950 324 427 0
2021-10-17 18:04:33 GMT 40.559143 19.996033 35,975 324 427 0
2021-10-17 18:04:27 GMT 40.546394 20.008537 35,975 324 427 0
2021-10-17 18:04:23 GMT 40.542984 20.011841 35,975 324 427 0
2021-10-17 18:04:19 GMT 40.534523 20.020149 35,975 324 427 0
2021-10-17 18:04:13 GMT 40.526424 20.028013 35,975 324 427 -64
2021-10-17 18:04:07 GMT 40.516846 20.037415 35,975 324 427 0
2021-10-17 18:04:02 GMT 40.509991 20.044182 35,975 324 427 0
2021-10-17 18:03:56 GMT 40.499516 20.054419 35,975 324 427 -64
2021-10-17 18:03:52 GMT 40.493591 20.060181 35,975 324 428 0
2021-10-17 18:03:45 GMT 40.481735 20.071838 36,000 324 428 -64
2021-10-17 18:03:42 GMT 40.477497 20.075954 36,000 324 428 0
2021-10-17 18:03:32 GMT 40.461018 20.092058 36,000 324 428 -64
2021-10-17 18:03:21 GMT 40.443886 20.108850 36,000 324 428 -64
2021-10-17 18:03:10 GMT 40.427261 20.125122 36,000 324 429 -64
2021-10-17 18:03:01 GMT 40.411972 20.140076 36,000 324 430 0
2021-10-17 18:02:50 GMT 40.395241 20.156355 36,025 324 431 0
2021-10-17 18:02:40 GMT 40.379013 20.172119 36,025 324 431 0
2021-10-17 18:02:30 GMT 40.362122 20.188477 36,025 324 432 0
2021-10-17 18:02:20 GMT 40.345985 20.204107 36,025 324 433 0
2021-10-17 18:02:16 GMT 40.339375 20.210474 36,025 324 434 0
2021-10-17 18:02:08 GMT 40.328156 20.221375 36,025 324 434 -64
2021-10-17 18:01:59 GMT 40.312683 20.236389 36,025 324 434 -64
2021-10-17 18:01:48 GMT 40.295803 20.252733 36,050 324 435 -64
2021-10-17 18:01:38 GMT 40.278534 20.269409 36,025 324 435 0
2021-10-17 18:01:28 GMT 40.263153 20.284302 36,025 324 437 0
2021-10-17 18:01:18 GMT 40.246124 20.300842 36,050 324 437 0
2021-10-17 18:01:07 GMT 40.229141 20.317280 36,050 324 438 0
2021-10-17 18:00:57 GMT 40.212849 20.333010 36,050 324 439 0
2021-10-17 18:00:47 GMT 40.195904 20.349363 36,050 324 439 0
2021-10-17 18:00:36 GMT 40.178722 20.365906 36,050 324 439 0
2021-10-17 18:00:26 GMT 40.161987 20.382080 36,025 324 439 64
2021-10-17 18:00:16 GMT 40.145115 20.398365 36,025 324 440 64
2021-10-17 18:00:05 GMT 40.127422 20.415407 36,025 324 440 0
2021-10-17 18:00:02 GMT 40.121109 20.421509 36,025 324 440 0
2021-10-17 17:59:55 GMT 40.110245 20.432011 36,025 324 440 -64
2021-10-17 17:59:44 GMT 40.093277 20.448303 36,025 324 439 0
2021-10-17 17:59:34 GMT 40.076450 20.464346 36,025 324 440 0
2021-10-17 17:59:24 GMT 40.059631 20.480347 36,025 324 439 0
2021-10-17 17:59:13 GMT 40.042419 20.496765 36,000 324 438 64
2021-10-17 17:59:03 GMT 40.025070 20.513245 36,000 324 438 0
2021-10-17 17:58:50 GMT 40.004425 20.532837 36,000 324 437 64
2021-10-17 17:58:43 GMT 39.993073 20.543686 36,000 324 437 64
2021-10-17 17:58:40 GMT 39.988266 20.548279 36,000 324 437 64
2021-10-17 17:58:33 GMT 39.976780 20.559229 35,975 324 437 64
2021-10-17 17:58:30 GMT 39.960297 20.575012 35,975 324 437 64
2021-10-17 17:58:23 GMT 39.960297 20.575012 35,975 324 437 64
2021-10-17 17:58:18 GMT 39.952972 20.582031 35,975 324 436 0
2021-10-17 17:58:12 GMT 39.943123 20.591375 35,975 324 435 0
2021-10-17 17:58:09 GMT 39.936790 20.597429 35,975 324 435 -64
2021-10-17 17:58:06 GMT 39.933426 20.600586 35,975 324 435 -64
2021-10-17 17:58:02 GMT 39.926689 20.606981 35,975 324 435 0
2021-10-17 17:57:56 GMT 39.915985 20.617126 35,975 324 434 0
2021-10-17 17:57:50 GMT 39.904114 20.628357 35,975 324 434 0
2021-10-17 17:57:46 GMT 39.899689 20.632563 35,975 324 433 0
2021-10-17 17:57:41 GMT 39.891964 20.639893 35,975 324 433 0
2021-10-17 17:57:35 GMT 39.882095 20.649231 35,975 324 433 0
2021-10-17 17:57:31 GMT 39.876461 20.654602 35,975 324 432 0
2021-10-17 17:57:27 GMT 39.869663 20.661072 35,975 324 432 0
2021-10-17 17:57:21 GMT 39.860092 20.670179 35,975 324 432 0
2021-10-17 17:57:17 GMT 39.853317 20.676628 35,975 324 432 0
2021-10-17 17:57:14 GMT 39.849182 20.680542 35,975 324 432 0
2021-10-17 17:57:10 GMT 39.842896 20.686523 35,975 324 432 0
2021-10-17 17:57:04 GMT 39.832214 20.696690 35,975 324 431 0
2021-10-17 17:57:00 GMT 39.826218 20.702362 35,975 324 431 0
2021-10-17 17:56:56 GMT 39.819946 20.708332 35,975 324 431 0
2021-10-17 17:56:53 GMT 39.815197 20.712891 35,975 324 431 0
2021-10-17 17:56:50 GMT 39.810219 20.717651 35,975 324 431 -64
2021-10-17 17:56:46 GMT 39.801559 20.725891 35,975 324 431 -64
2021-10-17 17:56:43 GMT 39.799000 20.728333 35,975 324 431 0
2021-10-17 17:56:40 GMT 39.793365 20.733704 35,975 324 430 0
2021-10-17 17:56:33 GMT 39.782364 20.744219 35,975 324 431 -64
2021-10-17 17:56:29 GMT 39.776791 20.749451 36,000 324 431 -64
2021-10-17 17:56:25 GMT 39.769318 20.756577 36,000 324 431 -64
2021-10-17 17:56:22 GMT 39.764969 20.760696 36,000 324 431 -64
2021-10-17 17:56:19 GMT 39.759796 20.765533 36,000 325 431 -64
2021-10-17 17:56:15 GMT 39.753662 20.771324 36,000 325 431 -64
2021-10-17 17:56:08 GMT 39.743088 20.781250 36,000 325 431 -64
2021-10-17 17:56:04 GMT 39.735901 20.787985 36,000 325 431 0
2021-10-17 17:56:01 GMT 39.730473 20.793030 36,000 325 431 0
2021-10-17 17:55:57 GMT 39.724701 20.798523 36,025 324 430 0
2021-10-17 17:55:54 GMT 39.720612 20.802433 36,025 323 431 0
2021-10-17 17:55:47 GMT 39.708527 20.814672 36,025 321 431 0
2021-10-17 17:55:44 GMT 39.704124 20.819336 36,025 321 431 0
2021-10-17 17:55:37 GMT 39.693928 20.830566 36,025 319 431 0
2021-10-17 17:55:34 GMT 39.688854 20.836426 36,025 318 431 0
2021-10-17 17:55:29 GMT 39.682434 20.843990 36,025 317 432 0
2021-10-17 17:55:26 GMT 39.677124 20.850464 36,025 317 432 0
2021-10-17 17:55:23 GMT 39.673553 20.854856 36,025 317 432 0
2021-10-17 17:55:17 GMT 39.664646 20.865784 36,025 317 432 0
2021-10-17 17:55:11 GMT 39.655804 20.876709 36,025 317 433 0
2021-10-17 17:55:07 GMT 39.649796 20.884113 36,025 317 432 0
2021-10-17 17:55:03 GMT 39.643570 20.891817 36,025 317 432 0
2021-10-17 17:54:56 GMT 39.634552 20.902863 36,000 317 433 0
2021-10-17 17:54:52 GMT 39.628418 20.910326 36,025 317 433 64
2021-10-17 17:54:46 GMT 39.619812 20.920895 36,025 317 433 64
2021-10-17 17:54:41 GMT 39.612534 20.929790 36,000 317 434 0
2021-10-17 17:54:35 GMT 39.603653 20.940659 36,000 317 434 64
2021-10-17 17:54:31 GMT 39.597839 20.947823 36,000 317 434 0
2021-10-17 17:54:25 GMT 39.589188 20.958496 36,000 317 434 0
2021-10-17 17:54:21 GMT 39.583508 20.965454 36,000 317 435 0
2021-10-17 17:54:17 GMT 39.576805 20.973694 36,000 317 435 0
2021-10-17 17:54:14 GMT 39.573032 20.978333 36,000 317 435 0
2021-10-17 17:54:11 GMT 39.568863 20.983469 36,000 317 435 0
2021-10-17 17:54:05 GMT 39.557579 20.997314 36,000 317 435 0
2021-10-17 17:54:01 GMT 39.548824 21.008057 36,000 317 435 0
2021-10-17 17:53:55 GMT 39.544636 21.013306 36,000 317 435 -64
2021-10-17 17:53:51 GMT 39.538879 21.020369 36,000 317 435 0
2021-10-17 17:53:45 GMT 39.529926 21.031372 36,000 317 434 0
2021-10-17 17:53:40 GMT 39.523827 21.038879 36,025 317 434 -64
2021-10-17 17:53:34 GMT 39.514618 21.050282 36,025 317 434 0
2021-10-17 17:53:29 GMT 39.507935 21.058521 36,025 317 434 0
2021-10-17 17:53:24 GMT 39.499374 21.069090 36,025 317 434 0
2021-10-17 17:53:20 GMT 39.493755 21.075989 36,025 317 434 0
2021-10-17 17:53:14 GMT 39.484818 21.087004 36,025 317 435 0
2021-10-17 17:53:09 GMT 39.472805 21.101746 36,025 317 435 0
2021-10-17 17:53:03 GMT 39.469116 21.106348 36,025 317 434 0
2021-10-17 17:52:57 GMT 39.460751 21.116638 36,025 317 434 0
2021-10-17 17:52:53 GMT 39.454510 21.124329 36,025 317 435 0
2021-10-17 17:52:49 GMT 39.448608 21.131605 36,025 317 435 0
2021-10-17 17:52:43 GMT 39.435196 21.148085 36,025 317 435 0
2021-10-17 17:52:30 GMT 39.416199 21.171387 36,000 317 434 0
2021-10-17 17:52:17 GMT 39.397293 21.194477 36,000 317 435 0
2021-10-17 17:52:12 GMT 39.394501 21.197882 36,000 317 435 0
2021-10-17 17:52:01 GMT 39.379375 21.216309 36,000 317 435 0
2021-10-17 17:51:51 GMT 39.359825 21.240112 36,000 317 434 64
2021-10-17 17:51:41 GMT 39.349548 21.252634 35,975 317 434 64
2021-10-17 17:51:37 GMT 39.339890 21.264338 35,975 317 434 64
2021-10-17 17:51:31 GMT 39.334671 21.270725 35,975 317 434 64
2021-10-17 17:51:20 GMT 39.319462 21.289368 35,975 317 434 64
2021-10-17 17:51:10 GMT 39.304276 21.307983 35,975 317 433 0
2021-10-17 17:50:59 GMT 39.283710 21.333069 35,975 317 432 0
2021-10-17 17:50:46 GMT 39.264484 21.356445 35,975 317 432 0
2021-10-17 17:50:38 GMT 39.258389 21.363892 35,975 317 432 0
2021-10-17 17:50:29 GMT 39.244701 21.380493 35,975 317 432 -64
2021-10-17 17:50:18 GMT 39.229248 21.399277 35,975 317 432 0
2021-10-17 17:50:06 GMT 39.207600 21.425476 36,000 317 432 -64
2021-10-17 17:49:53 GMT 39.188232 21.448914 36,000 317 432 0
2021-10-17 17:49:47 GMT 39.184662 21.453194 36,000 317 432 0
2021-10-17 17:49:37 GMT 39.168915 21.472240 36,000 317 432 0
2021-10-17 17:49:27 GMT 39.146301 21.499647 36,000 317 435 0
2021-10-17 17:49:14 GMT 39.131763 21.517212 36,000 317 434 0
2021-10-17 17:49:06 GMT 39.124039 21.526611 36,000 317 435 0
2021-10-17 17:49:01 GMT 39.112911 21.540039 36,000 317 435 0
2021-10-17 17:48:56 GMT 39.109314 21.544369 36,000 317 435 0
2021-10-17 17:48:46 GMT 39.094151 21.562683 36,000 317 435 0
2021-10-17 17:48:36 GMT 39.078690 21.581327 36,000 317 435 0
2021-10-17 17:48:29 GMT 39.070358 21.591419 36,000 317 435 0
2021-10-17 17:48:25 GMT 39.063583 21.599539 36,000 317 435 0
2021-10-17 17:48:18 GMT 39.054062 21.611063 36,000 317 434 0
2021-10-17 17:48:15 GMT 39.049042 21.617126 36,000 317 435 0
2021-10-17 17:48:08 GMT 39.039413 21.628736 36,000 317 435 0
2021-10-17 17:48:04 GMT 39.033691 21.635603 36,000 317 435 0
2021-10-17 17:47:57 GMT 39.023529 21.647842 36,000 317 436 0
2021-10-17 17:47:54 GMT 39.018318 21.654114 36,000 317 437 -64
2021-10-17 17:47:44 GMT 38.998859 21.677429 36,000 317 435 0
2021-10-17 17:47:33 GMT 38.988293 21.690125 36,000 317 435 0
2021-10-17 17:47:29 GMT 38.979950 21.700089 36,000 317 435 0
2021-10-17 17:47:23 GMT 38.972977 21.708496 36,000 317 435 64
2021-10-17 17:47:17 GMT 38.960220 21.723791 36,000 317 435 64
2021-10-17 17:47:13 GMT 38.957939 21.726501 35,975 317 435 128
2021-10-17 17:47:10 GMT 38.953033 21.732450 35,975 317 435 192
2021-10-17 17:47:02 GMT 38.942459 21.745108 35,950 317 434 448
2021-10-17 17:46:56 GMT 38.932663 21.756870 35,875 317 434 896
2021-10-17 17:46:50 GMT 38.919617 21.772514 35,750 317 434 832
2021-10-17 17:46:41 GMT 38.910828 21.783081 35,650 317 434 640
2021-10-17 17:46:37 GMT 38.904869 21.790161 35,625 317 433 704
2021-10-17 17:46:31 GMT 38.897186 21.799383 35,550 317 433 704
2021-10-17 17:46:28 GMT 38.892517 21.804995 35,525 317 433 768
2021-10-17 17:46:21 GMT 38.882618 21.816833 35,425 317 434 832
2021-10-17 17:46:17 GMT 38.876614 21.824036 35,375 317 434 832
2021-10-17 17:46:11 GMT 38.867203 21.835386 35,275 317 434 832
2021-10-17 17:46:07 GMT 38.861252 21.842468 35,225 317 434 768
2021-10-17 17:46:00 GMT 38.851822 21.853777 35,100 317 432 704
2021-10-17 17:45:56 GMT 38.845284 21.861572 35,100 317 432 704
2021-10-17 17:45:52 GMT 38.838043 21.870256 35,050 317 432 512
2021-10-17 17:45:46 GMT 38.826965 21.883572 35,000 317 431 384
2021-10-17 17:45:40 GMT 38.822376 21.889038 34,975 317 430 448
2021-10-17 17:45:37 GMT 38.817677 21.894653 34,925 317 430 704
2021-10-17 17:45:30 GMT 38.807007 21.907394 34,825 317 430 1088
2021-10-17 17:45:26 GMT 38.801010 21.914560 34,750 317 430 1152
2021-10-17 17:45:19 GMT 38.792027 21.925232 34,625 317 432 1216
2021-10-17 17:45:16 GMT 38.786625 21.931702 34,550 317 432 1216
2021-10-17 17:45:09 GMT 38.769424 21.952295 34,325 317 434 1216
2021-10-17 17:45:04 GMT 38.769424 21.952295 34,325 317 434 1216
2021-10-17 17:45:00 GMT 38.763245 21.959641 34,200 317 434 1152
2021-10-17 17:44:55 GMT 38.751205 21.974089 34,100 317 435 768
2021-10-17 17:44:49 GMT 38.746948 21.979164 34,050 317 435 704
2021-10-17 17:44:46 GMT 38.743423 21.983404 34,025 317 435 704
2021-10-17 17:44:40 GMT 38.732986 21.995884 33,950 317 434 704
2021-10-17 17:44:37 GMT 38.728249 22.001587 33,900 317 433 768
2021-10-17 17:44:33 GMT 38.724472 22.006033 33,875 317 433 960
2021-10-17 17:44:29 GMT 38.717823 22.013977 33,775 318 434 1024
2021-10-17 17:44:26 GMT 38.713165 22.019468 33,700 318 434 1408
2021-10-17 17:44:23 GMT 38.709305 22.024109 33,675 318 434 1344
2021-10-17 17:44:15 GMT 38.692978 22.043411 33,400 318 436 1600
2021-10-17 17:44:09 GMT 38.687889 22.049438 33,300 318 438 1472
2021-10-17 17:44:03 GMT 38.674576 22.065205 33,125 318 438 1024
2021-10-17 17:43:59 GMT 38.672249 22.067932 33,100 318 438 896
2021-10-17 17:43:56 GMT 38.667114 22.073980 33,050 318 438 704
2021-10-17 17:43:49 GMT 38.655022 22.088379 32,950 317 437 832
2021-10-17 17:43:45 GMT 38.653023 22.090881 32,925 316 437 960
2021-10-17 17:43:35 GMT 38.638031 22.110046 32,750 314 437 1216
2021-10-17 17:43:23 GMT 38.618729 22.137033 32,425 311 438 1280
2021-10-17 17:43:15 GMT 38.610939 22.148804 32,325 310 438 1024
2021-10-17 17:43:11 GMT 38.602615 22.161932 32,225 309 438 832
2021-10-17 17:43:04 GMT 38.597485 22.170410 32,150 308 437 768
2021-10-17 17:42:55 GMT 38.587292 22.188049 31,975 305 435 1152
2021-10-17 17:42:52 GMT 38.583332 22.195190 31,975 305 435 1152
2021-10-17 17:42:46 GMT 38.575790 22.209280 31,825 304 436 1472
2021-10-17 17:42:42 GMT 38.572037 22.216623 31,750 303 435 1600
2021-10-17 17:42:32 GMT 38.558102 22.245789 31,350 300 439 1856
2021-10-17 17:42:23 GMT 38.552536 22.258301 31,175 299 440 1728
2021-10-17 17:42:18 GMT 38.545158 22.276123 31,000 297 441 1280
2021-10-17 17:42:13 GMT 38.542740 22.282244 30,950 297 441 1152
2021-10-17 17:42:06 GMT 38.536407 22.299255 30,825 295 441 1088
2021-10-17 17:42:03 GMT 38.534126 22.305664 30,750 294 440 1088
2021-10-17 17:41:53 GMT 38.525795 22.330750 30,550 293 439 1152
2021-10-17 17:41:45 GMT 38.519974 22.348755 30,425 293 440 1024
2021-10-17 17:41:40 GMT 38.514156 22.366760 30,275 293 440 1344
2021-10-17 17:41:32 GMT 38.509968 22.379700 30,150 293 440 1408
2021-10-17 17:41:27 GMT 38.503590 22.399353 29,975 293 440 1216
2021-10-17 17:41:21 GMT 38.501450 22.405958 29,950 293 440 1216
2021-10-17 17:41:11 GMT 38.493073 22.431812 29,700 293 440 1216
2021-10-17 17:41:04 GMT 38.488228 22.446777 29,575 293 439 1152
2021-10-17 17:40:59 GMT 38.484596 22.458008 29,500 293 439 1088
2021-10-17 17:40:54 GMT 38.480312 22.471130 29,400 293 439 832
2021-10-17 17:40:51 GMT 38.478287 22.477489 29,375 293 438 704
2021-10-17 17:40:47 GMT 38.473282 22.492859 29,300 293 435 512
2021-10-17 17:40:43 GMT 38.471840 22.497314 29,300 293 435 576
2021-10-17 17:40:39 GMT 38.468208 22.508484 29,250 293 434 768
2021-10-17 17:40:33 GMT 38.464531 22.519775 29,175 293 432 832
2021-10-17 17:40:30 GMT 38.461899 22.527884 29,125 293 431 960
2021-10-17 17:40:23 GMT 38.454010 22.552185 28,950 293 429 960
2021-10-17 17:40:19 GMT 38.454010 22.552185 28,950 293 429 1024
2021-10-17 17:40:16 GMT 38.450958 22.561619 28,900 293 429 1024
2021-10-17 17:40:12 GMT 38.448212 22.570038 28,825 293 428 1088
2021-10-17 17:40:08 GMT 38.444641 22.581024 28,725 293 428 1216
2021-10-17 17:40:02 GMT 38.441071 22.591951 28,625 293 427 1280
2021-10-17 17:39:58 GMT 38.437500 22.602877 28,550 293 427 1280
2021-10-17 17:39:53 GMT 38.433247 22.616028 28,425 293 427 1280
2021-10-17 17:39:49 GMT 38.430267 22.625061 28,325 293 426 1280
2021-10-17 17:39:39 GMT 38.423080 22.647181 28,150 293 425 1024
2021-10-17 17:39:36 GMT 38.420700 22.654346 28,100 293 424 832
2021-10-17 17:39:31 GMT 38.416534 22.667175 28,025 293 423 832
2021-10-17 17:39:27 GMT 38.414017 22.674887 27,975 293 423 960
2021-10-17 17:39:16 GMT 38.404202 22.704800 27,725 293 421 1216
2021-10-17 17:39:09 GMT 38.399963 22.717682 27,600 293 420 1216
2021-10-17 17:39:06 GMT 38.397682 22.724623 27,550 293 420 1216
2021-10-17 17:39:01 GMT 38.394238 22.735071 27,450 293 419 1216
2021-10-17 17:38:58 GMT 38.392563 22.740326 27,375 293 418 1216
2021-10-17 17:38:55 GMT 38.390030 22.747952 27,325 293 418 1216
2021-10-17 17:38:48 GMT 38.385021 22.763254 27,050 293 416 1344
2021-10-17 17:38:45 GMT 38.383209 22.768757 27,125 293 416 1344
2021-10-17 17:38:39 GMT 38.378597 22.782898 26,975 293 416 1344
2021-10-17 17:38:36 GMT 38.375755 22.791496 26,875 293 415 1280
2021-10-17 17:38:28 GMT 38.369751 22.809896 26,750 293 415 1280
2021-10-17 17:38:24 GMT 38.365082 22.824038 26,700 293 413 1216
2021-10-17 17:38:17 GMT 38.362022 22.833351 26,525 293 412 1152
2021-10-17 17:38:14 GMT 38.360252 22.838724 26,500 293 412 1152
2021-10-17 17:38:08 GMT 38.355972 22.851854 26,375 293 411 1216
2021-10-17 17:38:05 GMT 38.352676 22.861849 26,275 293 410 1344
2021-10-17 17:37:56 GMT 38.347267 22.878431 26,100 293 409 1408
2021-10-17 17:37:53 GMT 38.344612 22.886433 26,025 293 409 1472
2021-10-17 17:37:47 GMT 38.339958 22.900642 25,800 293 409 1536
2021-10-17 17:37:44 GMT 38.337433 22.908306 25,275 293 405 1152
2021-10-17 17:37:39 GMT 38.333488 22.920406 25,625 293 408 1408
2021-10-17 17:37:33 GMT 38.327713 22.937841 25,450 293 407 1408
2021-10-17 17:37:25 GMT 38.324364 22.947990 25,350 293 406 1280
2021-10-17 17:37:22 GMT 38.321411 22.956926 25,275 293 405 1152
2021-10-17 17:37:16 GMT 38.317566 22.968555 25,175 293 405 1152
2021-10-17 17:37:13 GMT 38.314587 22.977428 25,075 293 403 1216
2021-10-17 17:37:05 GMT 38.309559 22.992714 24,875 293 402 1280
2021-10-17 17:37:02 GMT 38.307323 22.999460 24,875 293 401 1280
2021-10-17 17:36:55 GMT 38.302574 23.013790 24,600 293 400 1536
2021-10-17 17:36:52 GMT 38.299644 23.022688 24,625 293 400 1536
2021-10-17 17:36:43 GMT 38.293625 23.040960 24,400 293 398 1600
2021-10-17 17:36:40 GMT 38.290054 23.051645 24,250 293 398 1792
2021-10-17 17:36:34 GMT 38.287773 23.058571 24,150 293 398 1856
2021-10-17 17:36:30 GMT 38.284931 23.067169 24,025 293 398 1856
2021-10-17 17:36:27 GMT 38.282234 23.075350 23,925 293 398 1728
2021-10-17 17:36:24 GMT 38.280396 23.080873 23,850 293 398 1664
2021-10-17 17:36:21 GMT 38.277374 23.089931 23,750 293 398 1536
2021-10-17 17:36:15 GMT 38.273994 23.100128 23,625 293 397 1472
2021-10-17 17:36:12 GMT 38.269958 23.112253 23,500 293 396 1344
2021-10-17 17:36:04 GMT 38.266205 23.123590 23,375 293 393 1408
2021-10-17 17:36:00 GMT 38.262680 23.134102 23,250 293 393 1408
2021-10-17 17:35:54 GMT 38.259384 23.143986 23,100 293 392 1728
2021-10-17 17:35:49 GMT 38.253433 23.161810 22,875 294 391 1728
2021-10-17 17:35:43 GMT 38.250961 23.169172 22,775 294 391 1664
2021-10-17 17:35:39 GMT 38.247849 23.178465 22,650 294 390 1664
2021-10-17 17:35:36 GMT 38.245411 23.185749 22,100 294 390 1728
2021-10-17 17:35:33 GMT 38.244339 23.188913 22,525 294 390 1728
2021-10-17 17:35:29 GMT 38.241219 23.198170 22,350 294 388 1792
2021-10-17 17:35:23 GMT 38.234894 23.217150 22,125 294 388 1792
2021-10-17 17:35:17 GMT 38.233109 23.222410 22,050 294 388 1856
2021-10-17 17:35:13 GMT 38.229908 23.231964 21,900 293 387 1920
2021-10-17 17:35:08 GMT 38.225811 23.244324 21,700 293 387 1984
2021-10-17 17:35:03 GMT 38.222645 23.253757 21,575 293 387 1920
2021-10-17 17:34:59 GMT 38.220039 23.261459 21,450 293 386 1856
2021-10-17 17:34:56 GMT 38.218460 23.266180 21,250 293 386 1792
2021-10-17 17:34:52 GMT 38.215569 23.274836 21,250 294 385 1792
2021-10-17 17:34:47 GMT 38.212311 23.284628 21,050 294 384 1664
2021-10-17 17:34:44 GMT 38.209213 23.293879 20,925 294 383 1472
2021-10-17 17:34:41 GMT 38.207886 23.297794 20,950 294 383 1536
2021-10-17 17:34:36 GMT 38.204132 23.308956 20,825 294 381 1472
2021-10-17 17:34:33 GMT 38.201981 23.315327 20,750 294 380 1536
2021-10-17 17:34:28 GMT 38.198090 23.327013 20,600 293 379 1600
2021-10-17 17:34:25 GMT 38.197041 23.330185 20,550 294 378 1664
2021-10-17 17:34:22 GMT 38.194344 23.338184 20,450 293 376 1792
2021-10-17 17:34:16 GMT 38.190628 23.349277 20,275 294 375 1856
2021-10-17 17:34:13 GMT 38.188522 23.355680 20,175 294 375 1920
2021-10-17 17:34:10 GMT 38.186829 23.360615 20,100 293 374 1856
2021-10-17 17:34:05 GMT 38.182518 23.373472 19,800 293 373 1792
2021-10-17 17:34:01 GMT 38.180424 23.379742 19,800 293 373 1792
2021-10-17 17:33:54 GMT 38.172558 23.403267 19,475 294 370 1792
2021-10-17 17:33:51 GMT 38.171906 23.405237 19,425 294 370 1792
2021-10-17 17:33:47 GMT 38.170414 23.409657 19,375 294 370 1856
2021-10-17 17:33:39 GMT 38.163345 23.430449 19,025 294 368 2048
2021-10-17 17:33:35 GMT 38.162750 23.432201 19,000 294 368 2048
2021-10-17 17:33:29 GMT 38.158077 23.446018 18,750 294 366 1920
2021-10-17 17:33:25 GMT 38.156448 23.450735 18,675 294 365 1856
2021-10-17 17:33:21 GMT 38.153824 23.458500 18,575 294 365 1792
2021-10-17 17:33:18 GMT 38.151749 23.464527 18,425 294 363 1728
2021-10-17 17:33:15 GMT 38.149185 23.472172 18,375 294 363 1728
2021-10-17 17:33:11 GMT 38.146767 23.479216 18,250 294 362 1728
2021-10-17 17:33:08 GMT 38.144394 23.486139 18,150 294 360 1920
2021-10-17 17:33:04 GMT 38.142426 23.491924 18,000 294 359 2240
2021-10-17 17:33:01 GMT 38.139862 23.499521 17,875 294 359 2176
2021-10-17 17:32:58 GMT 38.135925 23.511150 17,775 294 359 2240
2021-10-17 17:32:55 GMT 38.135925 23.511150 17,700 293 359 2176
2021-10-17 17:32:51 GMT 38.133270 23.519274 17,550 292 358 2048
2021-10-17 17:32:48 GMT 38.129745 23.531956 17,325 286 356 1728
2021-10-17 17:32:45 GMT 38.129745 23.531956 17,275 286 356 1728
2021-10-17 17:32:41 GMT 38.128143 23.540253 17,250 282 354 1600
2021-10-17 17:32:37 GMT 38.127121 23.547523 17,150 280 353 1600
2021-10-17 17:32:33 GMT 38.126099 23.559225 16,950 275 351 2048
2021-10-17 17:32:28 GMT 38.125118 23.575228 16,725 275 350 2304
2021-10-17 17:32:24 GMT 38.125118 23.575228 16,675 275 350 2368
2021-10-17 17:32:21 GMT 38.124840 23.580124 16,575 275 350 2496
2021-10-17 17:32:17 GMT 38.124435 23.586769 16,450 275 350 2624
2021-10-17 17:32:13 GMT 38.123932 23.594776 16,275 275 350 2624
2021-10-17 17:32:10 GMT 38.123428 23.602722 16,100 275 350 2560
2021-10-17 17:32:07 GMT 38.123199 23.606813 16,025 275 350 2496
2021-10-17 17:32:03 GMT 38.122696 23.615404 15,825 275 349 2240
2021-10-17 17:32:00 GMT 38.122192 23.623177 15,725 275 348 2176
2021-10-17 17:31:57 GMT 38.121964 23.627268 15,650 275 348 2112
2021-10-17 17:31:53 GMT 38.121414 23.636677 15,475 275 347 1984
2021-10-17 17:31:47 GMT 38.120728 23.648247 15,300 275 346 1792
2021-10-17 17:31:44 GMT 38.120277 23.655415 15,200 275 345 1920
2021-10-17 17:31:39 GMT 38.119629 23.665545 15,025 275 343 2112
2021-10-17 17:31:36 GMT 38.119354 23.669752 14,950 275 342 2176
2021-10-17 17:31:32 GMT 38.118713 23.679337 14,775 276 341 2176
2021-10-17 17:31:27 GMT 38.117996 23.689388 14,600 276 339 2112
2021-10-17 17:31:22 GMT 38.117249 23.699146 14,425 276 338 2112
2021-10-17 17:31:16 GMT 38.115875 23.716736 14,075 276 336 2368
2021-10-17 17:31:12 GMT 38.115555 23.720652 14,000 276 335 2432
2021-10-17 17:31:09 GMT 38.115391 23.722467 13,875 276 335 2432
2021-10-17 17:31:06 GMT 38.114868 23.729242 13,825 276 335 2432
2021-10-17 17:31:02 GMT 38.114182 23.737247 13,600 277 334 2240
2021-10-17 17:30:59 GMT 38.113480 23.745934 13,500 276 333 2240
2021-10-17 17:30:56 GMT 38.113247 23.749039 13,425 276 332 2368
2021-10-17 17:30:49 GMT 38.112129 23.763010 13,075 276 331 2816
2021-10-17 17:30:46 GMT 38.111664 23.769159 12,975 276 331 2880
2021-10-17 17:30:39 GMT 38.110687 23.783312 12,625 275 331 2688
2021-10-17 17:30:35 GMT 38.110199 23.790777 12,475 275 331 2560
2021-10-17 17:30:32 GMT 38.109711 23.797819 12,300 275 331 2496
2021-10-17 17:30:28 GMT 38.109329 23.803516 12,125 275 330 2368
2021-10-17 17:30:24 GMT 38.108414 23.817541 11,900 275 328 2176
2021-10-17 17:30:19 GMT 38.108276 23.819645 11,875 275 327 2176
2021-10-17 17:30:14 GMT 38.107681 23.829405 11,675 275 324 2240
2021-10-17 17:30:10 GMT 38.107056 23.840094 11,450 275 323 2560
2021-10-17 17:30:05 GMT 38.106590 23.848213 11,275 274 322 2432
2021-10-17 17:30:01 GMT 38.106171 23.856691 11,125 274 320 2048
2021-10-17 17:29:58 GMT 38.105755 23.866425 10,950 273 317 1600
2021-10-17 17:29:54 GMT 38.105705 23.867380 10,950 273 317 1600
2021-10-17 17:29:49 GMT 38.105335 23.877172 10,825 273 312 1088
2021-10-17 17:29:44 GMT 38.105007 23.885530 10,750 273 307 960
2021-10-17 17:29:39 GMT 38.104496 23.897413 10,650 274 298 960
2021-10-17 17:29:35 GMT 38.104294 23.901867 10,575 274 294 960
2021-10-17 17:29:31 GMT 38.103790 23.913145 10,475 274 287 1216
2021-10-17 17:29:28 GMT 38.103706 23.914907 10,450 274 287 1344
2021-10-17 17:29:24 GMT 38.103424 23.920391 10,375 274 283 1856
2021-10-17 17:29:17 GMT 38.102829 23.932255 10,100 274 280 2624
2021-10-17 17:29:14 GMT 38.102600 23.936695 9,975 274 279 2496
2021-10-17 17:29:07 GMT 38.102077 23.948166 9,475 274 275 2432
2021-10-17 17:29:04 GMT 38.101845 23.953003 9,550 274 275 2496
2021-10-17 17:28:58 GMT 38.101330 23.964943 9,250 273 272 2432
2021-10-17 17:28:53 GMT 38.100861 23.976143 8,950 273 270 2624
2021-10-17 17:28:47 GMT 38.100677 23.980946 8,825 273 269 2944
2021-10-17 17:28:44 GMT 38.100445 23.987095 8,625 273 269 3200
2021-10-17 17:28:40 GMT 38.100121 23.996769 8,275 273 270 3456
2021-10-17 17:28:36 GMT 38.100075 23.997543 8,250 273 270 3456
2021-10-17 17:28:33 GMT 38.099899 24.002672 8,050 273 271 3456
2021-10-17 17:28:27 GMT 38.099468 24.013546 7,675 274 271 3264
2021-10-17 17:28:23 GMT 38.099258 24.018393 7,500 275 271 3200
2021-10-17 17:28:14 GMT 38.094177 24.045740 6,875 293 265 1920
2021-10-17 17:28:06 GMT 38.094177 24.045740 6,800 301 261 1600
2021-10-17 17:28:01 GMT 38.089134 24.054625 6,625 315 253 1216
2021-10-17 17:27:53 GMT 38.084152 24.060234 6,525 326 244 1216
2021-10-17 17:27:44 GMT 38.075680 24.065611 6,350 343 235 1152
2021-10-17 17:27:42 GMT 38.074097 24.066210 6,325 347 233 1152
2021-10-17 17:27:35 GMT 38.063232 24.067188 6,125 3 225 1728
2021-10-17 17:27:32 GMT 38.063232 24.067188 6,075 7 223 1920
2021-10-17 17:27:22 GMT 38.053345 24.063505 5,675 26 224 2880
2021-10-17 17:27:19 GMT 38.048584 24.059942 5,400 33 225 3136
2021-10-17 17:27:13 GMT 38.045837 24.057547 5,225 34 226 3200
2021-10-17 17:27:11 GMT 38.044071 24.055998 5,125 34 226 3136
2021-10-17 17:27:06 GMT 38.037319 24.050028 4,775 34 226 2048
2021-10-17 17:27:02 GMT 38.035179 24.048117 4,700 34 225 1856
2021-10-17 17:26:53 GMT 38.028522 24.042206 4,425 35 221 2048
2021-10-17 17:26:51 GMT 38.026886 24.040773 4,350 35 219 1920
2021-10-17 17:26:41 GMT 38.015854 24.030840 3,950 35 211 1408
2021-10-17 17:26:33 GMT 38.011623 24.027040 3,850 35 204 1088
2021-10-17 17:26:28 GMT 38.005993 24.021906 3,725 36 195 896
2021-10-17 17:26:21 GMT 38.002899 24.019035 3,675 36 188 960
2021-10-17 17:26:15 GMT 37.996948 24.013483 3,525 36 176 1024
2021-10-17 17:26:12 GMT 37.996948 24.013483 3,525 36 176 1024
2021-10-17 17:26:10 GMT 37.995621 24.012257 3,500 36 174 1024
2021-10-17 17:26:01 GMT 37.989075 24.006062 3,325 37 164 1408
2021-10-17 17:25:59 GMT 37.989075 24.006062 3,300 36 161 2112
2021-10-17 17:25:51 GMT 37.984440 24.001604 2,875 37 160 2048
2021-10-17 17:25:49 GMT 37.982712 23.999926 2,925 37 160 1984
2021-10-17 17:25:41 GMT 37.976479 23.993902 2,575 37 160 2112
2021-10-17 17:25:38 GMT 37.976479 23.993902 2,550 37 160 2112
2021-10-17 17:25:29 GMT 37.970901 23.988588 2,250 37 158 1856
2021-10-17 17:25:21 GMT 37.965912 23.983797 2,000 37 154 1792
2021-10-17 17:25:19 GMT 37.965305 23.983213 1,950 37 154 1792
2021-10-17 17:25:18 GMT 37.964188 23.982140 1,900 37 153 1856
2021-10-17 17:25:16 GMT 37.963631 23.981543 1,875 37 153 1920
2021-10-17 17:25:15 GMT 37.963024 23.981005 1,825 37 152 1920
2021-10-17 17:25:14 GMT 37.961815 23.979811 1,750 37 152 1984
2021-10-17 17:25:12 GMT 37.961288 23.979298 1,725 37 152 2048
2021-10-17 17:25:10 GMT 37.960098 23.978188 1,650 37 151 2112
2021-10-17 17:25:08 GMT 37.959206 23.977303 1,600 37 151 2176
2021-10-17 17:25:07 GMT 37.958649 23.976767 1,550 37 151 2176
2021-10-17 17:25:06 GMT 37.958042 23.976168 1,525 37 151 2176
2021-10-17 17:25:04 GMT 37.956894 23.975031 1,450 37 150 2240
2021-10-17 17:25:03 GMT 37.956253 23.974447 1,400 37 150 2304
2021-10-17 17:25:02 GMT 37.955750 23.973980 1,375 37 150 2304
2021-10-17 17:25:00 GMT 37.954552 23.972824 1,275 37 150 2432
2021-10-17 17:24:59 GMT 37.953369 23.971701 1,200 37 150 2560
2021-10-17 17:24:56 GMT 37.952225 23.970615 1,125 36 151 2688
2021-10-17 17:24:54 GMT 37.951126 23.969538 1,000 36 152 2944
2021-10-17 17:24:52 GMT 37.949936 23.968428 900 37 152 2944
2021-10-17 17:24:51 GMT 37.949432 23.967930 850 37 154 2944
2021-10-17 17:24:50 GMT 37.948334 23.966909 750 37 155 2816
2021-10-17 17:24:48 GMT 37.947708 23.966257 700 36 156 2752
2021-10-17 17:24:46 GMT 37.946545 23.965181 600 37 157 2688
2021-10-17 17:24:43 GMT 37.945358 23.964045 525 37 159 2944
2021-10-17 17:24:42 GMT 37.943939 23.962734 400 37 160 3072
2021-10-17 17:24:39 GMT 37.941471 23.960346 250 37 165 2304
2021-10-17 17:24:37 GMT 37.941471 23.960346 225 37 166 1984
2021-10-17 17:24:36 GMT 37.940872 23.959721 200 37 165 1728
2021-10-17 17:24:35 GMT 37.939636 23.958551 125 37 164 768
2021-10-17 17:24:33 GMT 37.939087 23.958027 100 37 160 320
2021-10-17 17:24:32 GMT 37.938442 23.957420 100 37 160 256
2021-10-17 17:24:31 GMT 37.937027 23.956039 150 37 155 192
2021-10-17 17:24:29 GMT 37.936398 23.955450 150 37 152 128
2021-10-17 17:24:27 GMT 37.935608 23.954695 150 36 146 128
2021-10-17 17:24:26 GMT 37.935093 23.954197 150 37 142 64
2021-10-17 17:24:24 GMT 37.934052 23.953234 150 36 136 64
2021-10-17 17:24:23 GMT 37.933548 23.952766 125 37 132 64
2021-10-17 17:24:21 GMT 37.932495 23.951773 150 37 122 64
2021-10-17 17:24:20 GMT 37.932018 23.951269 150 37 122 64
2021-10-17 17:24:19 GMT 37.930618 23.949963 150 37 115 0
2021-10-17 17:24:17 GMT 37.930618 23.949963 150 37 112 0
2021-10-17 17:24:16 GMT 37.930069 23.949436 150 37 107 64
2021-10-17 17:24:15 GMT 37.928902 23.948343 150 36 96 0
2021-10-17 17:24:12 GMT 37.928902 23.948343 150 36 92 0
2021-10-17 17:24:11 GMT 37.928391 23.947866 150 36 88 0
2021-10-17 17:24:09 GMT 37.927853 23.947329 0 36 80
2021-10-17 17:24:08 GMT 37.927540 23.947031 0 36 76
2021-10-17 17:24:06 GMT 37.926876 23.946398 0 36 67
2021-10-17 17:24:05 GMT 37.926643 23.946180 0 36 62
2021-10-17 17:24:03 GMT 37.925983 23.945549 0 36 48
2021-10-17 17:24:02 GMT 37.925983 23.945549 0 36 48
2021-10-17 17:24:01 GMT 37.925793 23.945374 0 36 44
2021-10-17 17:23:59 GMT 37.925491 23.945082 0 36 34
2021-10-17 17:23:58 GMT 37.925377 23.944971 0 36 29
2021-10-17 17:23:57 GMT 37.925182 23.944790 0 36 18
2021-10-17 17:23:55 GMT 37.925106 23.944733 0 36 13
2021-10-17 17:23:53 GMT 37.925034 23.944658 0 39 7
2021-10-17 17:23:52 GMT 37.924980 23.944613 0 39 5
2021-10-17 17:23:49 GMT 37.924953 23.944586 0 39 0
2021-10-17 17:23:44 GMT 37.924931 23.944555 0 42 0
2021-10-17 17:23:39 GMT 37.924931 23.944542 0 42 0
2021-10-17 17:23:34 GMT 37.924919 23.944553 0 42 0
2021-10-17 17:23:29 GMT 37.924919 23.944542 0 42 0
2021-10-17 17:23:24 GMT 37.924919 23.944553 0 42 0
2021-10-17 17:23:14 GMT 37.924919 23.944542 0 42 0
2021-10-17 17:22:58 GMT 37.924919 23.944553 0 42 0
2021-10-17 17:22:57 GMT 37.924919 23.944542 0 42 0
2021-10-17 17:22:56 GMT 37.924919 23.944553 0 42 0
2021-10-17 17:22:52 GMT 37.924919 23.944542 0 42 0
2021-10-17 17:22:40 GMT 37.924919 23.944553 0 42 0
2021-10-17 17:22:39 GMT 37.924919 23.944542 0 42 0
2021-10-17 17:22:37 GMT 37.924919 23.944542 0 42 0
2021-10-17 17:22:35 GMT 37.924919 23.944553 0 42 0
2021-10-17 17:22:31 GMT 37.924919 23.944553 0 42 0
2021-10-17 17:22:28 GMT 37.924908 23.944538 0 42 2
2021-10-17 17:22:26 GMT 37.924908 23.944538 0 42 2
2021-10-17 17:22:24 GMT 37.924885 23.944523 0 42 2
2021-10-17 17:22:23 GMT 37.924873 23.944508 0 47 3
2021-10-17 17:22:21 GMT 37.924862 23.944508 0 50 4
2021-10-17 17:22:19 GMT 37.924828 23.944498 0 61 5
2021-10-17 17:22:18 GMT 37.924793 23.944492 0 75 5
2021-10-17 17:22:16 GMT 37.924782 23.944483 0 81 5
2021-10-17 17:22:15 GMT 37.924747 23.944439 0 98 5
2021-10-17 17:22:13 GMT 37.924736 23.944420 0 106 5
2021-10-17 17:22:12 GMT 37.924725 23.944359 0 120 5
2021-10-17 17:22:04 GMT 37.924839 23.944132 0 126 9
2021-10-17 17:22:01 GMT 37.924919 23.944000 0 126 9
2021-10-17 17:21:50 GMT 37.925171 23.943592 0 126 8
2021-10-17 17:21:49 GMT 37.925194 23.943563 0 126 8
2021-10-17 17:21:48 GMT 37.925213 23.943523 0 126 8
2021-10-17 17:21:47 GMT 37.925228 23.943489 0 126 8
2021-10-17 17:21:45 GMT 37.925270 23.943434 0 126 8
2021-10-17 17:21:44 GMT 37.925285 23.943401 0 126 8
2021-10-17 17:21:43 GMT 37.925320 23.943342 0 126 8
2021-10-17 17:21:32 GMT 37.925537 23.942986 0 143 8
2021-10-17 17:21:22 GMT 37.925854 23.942778 0 194 9
2021-10-17 17:21:11 GMT 37.926308 23.943075 0 216 16
2021-10-17 17:21:02 GMT 37.926888 23.943649 0 216 17
2021-10-17 17:20:52 GMT 37.927494 23.944223 0 216 17
2021-10-17 17:20:42 GMT 37.928501 23.945185 0 216 17
2021-10-17 17:20:31 GMT 37.928776 23.945448 0 216 16
2021-10-17 17:20:21 GMT 37.929337 23.945988 0 216 15
2021-10-17 17:20:10 GMT 37.929832 23.946465 0 216 12
2021-10-17 17:20:01 GMT 37.930218 23.946762 0 180 10
2021-10-17 17:19:49 GMT 37.930687 23.946514 0 126 10
2021-10-17 17:19:41 GMT 37.930916 23.946150 0 143 9
2021-10-17 17:19:39 GMT 37.930984 23.946060 0 154 10
2021-10-17 17:19:31 GMT 37.931309 23.945927 0 185 10
2021-10-17 17:19:29 GMT 37.931416 23.945942 0 188 11
2021-10-17 17:19:20 GMT 37.931854 23.946016 0 188 12

Making use of Plane Finder data

You are free to use the raw flight data, aircraft information and images provided in this report for your own purposes provided the data is correctly attributed to Plane Finder. We ask that you please credit Plane Finder and link to planefinder.net in close proximity to the content.

Optionally one of the following logos (no smaller then 150x24px) can be used and must link to planefinder.net

Embedding the Plane Finder map

You are welcome to embed the Plane Finder playback map on your website to offer visitors a more interactive experience. We suggest using the following HTML code:

<iframe src="//planefinder.net/data/report/U21942-G-EZUF-7700-squawk-2021-10-17/map" width="800" height="600" seamless="seamless"></iframe>

Where our data comes from

Plane Finder has a global network of data feeds and antenna radars that receive data broadcast directly from aircraft. The primary technologies used are ADS-B and MLAT. We also show feeds from the FAA and a FLARM glider feed.

Click here to find out more about the Plane Finder network.

How we collect our data